| time (UTC) | temp C | wind direction | speed KPH | gust KPH | rain 1hr cm | rain 24hr cm | rain mn cm | humidity % | barometer mb |
| 20260507144629 | 19 | 71 | 9.7 | 17.7 | 0.00 | 0.61 | 0.15 | 67 | 1013.5 |
| 20260507144527 | 19 | 63 | 9.7 | 17.7 | 0.00 | 0.61 | 0.15 | 67 | 1013.6 |
| 20260507144422 | 19 | 86 | 8.0 | 17.7 | 0.00 | 0.61 | 0.15 | 69 | 1013.6 |
| 20260507144330 | 19 | 55 | 9.7 | 17.7 | 0.00 | 0.61 | 0.15 | 69 | 1013.6 |
| 20260507144222 | 19 | 88 | 9.7 | 17.7 | 0.00 | 0.61 | 0.15 | 69 | 1013.6 |
| 20260507144131 | 19 | 91 | 9.7 | 17.7 | 0.00 | 0.61 | 0.15 | 69 | 1013.6 |
| 20260507144028 | 19 | 40 | 8.0 | 17.7 | 0.00 | 0.61 | 0.15 | 69 | 1013.5 |
| 20260507143956 | 19 | 68 | 8.0 | 19.3 | 0.00 | 0.61 | 0.15 | 69 | 1013.6 |
| 20260507143834 | 19 | 82 | 9.7 | 20.9 | 0.00 | 0.61 | 0.15 | 69 | 1013.5 |
| 20260507143741 | 19 | 35 | 11.3 | 20.9 | 0.00 | 0.61 | 0.15 | 69 | 1013.5 |
| 20260507143642 | 19 | 59 | 11.3 | 20.9 | 0.00 | 0.61 | 0.15 | 70 | 1013.5 |
| 20260507143547 | 18 | 65 | 11.3 | 20.9 | 0.00 | 0.61 | 0.15 | 69 | 1013.6 |
| 20260507143421 | 18 | 94 | 11.3 | 20.9 | 0.00 | 0.61 | 0.15 | 69 | 1013.6 |
| 20260507143350 | 18 | 42 | 11.3 | 20.9 | 0.00 | 0.61 | 0.15 | 69 | 1013.6 |
| 20260507143246 | 18 | 86 | 12.9 | 20.9 | 0.00 | 0.61 | 0.15 | 69 | 1013.6 |
| 20260507143215 | 18 | 88 | 16.1 | 20.9 | 0.00 | 0.61 | 0.15 | 68 | 1013.7 |
| 20260507143027 | 18 | 86 | 14.5 | 19.3 | 0.00 | 0.61 | 0.15 | 68 | 1013.6 |
| 20260507142921 | 18 | 103 | 12.9 | 19.3 | 0.00 | 0.61 | 0.15 | 68 | 1013.7 |
| 20260507142832 | 18 | 86 | 12.9 | 19.3 | 0.00 | 0.61 | 0.15 | 68 | 1013.7 |
| 20260507142727 | 19 | 91 | 12.9 | 19.3 | 0.00 | 0.61 | 0.15 | 68 | 1013.7 |
| 20260507142638 | 19 | 97 | 11.3 | 19.3 | 0.00 | 0.61 | 0.15 | 69 | 1013.7 |
| 20260507142543 | 19 | 62 | 12.9 | 19.3 | 0.00 | 0.61 | 0.15 | 69 | 1013.7 |
| 20260507142422 | 19 | 115 | 12.9 | 17.7 | 0.00 | 0.61 | 0.15 | 68 | 1013.7 |
| 20260507142318 | 19 | 92 | 11.3 | 17.7 | 0.00 | 0.61 | 0.15 | 68 | 1013.7 |
| 20260507142249 | 19 | 81 | 12.9 | 17.7 | 0.00 | 0.61 | 0.15 | 68 | 1013.7 |
| 20260507142123 | 19 | 68 | 12.9 | 17.7 | 0.00 | 0.61 | 0.15 | 67 | 1013.7 |
| 20260507142027 | 19 | 98 | 11.3 | 19.3 | 0.00 | 0.61 | 0.15 | 67 | 1013.7 |
| 20260507141955 | 19 | 105 | 9.7 | 19.3 | 0.00 | 0.61 | 0.15 | 67 | 1013.7 |
| 20260507141827 | 19 | 51 | 9.7 | 19.3 | 0.00 | 0.61 | 0.15 | 67 | 1013.7 |
| 20260507141737 | 19 | 57 | 11.3 | 19.3 | 0.00 | 0.61 | 0.15 | 67 | 1013.7 |
| 20260507141637 | 19 | 57 | 9.7 | 19.3 | 0.00 | 0.61 | 0.15 | 67 | 1013.7 |
| 20260507141528 | 19 | 68 | 8.0 | 19.3 | 0.00 | 0.61 | 0.15 | 67 | 1013.7 |
| 20260507141455 | 19 | 67 | 11.3 | 19.3 | 0.00 | 0.61 | 0.15 | 67 | 1013.6 |
| 20260507141341 | 19 | 42 | 14.5 | 19.3 | 0.00 | 0.61 | 0.15 | 67 | 1013.6 |
| 20260507141219 | 19 | 65 | 14.5 | 19.3 | 0.00 | 0.61 | 0.15 | 67 | 1013.7 |
| 20260507141134 | 19 | 98 | 11.3 | 16.1 | 0.00 | 0.61 | 0.15 | 67 | 1013.7 |
| 20260507141024 | 19 | 57 | 9.7 | 16.1 | 0.00 | 0.61 | 0.15 | 66 | 1013.7 |
| 20260507140922 | 19 | 86 | 9.7 | 16.1 | 0.00 | 0.61 | 0.15 | 66 | 1013.7 |
| 20260507140820 | 19 | 44 | 9.7 | 16.1 | 0.00 | 0.61 | 0.15 | 67 | 1013.7 |
| 20260507140730 | 19 | 37 | 9.7 | 17.7 | 0.00 | 0.61 | 0.15 | 66 | 1013.7 |
| 20260507140627 | 19 | 101 | 9.7 | 17.7 | 0.00 | 0.61 | 0.15 | 66 | 1013.7 |
| 20260507140531 | 19 | 86 | 9.7 | 19.3 | 0.00 | 0.61 | 0.15 | 66 | 1013.7 |
| 20260507140450 | 19 | 48 | 9.7 | 19.3 | 0.00 | 0.61 | 0.15 | 67 | 1013.7 |
| 20260507140330 | 18 | 35 | 9.7 | 19.3 | 0.00 | 0.61 | 0.15 | 67 | 1013.7 |
| 20260507140225 | 18 | 81 | 9.7 | 19.3 | 0.00 | 0.61 | 0.15 | 67 | 1013.7 |
| 20260507140133 | 18 | 85 | 9.7 | 19.3 | 0.00 | 0.61 | 0.15 | 67 | 1013.7 |
| 20260507140024 | 18 | 59 | 11.3 | 19.3 | 0.00 | 0.61 | 0.15 | 67 | 1013.7 |
| 20260507135935 | 18 | 92 | 11.3 | 19.3 | 0.00 | 0.61 | 0.15 | 67 | 1013.8 |
| 20260507135827 | 18 | 115 | 12.9 | 19.3 | 0.00 | 0.61 | 0.15 | 66 | 1013.8 |
| 20260507135721 | 18 | 80 | 14.5 | 19.3 | 0.00 | 0.61 | 0.15 | 66 | 1013.7 |
| 20260507135640 | 18 | 76 | 12.9 | 19.3 | 0.00 | 0.61 | 0.15 | 66 | 1013.7 |
| 20260507135545 | 18 | 83 | 14.5 | 19.3 | 0.00 | 0.61 | 0.15 | 67 | 1013.8 |
| 20260507135422 | 18 | 90 | 11.3 | 20.9 | 0.00 | 0.61 | 0.15 | 67 | 1013.8 |
| 20260507135319 | 18 | 105 | 9.7 | 20.9 | 0.00 | 0.61 | 0.15 | 68 | 1013.8 |
| 20260507135227 | 18 | 72 | 9.7 | 20.9 | 0.00 | 0.61 | 0.15 | 68 | 1013.8 |
| 20260507135154 | 18 | 57 | 11.3 | 20.9 | 0.00 | 0.61 | 0.15 | 68 | 1013.8 |
| 20260507135031 | 18 | 98 | 14.5 | 20.9 | 0.00 | 0.61 | 0.15 | 67 | 1013.8 |
| 20260507134928 | 18 | 70 | 14.5 | 20.9 | 0.00 | 0.61 | 0.15 | 67 | 1013.8 |
| 20260507134836 | 18 | 103 | 14.5 | 20.9 | 0.00 | 0.61 | 0.15 | 67 | 1013.8 |
| 20260507134730 | 18 | 99 | 14.5 | 20.9 | 0.00 | 0.61 | 0.15 | 67 | 1013.9 |
| 20260507134638 | 18 | 75 | 12.9 | 20.9 | 0.00 | 0.61 | 0.15 | 68 | 1013.9 |
| 20260507134530 | 18 | 95 | 12.9 | 22.5 | 0.00 | 0.61 | 0.15 | 68 | 1013.8 |
| 20260507134442 | 18 | 59 | 14.5 | 22.5 | 0.00 | 0.61 | 0.15 | 68 | 1013.8 |
| 20260507134319 | 18 | 74 | 17.7 | 22.5 | 0.00 | 0.61 | 0.15 | 68 | 1013.8 |
| 20260507134228 | 18 | 61 | 16.1 | 22.5 | 0.00 | 0.61 | 0.15 | 68 | 1013.8 |
| 20260507134142 | 18 | 88 | 16.1 | 22.5 | 0.00 | 0.61 | 0.15 | 68 | 1013.8 |
| 20260507134045 | 18 | 43 | 16.1 | 22.5 | 0.00 | 0.61 | 0.15 | 68 | 1013.8 |
| 20260507133921 | 18 | 84 | 16.1 | 22.5 | 0.00 | 0.61 | 0.15 | 67 | 1013.8 |
| 20260507133849 | 18 | 87 | 17.7 | 22.5 | 0.00 | 0.61 | 0.15 | 67 | 1013.8 |
| 20260507133727 | 18 | 85 | 16.1 | 22.5 | 0.00 | 0.61 | 0.15 | 68 | 1013.8 |
| 20260507133621 | 18 | 67 | 16.1 | 22.5 | 0.00 | 0.61 | 0.15 | 68 | 1013.8 |
| 20260507133529 | 18 | 59 | 14.5 | 22.5 | 0.00 | 0.61 | 0.15 | 68 | 1013.8 |
| 20260507133422 | 18 | 88 | 12.9 | 22.5 | 0.00 | 0.61 | 0.15 | 69 | 1013.8 |
| 20260507133332 | 18 | 72 | 11.3 | 22.5 | 0.00 | 0.61 | 0.15 | 69 | 1013.8 |
| 20260507133229 | 18 | 74 | 14.5 | 22.5 | 0.00 | 0.61 | 0.15 | 69 | 1013.8 |
| 20260507133137 | 18 | 84 | 16.1 | 22.5 | 0.00 | 0.61 | 0.15 | 68 | 1013.8 |
| 20260507133112 | 18 | 65 | 17.7 | 22.5 | 0.00 | 0.61 | 0.15 | 68 | 1013.8 |
| 20260507132925 | 18 | 99 | 17.7 | 22.5 | 0.00 | 0.61 | 0.15 | 69 | 1013.8 |
| 20260507132843 | 18 | 89 | 17.7 | 22.5 | 0.00 | 0.61 | 0.15 | 69 | 1013.8 |
| 20260507132730 | 18 | 88 | 16.1 | 22.5 | 0.00 | 0.61 | 0.15 | 69 | 1013.8 |
| 20260507132638 | 18 | 92 | 16.1 | 22.5 | 0.00 | 0.61 | 0.15 | 68 | 1013.8 |
| 20260507132532 | 18 | 81 | 17.7 | 22.5 | 0.00 | 0.61 | 0.15 | 68 | 1013.8 |
| 20260507132427 | 18 | 67 | 16.1 | 22.5 | 0.00 | 0.61 | 0.15 | 68 | 1013.8 |
| 20260507132354 | 18 | 93 | 16.1 | 20.9 | 0.00 | 0.61 | 0.15 | 69 | 1013.8 |
| 20260507132223 | 18 | 76 | 14.5 | 20.9 | 0.00 | 0.61 | 0.15 | 70 | 1013.8 |
| 20260507132152 | 18 | 90 | 14.5 | 20.9 | 0.00 | 0.61 | 0.15 | 70 | 1013.8 |
| 20260507132023 | 18 | 81 | 12.9 | 20.9 | 0.00 | 0.61 | 0.15 | 70 | 1013.8 |
| 20260507131919 | 18 | 63 | 12.9 | 20.9 | 0.00 | 0.61 | 0.15 | 70 | 1013.8 |
| 20260507131736 | 18 | 82 | 12.9 | 20.9 | 0.00 | 0.61 | 0.15 | 70 | 1013.8 |
| 20260507131629 | 18 | 95 | 11.3 | 20.9 | 0.00 | 0.61 | 0.15 | 71 | 1013.8 |
| 20260507131533 | 18 | 84 | 11.3 | 20.9 | 0.00 | 0.61 | 0.15 | 71 | 1013.9 |
| 20260507131434 | 18 | 117 | 12.9 | 20.9 | 0.00 | 0.61 | 0.15 | 70 | 1013.9 |
| 20260507131341 | 18 | 126 | 16.1 | 20.9 | 0.00 | 0.61 | 0.15 | 70 | 1013.8 |
| 20260507131238 | 18 | 70 | 17.7 | 20.9 | 0.00 | 0.61 | 0.15 | 70 | 1013.9 |
| 20260507131136 | 18 | 81 | 16.1 | 20.9 | 0.00 | 0.61 | 0.15 | 70 | 1013.9 |
| 20260507131041 | 18 | 87 | 14.5 | 20.9 | 0.00 | 0.61 | 0.15 | 71 | 1013.9 |
| 20260507130949 | 18 | 109 | 14.5 | 20.9 | 0.00 | 0.61 | 0.15 | 71 | 1013.9 |
| 20260507130829 | 18 | 75 | 14.5 | 22.5 | 0.00 | 0.61 | 0.15 | 71 | 1013.9 |
| 20260507130723 | 18 | 98 | 16.1 | 22.5 | 0.00 | 0.61 | 0.15 | 70 | 1013.8 |
| 20260507130632 | 18 | 80 | 16.1 | 22.5 | 0.00 | 0.61 | 0.15 | 70 | 1013.8 |
| 20260507130529 | 18 | 86 | 16.1 | 22.5 | 0.00 | 0.61 | 0.15 | 70 | 1013.9 |
| 20260507130422 | 18 | 83 | 14.5 | 22.5 | 0.00 | 0.61 | 0.15 | 70 | 1013.9 |
| 20260507130334 | 18 | 87 | 16.1 | 22.5 | 0.00 | 0.61 | 0.15 | 70 | 1013.9 |
| 20260507130217 | 18 | 69 | 16.1 | 22.5 | 0.00 | 0.61 | 0.15 | 70 | 1013.9 |
| 20260507130149 | 18 | 58 | 14.5 | 22.5 | 0.00 | 0.61 | 0.15 | 70 | 1013.9 |
| 20260507130022 | 18 | 65 | 14.5 | 19.3 | 0.00 | 0.61 | 0.15 | 70 | 1013.8 |
| 20260507125950 | 18 | 84 | 12.9 | 19.3 | 0.00 | 0.61 | 0.15 | 70 | 1013.8 |
| 20260507125822 | 18 | 99 | 12.9 | 19.3 | 0.00 | 0.61 | 0.15 | 69 | 1013.9 |
| 20260507125750 | 18 | 78 | 12.9 | 19.3 | 0.00 | 0.61 | 0.15 | 69 | 1013.9 |
| 20260507125621 | 18 | 84 | 12.9 | 19.3 | 0.00 | 0.61 | 0.15 | 69 | 1013.8 |
| 20260507125532 | 18 | 55 | 12.9 | 19.3 | 0.00 | 0.61 | 0.15 | 68 | 1013.8 |
| 20260507125439 | 19 | 61 | 12.9 | 19.3 | 0.00 | 0.61 | 0.15 | 68 | 1013.9 |
| 20260507125334 | 19 | 70 | 11.3 | 19.3 | 0.00 | 0.61 | 0.15 | 68 | 1013.8 |
| 20260507125232 | 19 | 46 | 9.7 | 17.7 | 0.00 | 0.61 | 0.15 | 68 | 1013.8 |
| 20260507125200 | 19 | 71 | 6.4 | 16.1 | 0.00 | 0.61 | 0.15 | 68 | 1013.8 |
| 20260507125044 | 19 | 73 | 8.0 | 16.1 | 0.00 | 0.61 | 0.15 | 68 | 1013.8 |
| 20260507124918 | 19 | 54 | 8.0 | 16.1 | 0.00 | 0.61 | 0.15 | 68 | 1013.8 |
| 20260507124836 | 19 | 69 | 8.0 | 16.1 | 0.00 | 0.61 | 0.15 | 67 | 1013.8 |
| 20260507124727 | 19 | 88 | 8.0 | 16.1 | 0.00 | 0.61 | 0.15 | 67 | 1013.8 |
| 20260507124621 | 19 | 69 | 8.0 | 16.1 | 0.00 | 0.61 | 0.15 | 67 | 1013.8 |
| 20260507124519 | 19 | 76 | 8.0 | 16.1 | 0.00 | 0.61 | 0.15 | 67 | 1013.9 |
| 20260507124427 | 19 | 80 | 8.0 | 17.7 | 0.00 | 0.61 | 0.15 | 67 | 1013.9 |
| 20260507124355 | 19 | 98 | 8.0 | 17.7 | 0.00 | 0.61 | 0.15 | 67 | 1013.9 |
| 20260507124229 | 19 | 81 | 8.0 | 17.7 | 0.00 | 0.61 | 0.15 | 67 | 1013.8 |
| 20260507124157 | 19 | 96 | 8.0 | 17.7 | 0.00 | 0.61 | 0.15 | 67 | 1013.9 |
| 20260507124125 | 19 | 84 | 9.7 | 17.7 | 0.00 | 0.61 | 0.15 | 67 | 1013.9 |
| 20260507124005 | 19 | 55 | 9.7 | 17.7 | 0.00 | 0.61 | 0.15 | 67 | 1013.8 |
| 20260507123900 | 19 | 49 | 9.7 | 17.7 | 0.00 | 0.61 | 0.15 | 66 | 1013.8 |
| 20260507123747 | 19 | 72 | 11.3 | 17.7 | 0.00 | 0.61 | 0.15 | 66 | 1013.8 |
| 20260507123621 | 19 | 60 | 11.3 | 17.7 | 0.00 | 0.61 | 0.15 | 66 | 1013.8 |
| 20260507123550 | 20 | 62 | 9.7 | 17.7 | 0.00 | 0.61 | 0.15 | 66 | 1013.8 |
| 20260507123437 | 20 | 61 | 8.0 | 16.1 | 0.00 | 0.61 | 0.15 | 66 | 1013.8 |
| 20260507123344 | 20 | 69 | 8.0 | 16.1 | 0.00 | 0.61 | 0.15 | 65 | 1013.8 |
| 20260507123222 | 20 | 59 | 8.0 | 16.1 | 0.00 | 0.61 | 0.15 | 65 | 1013.8 |
| 20260507123138 | 20 | 51 | 9.7 | 16.1 | 0.00 | 0.61 | 0.15 | 65 | 1013.8 |
| 20260507123041 | 20 | 39 | 8.0 | 16.1 | 0.00 | 0.61 | 0.15 | 66 | 1013.8 |
| 20260507122935 | 20 | 34 | 9.7 | 16.1 | 0.00 | 0.61 | 0.15 | 66 | 1013.9 |
| 20260507122842 | 19 | 61 | 8.0 | 19.3 | 0.00 | 0.61 | 0.15 | 66 | 1013.8 |
| 20260507122718 | 19 | 86 | 8.0 | 19.3 | 0.00 | 0.61 | 0.15 | 66 | 1013.8 |
| 20260507122650 | 19 | 55 | 9.7 | 19.3 | 0.00 | 0.61 | 0.15 | 66 | 1013.8 |
| 20260507122527 | 19 | 40 | 9.7 | 19.3 | 0.00 | 0.61 | 0.15 | 66 | 1013.8 |
| 20260507122423 | 19 | 66 | 9.7 | 19.3 | 0.00 | 0.61 | 0.15 | 66 | 1013.8 |
| 20260507122331 | 19 | 70 | 11.3 | 19.3 | 0.00 | 0.61 | 0.15 | 67 | 1013.8 |
| 20260507122226 | 19 | 78 | 11.3 | 19.3 | 0.00 | 0.61 | 0.15 | 67 | 1013.9 |
| 20260507122136 | 19 | 79 | 12.9 | 19.3 | 0.00 | 0.61 | 0.15 | 67 | 1013.8 |
| 20260507122051 | 19 | 47 | 11.3 | 19.3 | 0.00 | 0.61 | 0.15 | 66 | 1013.9 |
| 20260507121921 | 19 | 59 | 12.9 | 19.3 | 0.00 | 0.61 | 0.15 | 66 | 1013.9 |
| 20260507121817 | 19 | 50 | 11.3 | 19.3 | 0.00 | 0.61 | 0.15 | 66 | 1013.9 |
| 20260507121747 | 19 | 45 | 11.3 | 19.3 | 0.00 | 0.61 | 0.15 | 67 | 1013.9 |
| 20260507121622 | 19 | 90 | 11.3 | 19.3 | 0.00 | 0.61 | 0.15 | 66 | 1013.9 |
| 20260507121548 | 19 | 31 | 9.7 | 19.3 | 0.00 | 0.61 | 0.15 | 66 | 1013.9 |
| 20260507121452 | 19 | 39 | 11.3 | 19.3 | 0.00 | 0.61 | 0.15 | 67 | 1013.9 |
| 20260507121326 | 19 | 74 | 8.0 | 19.3 | 0.00 | 0.61 | 0.15 | 67 | 1013.9 |
| 20260507121219 | 19 | 55 | 9.7 | 19.3 | 0.00 | 0.61 | 0.15 | 67 | 1013.9 |
| 20260507121132 | 19 | 51 | 9.7 | 19.3 | 0.00 | 0.61 | 0.15 | 67 | 1013.9 |
| 20260507121057 | 19 | 49 | 11.3 | 19.3 | 0.00 | 0.61 | 0.15 | 67 | 1013.9 |
| 20260507120930 | 19 | 51 | 9.7 | 19.3 | 0.00 | 0.61 | 0.15 | 67 | 1013.9 |
| 20260507120835 | 19 | 67 | 8.0 | 19.3 | 0.00 | 0.61 | 0.15 | 67 | 1013.9 |
| 20260507120730 | 19 | 57 | 12.9 | 19.3 | 0.00 | 0.61 | 0.15 | 66 | 1013.9 |
| 20260507120658 | 19 | 62 | 14.5 | 19.3 | 0.00 | 0.61 | 0.15 | 66 | 1013.9 |
| 20260507120528 | 19 | 49 | 11.3 | 17.7 | 0.00 | 0.61 | 0.15 | 66 | 1013.9 |
| 20260507120456 | 19 | 45 | 9.7 | 16.1 | 0.00 | 0.61 | 0.15 | 66 | 1014.0 |
| 20260507120349 | 19 | 38 | 9.7 | 16.1 | 0.00 | 0.61 | 0.15 | 65 | 1014.0 |
| 20260507120240 | 19 | 42 | 11.3 | 16.1 | 0.00 | 0.61 | 0.15 | 65 | 1014.0 |
| 20260507120131 | 19 | 32 | 11.3 | 16.1 | 0.00 | 0.61 | 0.15 | 65 | 1014.0 |
| 20260507120101 | 19 | 55 | 9.7 | 16.1 | 0.00 | 0.61 | 0.15 | 66 | 1014.0 |
| 20260507115917 | 19 | 22 | 9.7 | 16.1 | 0.00 | 0.61 | 0.15 | 66 | 1014.0 |
| 20260507115815 | 19 | 54 | 9.7 | 19.3 | 0.00 | 0.61 | 0.15 | 66 | 1013.9 |
| 20260507115727 | 19 | 54 | 9.7 | 19.3 | 0.00 | 0.61 | 0.15 | 66 | 1013.9 |
| 20260507115644 | 19 | 10 | 8.0 | 19.3 | 0.00 | 0.61 | 0.15 | 66 | 1014.1 |
| 20260507115444 | 19 | 55 | 8.0 | 19.3 | 0.00 | 0.61 | 0.15 | 66 | 1014.0 |
| 20260507115316 | 19 | 46 | 9.7 | 19.3 | 0.00 | 0.61 | 0.15 | 66 | 1014.1 |
| 20260507115248 | 19 | 38 | 11.3 | 19.3 | 0.00 | 0.61 | 0.15 | 66 | 1014.1 |
| 20260507115121 | 19 | 32 | 11.3 | 19.3 | 0.00 | 0.61 | 0.15 | 65 | 1014.0 |
| 20260507115049 | 19 | 40 | 12.9 | 19.3 | 0.00 | 0.61 | 0.15 | 65 | 1014.0 |
| 20260507114921 | 19 | 34 | 11.3 | 17.7 | 0.00 | 0.61 | 0.15 | 65 | 1014.0 |
| 20260507114831 | 19 | 51 | 9.7 | 17.7 | 0.00 | 0.61 | 0.15 | 65 | 1014.0 |
| 20260507114730 | 19 | 59 | 9.7 | 17.7 | 0.00 | 0.61 | 0.15 | 65 | 1014.0 |
| 20260507114637 | 19 | 44 | 11.3 | 17.7 | 0.00 | 0.61 | 0.15 | 64 | 1014.0 |
| 20260507114528 | 19 | 83 | 11.3 | 17.7 | 0.00 | 0.61 | 0.15 | 64 | 1014.0 |
| 20260507114423 | 19 | 49 | 11.3 | 16.1 | 0.00 | 0.61 | 0.15 | 64 | 1014.0 |
| 20260507114331 | 19 | 63 | 11.3 | 16.1 | 0.00 | 0.61 | 0.15 | 64 | 1014.0 |
| 20260507114259 | 19 | 49 | 11.3 | 17.7 | 0.00 | 0.61 | 0.15 | 64 | 1014.0 |
| 20260507114156 | 19 | 49 | 9.7 | 17.7 | 0.00 | 0.61 | 0.15 | 64 | 1014.0 |
| 20260507114042 | 19 | 55 | 9.7 | 17.7 | 0.00 | 0.61 | 0.15 | 64 | 1014.0 |
| 20260507113922 | 19 | 77 | 11.3 | 17.7 | 0.00 | 0.61 | 0.15 | 63 | 1014.0 |
| 20260507113821 | 19 | 46 | 11.3 | 17.7 | 0.00 | 0.61 | 0.15 | 64 | 1014.0 |
| 20260507113748 | 19 | 59 | 9.7 | 17.7 | 0.00 | 0.61 | 0.15 | 64 | 1014.0 |
| 20260507113655 | 19 | 31 | 11.3 | 17.7 | 0.00 | 0.61 | 0.15 | 64 | 1014.1 |
| 20260507113529 | 19 | 36 | 11.3 | 17.7 | 0.00 | 0.61 | 0.15 | 64 | 1014.1 |
| 20260507113437 | 19 | 60 | 11.3 | 17.7 | 0.00 | 0.61 | 0.15 | 64 | 1014.1 |
| 20260507113331 | 19 | 53 | 11.3 | 17.7 | 0.00 | 0.61 | 0.15 | 64 | 1014.0 |
| 20260507113236 | 19 | 14 | 9.7 | 17.7 | 0.00 | 0.61 | 0.15 | 64 | 1014.1 |
| 20260507113146 | 19 | 78 | 11.3 | 22.5 | 0.00 | 0.61 | 0.15 | 64 | 1014.1 |
| 20260507113040 | 19 | 63 | 12.9 | 22.5 | 0.00 | 0.61 | 0.15 | 64 | 1014.1 |
| 20260507112948 | 18 | 31 | 12.9 | 22.5 | 0.00 | 0.61 | 0.15 | 64 | 1014.1 |
| 20260507112819 | 18 | 60 | 11.3 | 22.5 | 0.00 | 0.61 | 0.15 | 65 | 1014.1 |
| 20260507112737 | 18 | 51 | 11.3 | 22.5 | 0.00 | 0.61 | 0.15 | 65 | 1014.1 |
| 20260507112644 | 18 | 360 | 11.3 | 22.5 | 0.00 | 0.61 | 0.15 | 64 | 1014.1 |
| 20260507112525 | 18 | 52 | 12.9 | 22.5 | 0.00 | 0.61 | 0.15 | 63 | 1014.1 |
| 20260507112421 | 18 | 52 | 14.5 | 22.5 | 0.00 | 0.61 | 0.15 | 63 | 1014.1 |
| 20260507112351 | 18 | 27 | 14.5 | 22.5 | 0.00 | 0.61 | 0.15 | 63 | 1014.1 |
| 20260507112238 | 18 | 28 | 12.9 | 19.3 | 0.00 | 0.61 | 0.15 | 64 | 1014.1 |
| 20260507112117 | 18 | 42 | 11.3 | 16.1 | 0.00 | 0.61 | 0.15 | 64 | 1014.1 |
| 20260507112035 | 18 | 53 | 12.9 | 16.1 | 0.00 | 0.61 | 0.15 | 65 | 1014.1 |
| 20260507111941 | 18 | 32 | 12.9 | 16.1 | 0.00 | 0.61 | 0.15 | 66 | 1014.1 |
| 20260507111822 | 18 | 22 | 11.3 | 17.7 | 0.00 | 0.61 | 0.15 | 67 | 1014.1 |
| 20260507111720 | 18 | 37 | 9.7 | 17.7 | 0.00 | 0.61 | 0.15 | 67 | 1014.1 |
| 20260507111629 | 18 | 32 | 11.3 | 19.3 | 0.00 | 0.61 | 0.15 | 67 | 1014.1 |
| 20260507111521 | 18 | 24 | 11.3 | 20.9 | 0.00 | 0.61 | 0.15 | 67 | 1014.1 |
| 20260507111425 | 18 | 19 | 9.7 | 22.5 | 0.00 | 0.61 | 0.15 | 67 | 1014.1 |
| 20260507111321 | 18 | 22 | 11.3 | 22.5 | 0.00 | 0.61 | 0.15 | 67 | 1014.1 |
| 20260507111230 | 18 | 47 | 12.9 | 22.5 | 0.00 | 0.61 | 0.15 | 67 | 1014.1 |
| 20260507111132 | 18 | 46 | 12.9 | 22.5 | 0.00 | 0.61 | 0.15 | 66 | 1014.1 |
| 20260507111056 | 18 | 40 | 14.5 | 22.5 | 0.00 | 0.61 | 0.15 | 67 | 1014.1 |
| 20260507110931 | 18 | 36 | 14.5 | 22.5 | 0.00 | 0.61 | 0.15 | 67 | 1014.1 |
| 20260507110819 | 18 | 5 | 17.7 | 22.5 | 0.00 | 0.61 | 0.15 | 67 | 1014.1 |
| 20260507110734 | 18 | 17 | 17.7 | 22.5 | 0.00 | 0.61 | 0.15 | 67 | 1014.1 |
| 20260507110642 | 18 | 26 | 17.7 | 22.5 | 0.00 | 0.61 | 0.15 | 67 | 1014.1 |
| 20260507110518 | 18 | 27 | 17.7 | 22.5 | 0.00 | 0.61 | 0.15 | 66 | 1014.1 |
| 20260507110419 | 18 | 36 | 17.7 | 22.5 | 0.00 | 0.61 | 0.15 | 66 | 1014.2 |
| 20260507110328 | 18 | 30 | 17.7 | 22.5 | 0.00 | 0.61 | 0.15 | 66 | 1014.2 |
| 20260507110221 | 18 | 15 | 17.7 | 22.5 | 0.00 | 0.61 | 0.15 | 67 | 1014.1 |
| 20260507110133 | 18 | 25 | 16.1 | 22.5 | 0.00 | 0.61 | 0.15 | 66 | 1014.1 |
| 20260507110026 | 18 | 32 | 16.1 | 20.9 | 0.00 | 0.61 | 0.15 | 67 | 1014.1 |
| 20260507105934 | 18 | 38 | 16.1 | 20.9 | 0.00 | 0.61 | 0.15 | 66 | 1014.1 |
| 20260507105902 | 18 | 19 | 16.1 | 20.9 | 0.00 | 0.61 | 0.15 | 67 | 1014.1 |
| 20260507105719 | 18 | 31 | 17.7 | 19.3 | 0.00 | 0.61 | 0.15 | 66 | 1014.1 |
| 20260507105633 | 18 | 28 | 16.1 | 19.3 | 0.00 | 0.61 | 0.15 | 66 | 1014.1 |
| 20260507105521 | 18 | 26 | 14.5 | 19.3 | 0.00 | 0.61 | 0.15 | 66 | 1014.1 |
| 20260507105419 | 19 | 22 | 16.1 | 17.7 | 0.00 | 0.61 | 0.15 | 66 | 1014.2 |
| 20260507105346 | 19 | 32 | 14.5 | 17.7 | 0.00 | 0.61 | 0.15 | 66 | 1014.2 |
| 20260507105219 | 19 | 32 | 14.5 | 17.7 | 0.00 | 0.61 | 0.15 | 67 | 1014.1 |
| 20260507105120 | 19 | 34 | 12.9 | 17.7 | 0.00 | 0.61 | 0.15 | 67 | 1014.1 |
| 20260507105032 | 19 | 27 | 12.9 | 17.7 | 0.00 | 0.61 | 0.15 | 67 | 1014.1 |
| 20260507104925 | 19 | 21 | 12.9 | 17.7 | 0.00 | 0.61 | 0.15 | 67 | 1014.1 |
| 20260507104836 | 19 | 17 | 14.5 | 17.7 | 0.00 | 0.61 | 0.15 | 67 | 1014.1 |
| 20260507104728 | 19 | 15 | 12.9 | 17.7 | 0.00 | 0.61 | 0.15 | 67 | 1014.2 |
| 20260507104636 | 19 | 13 | 11.3 | 17.7 | 0.00 | 0.61 | 0.15 | 67 | 1014.2 |
| 20260507104541 | 18 | 9 | 12.9 | 17.7 | 0.00 | 0.61 | 0.15 | 67 | 1014.2 |
| 20260507104421 | 18 | 27 | 12.9 | 19.3 | 0.00 | 0.61 | 0.15 | 67 | 1014.2 |
| 20260507104316 | 18 | 19 | 12.9 | 19.3 | 0.00 | 0.61 | 0.15 | 67 | 1014.3 |
| 20260507104227 | 18 | 27 | 12.9 | 19.3 | 0.00 | 0.61 | 0.15 | 67 | 1014.3 |
| 20260507104140 | 18 | 28 | 12.9 | 20.9 | 0.00 | 0.61 | 0.15 | 67 | 1014.3 |
| 20260507104043 | 18 | 30 | 12.9 | 22.5 | 0.00 | 0.61 | 0.15 | 67 | 1014.4 |
| 20260507103951 | 18 | 51 | 12.9 | 22.5 | 0.00 | 0.61 | 0.15 | 67 | 1014.4 |
| 20260507103822 | 18 | 30 | 12.9 | 22.5 | 0.00 | 0.61 | 0.15 | 68 | 1014.3 |
| 20260507103751 | 18 | 15 | 12.9 | 22.5 | 0.00 | 0.61 | 0.15 | 68 | 1014.3 |
| 20260507103629 | 18 | 39 | 12.9 | 22.5 | 0.00 | 0.61 | 0.15 | 68 | 1014.4 |
| 20260507103535 | 18 | 34 | 12.9 | 22.5 | 0.00 | 0.61 | 0.15 | 68 | 1014.3 |
| 20260507103429 | 18 | 52 | 16.1 | 22.5 | 0.00 | 0.61 | 0.15 | 67 | 1014.3 |
| 20260507103329 | 18 | 22 | 17.7 | 22.5 | 0.00 | 0.61 | 0.15 | 67 | 1014.2 |
| 20260507103237 | 18 | 37 | 17.7 | 22.5 | 0.00 | 0.61 | 0.15 | 67 | 1014.3 |
| 20260507103130 | 18 | 40 | 16.1 | 22.5 | 0.00 | 0.61 | 0.15 | 68 | 1014.2 |
| 20260507103040 | 18 | 48 | 17.7 | 22.5 | 0.00 | 0.61 | 0.15 | 68 | 1014.2 |
| 20260507102947 | 18 | 10 | 17.7 | 22.5 | 0.00 | 0.61 | 0.15 | 67 | 1014.2 |
| 20260507102822 | 18 | 31 | 17.7 | 24.1 | 0.00 | 0.61 | 0.15 | 68 | 1014.3 |
| 20260507102737 | 18 | 37 | 17.7 | 24.1 | 0.00 | 0.61 | 0.15 | 68 | 1014.3 |
| 20260507102645 | 18 | 38 | 17.7 | 24.1 | 0.00 | 0.61 | 0.15 | 69 | 1014.2 |
| 20260507102520 | 18 | 22 | 17.7 | 24.1 | 0.00 | 0.61 | 0.15 | 68 | 1014.2 |
| 20260507102449 | 18 | 5 | 17.7 | 24.1 | 0.00 | 0.61 | 0.15 | 68 | 1014.2 |
| 20260507102331 | 18 | 46 | 17.7 | 24.1 | 0.00 | 0.61 | 0.15 | 68 | 1014.2 |
| 20260507102238 | 18 | 22 | 19.3 | 24.1 | 0.00 | 0.61 | 0.15 | 67 | 1014.2 |
| 20260507102136 | 18 | 19 | 19.3 | 24.1 | 0.00 | 0.61 | 0.15 | 67 | 1014.2 |
| 20260507102027 | 18 | 23 | 17.7 | 24.1 | 0.00 | 0.61 | 0.15 | 68 | 1014.2 |
| 20260507101935 | 18 | 46 | 16.1 | 22.5 | 0.00 | 0.61 | 0.15 | 68 | 1014.3 |
| 20260507101830 | 18 | 30 | 16.1 | 22.5 | 0.00 | 0.61 | 0.15 | 69 | 1014.2 |
| 20260507101740 | 18 | 51 | 16.1 | 22.5 | 0.00 | 0.61 | 0.15 | 68 | 1014.2 |
| 20260507101624 | 18 | 35 | 17.7 | 22.5 | 0.00 | 0.61 | 0.15 | 68 | 1014.2 |
| 20260507101530 | 18 | 28 | 19.3 | 24.1 | 0.00 | 0.61 | 0.15 | 68 | 1014.2 |
| 20260507101336 | 18 | 34 | 17.7 | 24.1 | 0.00 | 0.61 | 0.15 | 68 | 1014.2 |
| 20260507101226 | 18 | 36 | 19.3 | 24.1 | 0.00 | 0.61 | 0.15 | 68 | 1014.2 |
| 20260507101143 | 18 | 33 | 17.7 | 24.1 | 0.00 | 0.61 | 0.15 | 69 | 1014.2 |
| 20260507101053 | 18 | 27 | 17.7 | 24.1 | 0.00 | 0.61 | 0.15 | 69 | 1014.2 |
| 20260507100959 | 18 | 5 | 19.3 | 24.1 | 0.00 | 0.61 | 0.15 | 68 | 1014.3 |
| 20260507100845 | 18 | 30 | 19.3 | 24.1 | 0.00 | 0.61 | 0.15 | 68 | 1014.2 |
| 20260507100747 | 18 | 53 | 17.7 | 24.1 | 0.00 | 0.61 | 0.15 | 68 | 1014.2 |
| 20260507100637 | 18 | 44 | 17.7 | 24.1 | 0.00 | 0.61 | 0.15 | 68 | 1014.2 |
| 20260507100531 | 18 | 55 | 17.7 | 24.1 | 0.00 | 0.61 | 0.15 | 67 | 1014.2 |
| 20260507100459 | 18 | 25 | 19.3 | 24.1 | 0.00 | 0.61 | 0.15 | 66 | 1014.2 |
| 20260507100335 | 19 | 32 | 19.3 | 24.1 | 0.00 | 0.61 | 0.15 | 66 | 1014.2 |
| 20260507100240 | 19 | 29 | 16.1 | 22.5 | 0.00 | 0.61 | 0.15 | 67 | 1014.3 |
| 20260507100150 | 19 | 11 | 14.5 | 19.3 | 0.00 | 0.61 | 0.15 | 67 | 1014.3 |
| 20260507100025 | 20 | 5 | 12.9 | 19.3 | 0.00 | 0.61 | 0.15 | 66 | 1014.3 |
| 20260507095847 | 20 | 15 | 14.5 | 19.3 | 0.00 | 0.61 | 0.15 | 66 | 1014.2 |
| 20260507095721 | 20 | 24 | 12.9 | 19.3 | 0.00 | 0.61 | 0.15 | 66 | 1014.3 |
| 20260507095639 | 20 | 17 | 12.9 | 19.3 | 0.00 | 0.61 | 0.15 | 66 | 1014.3 |
| 20260507095542 | 20 | 25 | 12.9 | 20.9 | 0.00 | 0.61 | 0.15 | 66 | 1014.2 |
| 20260507095435 | 20 | 45 | 12.9 | 20.9 | 0.00 | 0.61 | 0.15 | 66 | 1014.2 |
| 20260507095343 | 19 | 5 | 11.3 | 20.9 | 0.00 | 0.61 | 0.15 | 66 | 1014.2 |
| 20260507095257 | 19 | 73 | 9.7 | 20.9 | 0.00 | 0.61 | 0.15 | 67 | 1014.2 |
| 20260507095229 | 19 | 20 | 11.3 | 20.9 | 0.00 | 0.61 | 0.15 | 67 | 1014.2 |
| 20260507095043 | 19 | 360 | 12.9 | 20.9 | 0.00 | 0.61 | 0.15 | 66 | 1014.2 |
| 20260507094917 | 20 | 344 | 14.5 | 20.9 | 0.00 | 0.61 | 0.15 | 66 | 1014.2 |
| 20260507094849 | 20 | 26 | 14.5 | 20.9 | 0.00 | 0.61 | 0.15 | 66 | 1014.2 |
| 20260507094723 | 20 | 9 | 12.9 | 20.9 | 0.00 | 0.61 | 0.15 | 66 | 1014.2 |
| 20260507094629 | 20 | 5 | 11.3 | 20.9 | 0.00 | 0.61 | 0.15 | 67 | 1014.2 |
| 20260507094523 | 20 | 5 | 9.7 | 22.5 | 0.00 | 0.61 | 0.15 | 68 | 1014.2 |
| 20260507094437 | 20 | 43 | 9.7 | 22.5 | 0.00 | 0.61 | 0.15 | 68 | 1014.2 |
| 20260507094331 | 20 | 335 | 11.3 | 22.5 | 0.00 | 0.61 | 0.15 | 68 | 1014.2 |
| 20260507094242 | 20 | 346 | 12.9 | 22.5 | 0.00 | 0.61 | 0.15 | 68 | 1014.2 |
| 20260507094122 | 20 | 18 | 12.9 | 22.5 | 0.00 | 0.61 | 0.15 | 68 | 1014.2 |
| 20260507094038 | 20 | 5 | 12.9 | 22.5 | 0.00 | 0.61 | 0.15 | 68 | 1014.2 |
| 20260507093945 | 20 | 11 | 12.9 | 22.5 | 0.00 | 0.61 | 0.15 | 68 | 1014.2 |
| 20260507093852 | 20 | 19 | 14.5 | 22.5 | 0.00 | 0.61 | 0.15 | 68 | 1014.2 |
| 20260507093730 | 20 | 15 | 12.9 | 22.5 | 0.00 | 0.61 | 0.15 | 69 | 1014.2 |
| 20260507093622 | 20 | 11 | 11.3 | 22.5 | 0.00 | 0.61 | 0.15 | 71 | 1014.2 |
| 20260507093527 | 20 | 330 | 12.9 | 22.5 | 0.00 | 0.61 | 0.15 | 71 | 1014.2 |
| 20260507093420 | 20 | 15 | 12.9 | 22.5 | 0.00 | 0.61 | 0.15 | 71 | 1014.2 |
| 20260507093348 | 20 | 13 | 11.3 | 22.5 | 0.00 | 0.61 | 0.15 | 71 | 1014.2 |
| 20260507093222 | 20 | 5 | 12.9 | 22.5 | 0.00 | 0.61 | 0.15 | 70 | 1014.1 |
| 20260507093154 | 20 | 355 | 12.9 | 22.5 | 0.00 | 0.61 | 0.15 | 70 | 1014.1 |
| 20260507093103 | 20 | 26 | 12.9 | 22.5 | 0.00 | 0.61 | 0.15 | 70 | 1014.1 |
| 20260507093032 | 20 | 338 | 12.9 | 22.5 | 0.00 | 0.61 | 0.15 | 70 | 1014.1 |
| 20260507092818 | 20 | 28 | 11.3 | 20.9 | 0.00 | 0.61 | 0.15 | 70 | 1014.1 |
| 20260507092735 | 20 | 40 | 9.7 | 20.9 | 0.00 | 0.61 | 0.15 | 70 | 1014.1 |
| 20260507092702 | 20 | 355 | 11.3 | 20.9 | 0.00 | 0.61 | 0.15 | 70 | 1014.1 |
| 20260507092546 | 20 | 38 | 12.9 | 20.9 | 0.00 | 0.61 | 0.15 | 70 | 1014.1 |
| 20260507092421 | 20 | 5 | 11.3 | 19.3 | 0.00 | 0.61 | 0.15 | 70 | 1014.1 |
| 20260507092333 | 20 | 5 | 9.7 | 19.3 | 0.00 | 0.61 | 0.15 | 70 | 1014.1 |
| 20260507092249 | 20 | 59 | 9.7 | 19.3 | 0.00 | 0.61 | 0.15 | 70 | 1014.1 |
| 20260507092142 | 20 | 360 | 11.3 | 20.9 | 0.00 | 0.61 | 0.15 | 70 | 1014.1 |
| 20260507092048 | 20 | 57 | 11.3 | 20.9 | 0.00 | 0.61 | 0.15 | 70 | 1014.1 |
| 20260507091919 | 20 | 13 | 9.7 | 20.9 | 0.00 | 0.61 | 0.15 | 70 | 1014.0 |
| 20260507091847 | 20 | 40 | 11.3 | 20.9 | 0.00 | 0.61 | 0.15 | 69 | 1014.0 |
| 20260507091725 | 20 | 56 | 9.7 | 20.9 | 0.00 | 0.61 | 0.15 | 70 | 1014.0 |
| 20260507091623 | 20 | 27 | 11.3 | 20.9 | 0.00 | 0.61 | 0.15 | 70 | 1014.0 |
| 20260507091527 | 20 | 360 | 11.3 | 20.9 | 0.00 | 0.61 | 0.15 | 70 | 1014.0 |
| 20260507091423 | 20 | 13 | 11.3 | 20.9 | 0.00 | 0.61 | 0.15 | 69 | 1014.0 |
| 20260507091332 | 20 | 15 | 12.9 | 20.9 | 0.00 | 0.61 | 0.15 | 70 | 1014.0 |
| 20260507091230 | 21 | 339 | 11.3 | 20.9 | 0.00 | 0.61 | 0.15 | 69 | 1013.9 |
| 20260507091124 | 21 | 38 | 9.7 | 20.9 | 0.00 | 0.61 | 0.15 | 68 | 1013.9 |
| 20260507091048 | 21 | 16 | 12.9 | 20.9 | 0.00 | 0.61 | 0.15 | 67 | 1013.9 |
| 20260507090934 | 21 | 350 | 12.9 | 20.9 | 0.00 | 0.61 | 0.15 | 67 | 1013.9 |
| 20260507090835 | 21 | 350 | 11.3 | 20.9 | 0.00 | 0.61 | 0.15 | 67 | 1013.9 |
| 20260507090746 | 21 | 9 | 9.7 | 20.9 | 0.00 | 0.61 | 0.15 | 67 | 1013.9 |
| 20260507090619 | 21 | 338 | 8.0 | 20.9 | 0.00 | 0.61 | 0.15 | 66 | 1013.9 |
| 20260507090533 | 21 | 36 | 6.4 | 14.5 | 0.00 | 0.61 | 0.15 | 65 | 1013.9 |
| 20260507090444 | 21 | 96 | 6.4 | 14.5 | 0.00 | 0.61 | 0.15 | 65 | 1013.9 |
| 20260507090322 | 21 | 5 | 6.4 | 12.9 | 0.00 | 0.61 | 0.15 | 63 | 1013.9 |
| 20260507090251 | 21 | 360 | 6.4 | 12.9 | 0.00 | 0.61 | 0.15 | 63 | 1013.9 |
| 20260507090129 | 21 | 355 | 1.6 | 11.3 | 0.00 | 0.61 | 0.15 | 63 | 1013.9 |
| 20260507090019 | 21 | 31 | 1.6 | 11.3 | 0.00 | 0.61 | 0.15 | 63 | 1014.0 |
| 20260507085929 | 21 | 31 | 3.2 | 11.3 | 0.00 | 0.61 | 0.15 | 63 | 1014.0 |
| 20260507085823 | 21 | 13 | 3.2 | 11.3 | 0.00 | 0.61 | 0.15 | 63 | 1014.0 |
| 20260507085752 | 21 | 350 | 4.8 | 11.3 | 0.00 | 0.61 | 0.15 | 63 | 1014.0 |
| 20260507085625 | 21 | 36 | 3.2 | 11.3 | 0.00 | 0.61 | 0.15 | 63 | 1013.9 |
| 20260507085530 | 21 | 15 | 4.8 | 11.3 | 0.00 | 0.61 | 0.15 | 63 | 1013.9 |
| 20260507085430 | 21 | 21 | 8.0 | 11.3 | 0.00 | 0.61 | 0.15 | 63 | 1013.9 |
| 20260507085338 | 21 | 16 | 8.0 | 11.3 | 0.00 | 0.61 | 0.15 | 63 | 1014.0 |
| 20260507085238 | 21 | 26 | 3.2 | 9.7 | 0.00 | 0.61 | 0.15 | 65 | 1013.9 |
| 20260507085132 | 21 | 355 | 1.6 | 9.7 | 0.00 | 0.61 | 0.15 | 65 | 1014.0 |
| 20260507085040 | 21 | 13 | 4.8 | 9.7 | 0.10 | 0.61 | 0.15 | 65 | 1014.0 |
| 20260507084932 | 21 | 13 | 6.4 | 9.7 | 0.10 | 0.61 | 0.15 | 64 | 1014.1 |
| 20260507084825 | 21 | 9 | 4.8 | 9.7 | 0.10 | 0.61 | 0.15 | 64 | 1014.0 |
| 20260507084756 | 21 | 5 | 4.8 | 9.7 | 0.10 | 0.61 | 0.15 | 64 | 1014.0 |
| 20260507084632 | 21 | 5 | 3.2 | 11.3 | 0.10 | 0.61 | 0.15 | 64 | 1014.0 |
| 20260507084529 | 21 | 360 | 4.8 | 11.3 | 0.10 | 0.61 | 0.15 | 64 | 1014.0 |
| 20260507084435 | 21 | 22 | 6.4 | 11.3 | 0.10 | 0.61 | 0.15 | 64 | 1013.9 |
| 20260507084333 | 21 | 35 | 4.8 | 11.3 | 0.10 | 0.61 | 0.15 | 64 | 1013.9 |
| 20260507084216 | 21 | 29 | 4.8 | 11.3 | 0.10 | 0.61 | 0.15 | 65 | 1013.9 |
| 20260507084136 | 21 | 44 | 4.8 | 12.9 | 0.10 | 0.61 | 0.15 | 65 | 1013.9 |
| 20260507084022 | 21 | 5 | 4.8 | 12.9 | 0.10 | 0.61 | 0.15 | 64 | 1013.9 |
| 20260507083937 | 21 | 344 | 4.8 | 12.9 | 0.10 | 0.61 | 0.15 | 64 | 1013.9 |
| 20260507083820 | 21 | 107 | 3.2 | 12.9 | 0.10 | 0.61 | 0.15 | 63 | 1013.9 |
| 20260507083750 | 21 | 110 | 3.2 | 12.9 | 0.10 | 0.61 | 0.15 | 64 | 1013.9 |
| 20260507083625 | 21 | 59 | 6.4 | 12.9 | 0.10 | 0.61 | 0.15 | 64 | 1013.9 |
| 20260507083542 | 21 | 285 | 6.4 | 12.9 | 0.10 | 0.61 | 0.15 | 63 | 1013.9 |
| 20260507083430 | 21 | 148 | 3.2 | 14.5 | 0.10 | 0.61 | 0.15 | 64 | 1013.9 |
| 20260507083341 | 21 | 135 | 6.4 | 14.5 | 0.10 | 0.61 | 0.15 | 64 | 1013.8 |
| 20260507083236 | 21 | 250 | 6.4 | 17.7 | 0.10 | 0.61 | 0.15 | 64 | 1013.9 |
| 20260507083134 | 21 | 263 | 3.2 | 17.7 | 0.10 | 0.61 | 0.15 | 64 | 1013.9 |
| 20260507083040 | 21 | 21 | 3.2 | 20.9 | 0.10 | 0.61 | 0.15 | 64 | 1013.9 |
| 20260507082933 | 20 | 329 | 4.8 | 20.9 | 0.10 | 0.61 | 0.15 | 63 | 1013.8 |
| 20260507082841 | 20 | 322 | 6.4 | 20.9 | 0.10 | 0.61 | 0.15 | 63 | 1013.8 |
| 20260507082722 | 20 | 312 | 6.4 | 20.9 | 0.10 | 0.61 | 0.15 | 63 | 1013.9 |
| 20260507082650 | 20 | 331 | 8.0 | 20.9 | 0.10 | 0.61 | 0.15 | 62 | 1013.9 |
| 20260507082522 | 20 | 229 | 14.5 | 20.9 | 0.10 | 0.61 | 0.15 | 62 | 1013.7 |
| 20260507082451 | 20 | 238 | 12.9 | 20.9 | 0.10 | 0.61 | 0.15 | 63 | 1013.7 |
| 20260507082325 | 20 | 263 | 14.5 | 20.9 | 0.10 | 0.61 | 0.15 | 63 | 1013.7 |
| 20260507082220 | 20 | 269 | 16.1 | 20.9 | 0.10 | 0.61 | 0.15 | 63 | 1013.6 |
| 20260507082153 | 20 | 274 | 14.5 | 19.3 | 0.10 | 0.61 | 0.15 | 64 | 1013.6 |
| 20260507082028 | 20 | 207 | 12.9 | 17.7 | 0.10 | 0.61 | 0.15 | 64 | 1013.6 |
| 20260507081957 | 20 | 239 | 12.9 | 17.7 | 0.10 | 0.61 | 0.15 | 66 | 1013.5 |
| 20260507081830 | 20 | 212 | 11.3 | 17.7 | 0.10 | 0.61 | 0.15 | 68 | 1013.5 |
| 20260507081759 | 20 | 198 | 8.0 | 16.1 | 0.10 | 0.61 | 0.15 | 68 | 1013.5 |
| 20260507081706 | 20 | 160 | 3.2 | 14.5 | 0.10 | 0.61 | 0.15 | 68 | 1013.5 |
| 20260507081520 | 20 | 165 | 6.4 | 14.5 | 0.10 | 0.61 | 0.15 | 68 | 1013.5 |
| 20260507081448 | 20 | 165 | 6.4 | 14.5 | 0.10 | 0.61 | 0.15 | 68 | 1013.5 |
| 20260507081329 | 20 | 138 | 9.7 | 14.5 | 0.10 | 0.61 | 0.15 | 68 | 1013.5 |
| 20260507081222 | 20 | 137 | 8.0 | 14.5 | 0.10 | 0.61 | 0.15 | 67 | 1013.5 |
| 20260507081131 | 20 | 138 | 8.0 | 14.5 | 0.10 | 0.61 | 0.15 | 67 | 1013.5 |
| 20260507081056 | 20 | 171 | 9.7 | 14.5 | 0.10 | 0.61 | 0.15 | 67 | 1013.6 |
| 20260507080944 | 20 | 165 | 9.7 | 14.5 | 0.10 | 0.61 | 0.15 | 67 | 1013.6 |
| 20260507080820 | 20 | 170 | 8.0 | 12.9 | 0.10 | 0.61 | 0.15 | 67 | 1013.6 |
| 20260507080748 | 20 | 172 | 8.0 | 12.9 | 0.10 | 0.61 | 0.15 | 67 | 1013.6 |
| 20260507080628 | 20 | 153 | 8.0 | 12.9 | 0.10 | 0.61 | 0.15 | 67 | 1013.6 |
| 20260507080555 | 20 | 236 | 9.7 | 16.1 | 0.10 | 0.61 | 0.15 | 68 | 1013.6 |
| 20260507080428 | 20 | 205 | 8.0 | 16.1 | 0.10 | 0.61 | 0.15 | 69 | 1013.6 |
| 20260507080334 | 19 | 207 | 8.0 | 16.1 | 0.10 | 0.61 | 0.15 | 69 | 1013.5 |
| 20260507080241 | 19 | 196 | 8.0 | 16.1 | 0.10 | 0.61 | 0.15 | 69 | 1013.6 |
| 20260507080121 | 19 | 169 | 9.7 | 16.1 | 0.10 | 0.61 | 0.15 | 68 | 1013.6 |
| 20260507080033 | 19 | 192 | 9.7 | 16.1 | 0.10 | 0.61 | 0.15 | 68 | 1013.6 |
| 20260507075927 | 19 | 213 | 11.3 | 16.1 | 0.10 | 0.61 | 0.15 | 68 | 1013.6 |
| 20260507075822 | 19 | 245 | 12.9 | 16.1 | 0.10 | 0.61 | 0.15 | 68 | 1013.5 |
| 20260507075718 | 19 | 259 | 11.3 | 16.1 | 0.10 | 0.61 | 0.15 | 69 | 1013.5 |
| 20260507075650 | 19 | 251 | 9.7 | 16.1 | 0.10 | 0.61 | 0.15 | 70 | 1013.5 |
| 20260507075545 | 19 | 217 | 8.0 | 12.9 | 0.10 | 0.61 | 0.15 | 70 | 1013.5 |
| 20260507075419 | 18 | 167 | 9.7 | 12.9 | 0.10 | 0.61 | 0.15 | 71 | 1013.7 |
| 20260507075319 | 18 | 196 | 9.7 | 14.5 | 0.10 | 0.61 | 0.15 | 71 | 1013.7 |
| 20260507075231 | 18 | 201 | 6.4 | 14.5 | 0.10 | 0.61 | 0.15 | 71 | 1013.7 |
| 20260507075125 | 18 | 167 | 6.4 | 14.5 | 0.00 | 0.51 | 0.13 | 71 | 1013.7 |
| 20260507075056 | 18 | 167 | 6.4 | 17.7 | 0.00 | 0.51 | 0.13 | 71 | 1013.7 |
| 20260507074932 | 18 | 173 | 6.4 | 17.7 | 0.00 | 0.51 | 0.13 | 71 | 1013.7 |
| 20260507074842 | 18 | 192 | 6.4 | 17.7 | 0.00 | 0.51 | 0.13 | 71 | 1013.6 |
| 20260507074810 | 18 | 167 | 6.4 | 17.7 | 0.00 | 0.51 | 0.13 | 71 | 1013.7 |
| 20260507074642 | 18 | 142 | 9.7 | 17.7 | 0.00 | 0.51 | 0.13 | 70 | 1013.6 |
| 20260507074530 | 18 | 169 | 8.0 | 17.7 | 0.00 | 0.51 | 0.13 | 70 | 1013.6 |
| 20260507074431 | 18 | 163 | 8.0 | 17.7 | 0.00 | 0.51 | 0.13 | 70 | 1013.7 |
| 20260507074323 | 18 | 175 | 11.3 | 17.7 | 0.00 | 0.51 | 0.13 | 70 | 1013.7 |
| 20260507074231 | 18 | 174 | 11.3 | 20.9 | 0.00 | 0.51 | 0.13 | 70 | 1013.7 |
| 20260507074122 | 18 | 188 | 11.3 | 20.9 | 0.00 | 0.51 | 0.13 | 70 | 1013.7 |
| 20260507074049 | 18 | 177 | 11.3 | 20.9 | 0.00 | 0.51 | 0.13 | 70 | 1013.7 |
| 20260507073933 | 18 | 194 | 12.9 | 20.9 | 0.00 | 0.51 | 0.13 | 70 | 1013.6 |
| 20260507073825 | 18 | 173 | 12.9 | 20.9 | 0.00 | 0.51 | 0.13 | 70 | 1013.6 |
| 20260507073738 | 18 | 185 | 14.5 | 20.9 | 0.00 | 0.51 | 0.13 | 70 | 1013.6 |
| 20260507073635 | 18 | 189 | 14.5 | 20.9 | 0.00 | 0.51 | 0.13 | 69 | 1013.7 |
| 20260507073604 | 18 | 193 | 12.9 | 20.9 | 0.00 | 0.51 | 0.13 | 70 | 1013.6 |
| 20260507073507 | 18 | 187 | 12.9 | 20.9 | 0.00 | 0.51 | 0.13 | 70 | 1013.7 |
| 20260507073320 | 18 | 183 | 12.9 | 20.9 | 0.00 | 0.51 | 0.13 | 70 | 1013.6 |
| 20260507073228 | 18 | 189 | 11.3 | 20.9 | 0.00 | 0.51 | 0.13 | 70 | 1013.6 |
| 20260507073143 | 18 | 161 | 11.3 | 20.9 | 0.00 | 0.51 | 0.13 | 70 | 1013.7 |
| 20260507073044 | 18 | 199 | 12.9 | 20.9 | 0.00 | 0.51 | 0.13 | 70 | 1013.6 |
| 20260507072922 | 18 | 186 | 12.9 | 20.9 | 0.00 | 0.51 | 0.13 | 70 | 1013.7 |
| 20260507072818 | 18 | 181 | 12.9 | 20.9 | 0.00 | 0.51 | 0.13 | 70 | 1013.7 |
| 20260507072747 | 18 | 195 | 14.5 | 20.9 | 0.00 | 0.51 | 0.13 | 70 | 1013.7 |
| 20260507072635 | 18 | 179 | 12.9 | 20.9 | 0.00 | 0.51 | 0.13 | 70 | 1013.6 |
| 20260507072528 | 18 | 186 | 12.9 | 20.9 | 0.00 | 0.51 | 0.13 | 71 | 1013.6 |
| 20260507072422 | 18 | 224 | 12.9 | 20.9 | 0.00 | 0.51 | 0.13 | 71 | 1013.7 |
| 20260507072330 | 18 | 172 | 14.5 | 20.9 | 0.00 | 0.51 | 0.13 | 71 | 1013.7 |
| 20260507072230 | 18 | 184 | 16.1 | 20.9 | 0.00 | 0.51 | 0.13 | 71 | 1013.7 |
| 20260507072140 | 18 | 237 | 16.1 | 20.9 | 0.00 | 0.51 | 0.13 | 71 | 1013.7 |
| 20260507072032 | 18 | 234 | 16.1 | 20.9 | 0.00 | 0.51 | 0.13 | 71 | 1013.7 |
| 20260507071940 | 18 | 254 | 14.5 | 20.9 | 0.00 | 0.51 | 0.13 | 72 | 1013.6 |
| 20260507071856 | 18 | 232 | 12.9 | 20.9 | 0.00 | 0.51 | 0.13 | 73 | 1013.7 |
| 20260507071742 | 18 | 213 | 12.9 | 20.9 | 0.00 | 0.51 | 0.13 | 73 | 1013.7 |
| 20260507071622 | 18 | 180 | 12.9 | 17.7 | 0.00 | 0.51 | 0.13 | 73 | 1013.8 |
| 20260507071549 | 18 | 188 | 12.9 | 17.7 | 0.00 | 0.51 | 0.13 | 73 | 1013.8 |
| 20260507071443 | 18 | 226 | 12.9 | 17.7 | 0.00 | 0.51 | 0.13 | 73 | 1013.8 |
| 20260507071333 | 18 | 232 | 12.9 | 17.7 | 0.00 | 0.51 | 0.13 | 74 | 1013.8 |
| 20260507071239 | 18 | 215 | 12.9 | 17.7 | 0.00 | 0.51 | 0.13 | 74 | 1013.8 |
| 20260507071147 | 18 | 218 | 12.9 | 17.7 | 0.00 | 0.51 | 0.13 | 75 | 1013.7 |
| 20260507071019 | 18 | 221 | 12.9 | 17.7 | 0.00 | 0.51 | 0.13 | 75 | 1013.7 |
| 20260507070952 | 18 | 228 | 12.9 | 17.7 | 0.00 | 0.51 | 0.13 | 75 | 1013.7 |
| 20260507070830 | 17 | 236 | 12.9 | 17.7 | 0.00 | 0.51 | 0.13 | 75 | 1013.7 |
| 20260507070738 | 17 | 204 | 12.9 | 17.7 | 0.00 | 0.51 | 0.13 | 75 | 1013.7 |
| 20260507070633 | 17 | 218 | 11.3 | 17.7 | 0.00 | 0.51 | 0.13 | 77 | 1013.7 |
| 20260507070528 | 17 | 217 | 11.3 | 17.7 | 0.00 | 0.51 | 0.13 | 77 | 1013.7 |
| 20260507070435 | 17 | 205 | 11.3 | 17.7 | 0.00 | 0.51 | 0.13 | 77 | 1013.7 |
| 20260507070332 | 17 | 181 | 11.3 | 17.7 | 0.00 | 0.51 | 0.13 | 77 | 1013.7 |
| 20260507070244 | 17 | 191 | 11.3 | 17.7 | 0.00 | 0.51 | 0.13 | 78 | 1013.7 |
| 20260507070121 | 17 | 183 | 11.3 | 17.7 | 0.00 | 0.51 | 0.13 | 78 | 1013.7 |
| 20260507070031 | 17 | 198 | 11.3 | 17.7 | 0.00 | 0.51 | 0.13 | 79 | 1013.7 |
| 20260507065926 | 17 | 202 | 11.3 | 16.1 | 0.00 | 0.51 | 0.13 | 79 | 1013.7 |
| 20260507065837 | 17 | 194 | 9.7 | 16.1 | 0.00 | 0.51 | 0.13 | 79 | 1013.7 |
| 20260507065731 | 17 | 196 | 11.3 | 16.1 | 0.00 | 0.51 | 0.13 | 79 | 1013.7 |
| 20260507065700 | 17 | 189 | 11.3 | 16.1 | 0.00 | 0.51 | 0.13 | 79 | 1013.7 |
| 20260507065530 | 17 | 182 | 9.7 | 16.1 | 0.00 | 0.51 | 0.13 | 79 | 1013.7 |
| 20260507065422 | 17 | 172 | 6.4 | 17.7 | 0.00 | 0.51 | 0.13 | 79 | 1013.6 |
| 20260507065316 | 17 | 163 | 6.4 | 17.7 | 0.00 | 0.51 | 0.13 | 79 | 1013.7 |
| 20260507065249 | 17 | 165 | 4.8 | 17.7 | 0.00 | 0.51 | 0.13 | 79 | 1013.7 |
| 20260507065123 | 17 | 192 | 8.0 | 19.3 | 0.00 | 0.51 | 0.13 | 79 | 1013.7 |
| 20260507065015 | 17 | 190 | 8.0 | 19.3 | 0.00 | 0.51 | 0.13 | 80 | 1013.6 |
| 20260507064927 | 17 | 180 | 8.0 | 19.3 | 0.00 | 0.51 | 0.13 | 80 | 1013.6 |
| 20260507064838 | 17 | 142 | 9.7 | 19.3 | 0.00 | 0.51 | 0.13 | 80 | 1013.6 |
| 20260507064731 | 17 | 187 | 11.3 | 19.3 | 0.00 | 0.51 | 0.13 | 80 | 1013.6 |
| 20260507064642 | 17 | 174 | 11.3 | 19.3 | 0.00 | 0.51 | 0.13 | 80 | 1013.6 |
| 20260507064549 | 17 | 167 | 11.3 | 19.3 | 0.00 | 0.51 | 0.13 | 80 | 1013.6 |
| 20260507064422 | 17 | 179 | 12.9 | 19.3 | 0.00 | 0.51 | 0.13 | 80 | 1013.6 |
| 20260507064338 | 17 | 188 | 11.3 | 19.3 | 0.00 | 0.51 | 0.13 | 80 | 1013.6 |
| 20260507064244 | 17 | 202 | 9.7 | 19.3 | 0.00 | 0.51 | 0.13 | 81 | 1013.6 |
| 20260507064153 | 17 | 192 | 11.3 | 19.3 | 0.00 | 0.51 | 0.13 | 81 | 1013.6 |
| 20260507064106 | 17 | 184 | 11.3 | 19.3 | 0.00 | 0.51 | 0.13 | 81 | 1013.5 |
| 20260507064014 | 16 | 188 | 9.7 | 19.3 | 0.00 | 0.51 | 0.13 | 81 | 1013.5 |
| 20260507063920 | 16 | 195 | 11.3 | 19.3 | 0.00 | 0.51 | 0.13 | 81 | 1013.5 |
| 20260507063740 | 16 | 210 | 12.9 | 19.3 | 0.00 | 0.51 | 0.13 | 81 | 1013.5 |
| 20260507063638 | 16 | 205 | 11.3 | 17.7 | 0.00 | 0.51 | 0.13 | 81 | 1013.5 |
| 20260507063536 | 16 | 194 | 12.9 | 17.7 | 0.00 | 0.51 | 0.13 | 81 | 1013.4 |
| 20260507063442 | 16 | 226 | 12.9 | 17.7 | 0.00 | 0.51 | 0.13 | 81 | 1013.4 |
| 20260507063350 | 16 | 229 | 12.9 | 17.7 | 0.00 | 0.51 | 0.13 | 82 | 1013.4 |
| 20260507063227 | 16 | 227 | 12.9 | 17.7 | 0.00 | 0.51 | 0.13 | 82 | 1013.5 |
| 20260507063140 | 16 | 202 | 12.9 | 17.7 | 0.00 | 0.51 | 0.13 | 82 | 1013.5 |
| 20260507063047 | 16 | 213 | 11.3 | 17.7 | 0.00 | 0.51 | 0.13 | 82 | 1013.4 |
| 20260507063009 | 16 | 227 | 9.7 | 17.7 | 0.00 | 0.51 | 0.13 | 82 | 1013.4 |
| 20260507062937 | 16 | 249 | 9.7 | 17.7 | 0.00 | 0.51 | 0.13 | 82 | 1013.4 |
| 20260507062722 | 16 | 227 | 9.7 | 17.7 | 0.00 | 0.51 | 0.13 | 83 | 1013.5 |
| 20260507062631 | 16 | 230 | 11.3 | 17.7 | 0.00 | 0.51 | 0.13 | 83 | 1013.5 |
| 20260507062530 | 16 | 211 | 11.3 | 17.7 | 0.00 | 0.51 | 0.13 | 83 | 1013.5 |
| 20260507062438 | 16 | 205 | 11.3 | 17.7 | 0.00 | 0.51 | 0.13 | 83 | 1013.5 |
| 20260507062336 | 16 | 212 | 9.7 | 16.1 | 0.00 | 0.51 | 0.13 | 83 | 1013.5 |
| 20260507062248 | 16 | 224 | 11.3 | 16.1 | 0.00 | 0.51 | 0.13 | 83 | 1013.5 |
| 20260507062158 | 16 | 210 | 12.9 | 16.1 | 0.00 | 0.51 | 0.13 | 83 | 1013.5 |
| 20260507062050 | 16 | 202 | 11.3 | 16.1 | 0.00 | 0.51 | 0.13 | 83 | 1013.5 |
| 20260507061934 | 16 | 191 | 11.3 | 14.5 | 0.00 | 0.51 | 0.13 | 83 | 1013.5 |
| 20260507061822 | 16 | 199 | 11.3 | 14.5 | 0.00 | 0.51 | 0.13 | 83 | 1013.5 |
| 20260507061731 | 16 | 197 | 12.9 | 17.7 | 0.00 | 0.51 | 0.13 | 83 | 1013.5 |
| 20260507061639 | 16 | 194 | 11.3 | 17.7 | 0.00 | 0.51 | 0.13 | 83 | 1013.5 |
| 20260507061529 | 16 | 194 | 9.7 | 17.7 | 0.00 | 0.51 | 0.13 | 83 | 1013.6 |
| 20260507061444 | 16 | 205 | 9.7 | 19.3 | 0.00 | 0.51 | 0.13 | 83 | 1013.6 |
| 20260507061339 | 16 | 188 | 9.7 | 19.3 | 0.00 | 0.51 | 0.13 | 83 | 1013.6 |
| 20260507061247 | 16 | 196 | 9.7 | 19.3 | 0.00 | 0.51 | 0.13 | 83 | 1013.6 |
| 20260507061120 | 16 | 214 | 9.7 | 19.3 | 0.00 | 0.51 | 0.13 | 83 | 1013.6 |
| 20260507061050 | 16 | 187 | 11.3 | 19.3 | 0.00 | 0.51 | 0.13 | 83 | 1013.6 |
| 20260507060930 | 16 | 209 | 11.3 | 19.3 | 0.00 | 0.51 | 0.13 | 83 | 1013.7 |
| 20260507060828 | 16 | 202 | 11.3 | 19.3 | 0.00 | 0.51 | 0.13 | 83 | 1013.6 |
| 20260507060716 | 16 | 215 | 12.9 | 19.3 | 0.00 | 0.51 | 0.13 | 83 | 1013.6 |
| 20260507060636 | 16 | 200 | 12.9 | 19.3 | 0.00 | 0.51 | 0.13 | 83 | 1013.6 |
| 20260507060544 | 16 | 204 | 12.9 | 17.7 | 0.00 | 0.51 | 0.13 | 83 | 1013.6 |
| 20260507060421 | 16 | 198 | 14.5 | 17.7 | 0.00 | 0.51 | 0.13 | 83 | 1013.5 |
| 20260507060316 | 16 | 190 | 12.9 | 20.9 | 0.00 | 0.51 | 0.13 | 83 | 1013.5 |
| 20260507060232 | 16 | 191 | 12.9 | 20.9 | 0.00 | 0.51 | 0.13 | 83 | 1013.5 |
| 20260507060131 | 16 | 202 | 12.9 | 20.9 | 0.00 | 0.51 | 0.13 | 84 | 1013.6 |
| 20260507060038 | 16 | 188 | 12.9 | 20.9 | 0.00 | 0.51 | 0.13 | 84 | 1013.5 |
| 20260507055951 | 16 | 176 | 12.9 | 20.9 | 0.00 | 0.51 | 0.13 | 84 | 1013.5 |
| 20260507055900 | 16 | 185 | 14.5 | 20.9 | 0.00 | 0.51 | 0.13 | 84 | 1013.5 |
| 20260507055746 | 16 | 196 | 14.5 | 20.9 | 0.00 | 0.51 | 0.13 | 84 | 1013.5 |
| 20260507055639 | 16 | 196 | 14.5 | 20.9 | 0.00 | 0.51 | 0.13 | 84 | 1013.5 |
| 20260507055531 | 16 | 192 | 12.9 | 20.9 | 0.00 | 0.51 | 0.13 | 84 | 1013.5 |
| 20260507055421 | 16 | 196 | 12.9 | 17.7 | 0.00 | 0.51 | 0.13 | 84 | 1013.5 |
| 20260507055338 | 16 | 190 | 12.9 | 17.7 | 0.00 | 0.51 | 0.13 | 84 | 1013.5 |
| 20260507055244 | 16 | 211 | 12.9 | 17.7 | 0.00 | 0.51 | 0.13 | 84 | 1013.5 |
| 20260507055152 | 16 | 205 | 12.9 | 17.7 | 0.00 | 0.51 | 0.13 | 84 | 1013.5 |
| 20260507055044 | 16 | 202 | 12.9 | 17.7 | 0.00 | 0.51 | 0.13 | 84 | 1013.5 |
| 20260507055009 | 16 | 194 | 12.9 | 16.1 | 0.00 | 0.51 | 0.13 | 84 | 1013.5 |
| 20260507054855 | 16 | 209 | 12.9 | 16.1 | 0.00 | 0.51 | 0.13 | 84 | 1013.5 |
| 20260507054727 | 16 | 208 | 12.9 | 16.1 | 0.00 | 0.51 | 0.13 | 84 | 1013.5 |
| 20260507054639 | 16 | 205 | 12.9 | 16.1 | 0.00 | 0.51 | 0.13 | 84 | 1013.5 |
| 20260507054537 | 16 | 191 | 12.9 | 16.1 | 0.00 | 0.51 | 0.13 | 84 | 1013.5 |
| 20260507054444 | 16 | 198 | 12.9 | 16.1 | 0.00 | 0.51 | 0.13 | 84 | 1013.6 |
| 20260507054321 | 16 | 201 | 12.9 | 16.1 | 0.00 | 0.51 | 0.13 | 84 | 1013.5 |
| 20260507054222 | 16 | 196 | 12.9 | 16.1 | 0.00 | 0.51 | 0.13 | 85 | 1013.6 |
| 20260507054131 | 16 | 200 | 12.9 | 14.5 | 0.00 | 0.51 | 0.13 | 85 | 1013.6 |
| 20260507054027 | 16 | 197 | 11.3 | 14.5 | 0.00 | 0.51 | 0.13 | 85 | 1013.6 |
| 20260507053920 | 16 | 205 | 9.7 | 14.5 | 0.00 | 0.51 | 0.13 | 85 | 1013.5 |
| 20260507053830 | 16 | 191 | 9.7 | 14.5 | 0.00 | 0.51 | 0.13 | 85 | 1013.5 |
| 20260507053722 | 16 | 213 | 9.7 | 14.5 | 0.00 | 0.51 | 0.13 | 85 | 1013.5 |
| 20260507053632 | 16 | 195 | 9.7 | 14.5 | 0.00 | 0.51 | 0.13 | 85 | 1013.5 |
| 20260507053525 | 16 | 191 | 9.7 | 14.5 | 0.00 | 0.51 | 0.13 | 85 | 1013.5 |
| 20260507053437 | 16 | 205 | 11.3 | 14.5 | 0.00 | 0.51 | 0.13 | 85 | 1013.5 |
| 20260507053335 | 16 | 215 | 11.3 | 14.5 | 0.00 | 0.51 | 0.13 | 85 | 1013.4 |
| 20260507053232 | 16 | 211 | 9.7 | 14.5 | 0.00 | 0.51 | 0.13 | 85 | 1013.4 |
| 20260507053141 | 16 | 186 | 11.3 | 14.5 | 0.00 | 0.51 | 0.13 | 85 | 1013.3 |
| 20260507053028 | 16 | 223 | 11.3 | 16.1 | 0.00 | 0.51 | 0.13 | 85 | 1013.3 |
| 20260507052921 | 16 | 218 | 11.3 | 16.1 | 0.00 | 0.51 | 0.13 | 85 | 1013.3 |
| 20260507052830 | 16 | 211 | 11.3 | 16.1 | 0.00 | 0.51 | 0.13 | 85 | 1013.3 |
| 20260507052721 | 16 | 204 | 11.3 | 16.1 | 0.00 | 0.51 | 0.13 | 85 | 1013.2 |
| 20260507052654 | 16 | 215 | 11.3 | 16.1 | 0.00 | 0.51 | 0.13 | 85 | 1013.2 |
| 20260507052540 | 16 | 192 | 12.9 | 16.1 | 0.00 | 0.51 | 0.13 | 85 | 1013.2 |
| 20260507052434 | 16 | 213 | 12.9 | 16.1 | 0.00 | 0.51 | 0.13 | 85 | 1013.2 |
| 20260507052329 | 16 | 200 | 12.9 | 16.1 | 0.00 | 0.51 | 0.13 | 85 | 1013.2 |
| 20260507052237 | 16 | 197 | 12.9 | 16.1 | 0.00 | 0.51 | 0.13 | 86 | 1013.2 |
| 20260507052131 | 16 | 207 | 12.9 | 16.1 | 0.00 | 0.51 | 0.13 | 86 | 1013.2 |
| 20260507052036 | 16 | 190 | 12.9 | 16.1 | 0.00 | 0.51 | 0.13 | 86 | 1013.2 |
| 20260507051935 | 16 | 221 | 12.9 | 16.1 | 0.00 | 0.51 | 0.13 | 86 | 1013.1 |
| 20260507051843 | 16 | 193 | 11.3 | 16.1 | 0.00 | 0.51 | 0.13 | 86 | 1013.1 |
| 20260507051722 | 16 | 212 | 11.3 | 16.1 | 0.00 | 0.51 | 0.13 | 86 | 1013.1 |
| 20260507051641 | 15 | 182 | 11.3 | 16.1 | 0.00 | 0.51 | 0.13 | 86 | 1013.1 |
| 20260507051525 | 15 | 190 | 9.7 | 19.3 | 0.00 | 0.51 | 0.13 | 86 | 1013.0 |
| 20260507051420 | 15 | 190 | 9.7 | 19.3 | 0.00 | 0.51 | 0.13 | 86 | 1013.0 |
| 20260507051321 | 15 | 204 | 9.7 | 19.3 | 0.00 | 0.51 | 0.13 | 86 | 1013.0 |
| 20260507051230 | 15 | 180 | 9.7 | 19.3 | 0.00 | 0.51 | 0.13 | 86 | 1013.0 |
| 20260507051128 | 15 | 187 | 9.7 | 19.3 | 0.00 | 0.51 | 0.13 | 86 | 1013.0 |
| 20260507051036 | 15 | 188 | 11.3 | 19.3 | 0.00 | 0.51 | 0.13 | 86 | 1013.0 |
| 20260507050933 | 15 | 200 | 11.3 | 19.3 | 0.00 | 0.51 | 0.13 | 86 | 1013.1 |
| 20260507050840 | 15 | 187 | 11.3 | 19.3 | 0.00 | 0.51 | 0.13 | 86 | 1013.1 |
| 20260507050735 | 15 | 178 | 11.3 | 19.3 | 0.00 | 0.51 | 0.13 | 86 | 1013.1 |
| 20260507050626 | 15 | 190 | 11.3 | 19.3 | 0.00 | 0.51 | 0.13 | 86 | 1013.1 |
| 20260507050520 | 15 | 191 | 11.3 | 19.3 | 0.00 | 0.51 | 0.13 | 86 | 1013.0 |
| 20260507050448 | 15 | 177 | 11.3 | 19.3 | 0.00 | 0.51 | 0.13 | 86 | 1013.0 |
| 20260507050323 | 15 | 198 | 11.3 | 19.3 | 0.00 | 0.51 | 0.13 | 87 | 1013.0 |
| 20260507050232 | 15 | 192 | 12.9 | 19.3 | 0.00 | 0.51 | 0.13 | 87 | 1013.0 |
| 20260507050128 | 15 | 194 | 12.9 | 19.3 | 0.00 | 0.51 | 0.13 | 87 | 1013.0 |
| 20260507050036 | 15 | 177 | 12.9 | 19.3 | 0.00 | 0.51 | 0.13 | 87 | 1012.9 |
| 20260507045936 | 15 | 198 | 12.9 | 19.3 | 0.00 | 0.71 | 0.13 | 87 | 1012.9 |
| 20260507045843 | 15 | 196 | 12.9 | 19.3 | 0.00 | 0.71 | 0.13 | 87 | 1012.9 |
| 20260507045736 | 15 | 184 | 12.9 | 19.3 | 0.00 | 0.71 | 0.13 | 87 | 1012.9 |
| 20260507045643 | 15 | 185 | 12.9 | 19.3 | 0.00 | 0.71 | 0.13 | 87 | 1012.9 |
| 20260507045559 | 15 | 200 | 11.3 | 14.5 | 0.00 | 0.71 | 0.13 | 87 | 1012.8 |
| 20260507045445 | 15 | 183 | 11.3 | 14.5 | 0.00 | 0.71 | 0.13 | 87 | 1012.9 |
| 20260507045322 | 15 | 201 | 9.7 | 14.5 | 0.00 | 0.71 | 0.13 | 87 | 1012.8 |
| 20260507045222 | 15 | 194 | 9.7 | 14.5 | 0.00 | 0.71 | 0.13 | 87 | 1012.8 |
| 20260507045131 | 15 | 205 | 9.7 | 14.5 | 0.00 | 0.71 | 0.13 | 87 | 1012.8 |
| 20260507045022 | 15 | 197 | 9.7 | 14.5 | 0.00 | 0.71 | 0.13 | 87 | 1012.8 |
| 20260507044931 | 15 | 194 | 8.0 | 14.5 | 0.00 | 0.71 | 0.13 | 87 | 1012.8 |
| 20260507044824 | 15 | 184 | 8.0 | 11.3 | 0.00 | 0.71 | 0.13 | 87 | 1012.7 |
| 20260507044756 | 15 | 192 | 6.4 | 9.7 | 0.00 | 0.71 | 0.13 | 87 | 1012.7 |
| 20260507044703 | 15 | 188 | 6.4 | 9.7 | 0.00 | 0.71 | 0.13 | 87 | 1012.7 |
| 20260507044543 | 15 | 182 | 4.8 | 11.3 | 0.00 | 0.71 | 0.13 | 87 | 1012.6 |
| 20260507044451 | 15 | 182 | 4.8 | 11.3 | 0.00 | 0.71 | 0.13 | 87 | 1012.6 |
| 20260507044325 | 15 | 180 | 4.8 | 11.3 | 0.00 | 0.71 | 0.13 | 87 | 1012.6 |
| 20260507044219 | 15 | 178 | 6.4 | 11.3 | 0.00 | 0.71 | 0.13 | 87 | 1012.6 |
| 20260507044128 | 15 | 175 | 4.8 | 11.3 | 0.00 | 0.71 | 0.13 | 87 | 1012.6 |
| 20260507044052 | 15 | 176 | 4.8 | 11.3 | 0.00 | 0.71 | 0.13 | 87 | 1012.6 |
| 20260507043927 | 15 | 175 | 6.4 | 11.3 | 0.00 | 0.71 | 0.13 | 87 | 1012.5 |
| 20260507043828 | 15 | 184 | 8.0 | 11.3 | 0.00 | 0.71 | 0.13 | 87 | 1012.5 |
| 20260507043737 | 15 | 184 | 8.0 | 12.9 | 0.00 | 0.71 | 0.13 | 87 | 1012.5 |
| 20260507043636 | 15 | 188 | 8.0 | 12.9 | 0.00 | 0.71 | 0.13 | 87 | 1012.5 |
| 20260507043527 | 15 | 190 | 9.7 | 12.9 | 0.00 | 0.71 | 0.13 | 87 | 1012.5 |
| 20260507043434 | 15 | 188 | 8.0 | 12.9 | 0.00 | 0.71 | 0.13 | 87 | 1012.6 |
| 20260507043328 | 15 | 188 | 8.0 | 12.9 | 0.00 | 0.71 | 0.13 | 87 | 1012.5 |
| 20260507043240 | 15 | 188 | 8.0 | 12.9 | 0.00 | 0.71 | 0.13 | 87 | 1012.5 |
| 20260507043208 | 15 | 186 | 9.7 | 12.9 | 0.00 | 0.71 | 0.13 | 87 | 1012.5 |
| 20260507043019 | 15 | 192 | 9.7 | 12.9 | 0.00 | 0.71 | 0.13 | 87 | 1012.6 |
| 20260507042948 | 15 | 192 | 9.7 | 12.9 | 0.00 | 0.71 | 0.13 | 87 | 1012.6 |
| 20260507042825 | 15 | 196 | 9.7 | 11.3 | 0.00 | 0.71 | 0.13 | 87 | 1012.6 |
| 20260507042756 | 15 | 190 | 9.7 | 11.3 | 0.00 | 0.71 | 0.13 | 87 | 1012.6 |
| 20260507042629 | 15 | 192 | 8.0 | 11.3 | 0.00 | 0.71 | 0.13 | 87 | 1012.6 |
| 20260507042533 | 15 | 190 | 9.7 | 11.3 | 0.00 | 0.71 | 0.13 | 87 | 1012.6 |
| 20260507042435 | 15 | 190 | 9.7 | 11.3 | 0.00 | 0.71 | 0.13 | 87 | 1012.6 |
| 20260507042343 | 15 | 206 | 9.7 | 11.3 | 0.00 | 0.71 | 0.13 | 87 | 1012.6 |
| 20260507042238 | 15 | 190 | 8.0 | 11.3 | 0.00 | 0.71 | 0.13 | 87 | 1012.6 |
| 20260507042145 | 15 | 196 | 8.0 | 11.3 | 0.00 | 0.71 | 0.13 | 87 | 1012.6 |
| 20260507042038 | 15 | 201 | 6.4 | 11.3 | 0.00 | 0.71 | 0.13 | 87 | 1012.6 |
| 20260507041945 | 15 | 184 | 8.0 | 11.3 | 0.00 | 0.71 | 0.13 | 87 | 1012.6 |
| 20260507041822 | 15 | 190 | 6.4 | 11.3 | 0.00 | 0.71 | 0.13 | 87 | 1012.6 |
| 20260507041722 | 15 | 182 | 6.4 | 9.7 | 0.00 | 0.71 | 0.13 | 87 | 1012.6 |
| 20260507041635 | 15 | 173 | 6.4 | 9.7 | 0.00 | 0.71 | 0.13 | 87 | 1012.6 |
| 20260507041541 | 15 | 178 | 6.4 | 9.7 | 0.00 | 0.71 | 0.13 | 87 | 1012.6 |
| 20260507041438 | 15 | 181 | 6.4 | 9.7 | 0.00 | 0.71 | 0.13 | 87 | 1012.6 |
| 20260507041333 | 15 | 174 | 6.4 | 9.7 | 0.00 | 0.71 | 0.13 | 87 | 1012.6 |
| 20260507041243 | 15 | 169 | 6.4 | 9.7 | 0.00 | 0.71 | 0.13 | 87 | 1012.5 |
| 20260507041122 | 15 | 173 | 6.4 | 9.7 | 0.00 | 0.71 | 0.13 | 87 | 1012.5 |
| 20260507041019 | 15 | 171 | 6.4 | 9.7 | 0.00 | 0.71 | 0.13 | 87 | 1012.5 |
| 20260507040927 | 15 | 146 | 6.4 | 9.7 | 0.00 | 0.71 | 0.13 | 87 | 1012.5 |
| 20260507040828 | 15 | 146 | 4.8 | 8.0 | 0.00 | 0.71 | 0.13 | 87 | 1012.4 |
| 20260507040737 | 15 | 140 | 4.8 | 8.0 | 0.00 | 0.71 | 0.13 | 87 | 1012.4 |
| 20260507040601 | 15 | 150 | 4.8 | 8.0 | 0.00 | 0.71 | 0.13 | 87 | 1012.4 |
| 20260507040526 | 15 | 146 | 6.4 | 8.0 | 0.00 | 0.71 | 0.13 | 87 | 1012.4 |
| 20260507040336 | 15 | 153 | 3.2 | 8.0 | 0.00 | 0.71 | 0.13 | 87 | 1012.4 |
| 20260507040246 | 15 | 147 | 0.0 | 6.4 | 0.00 | 0.71 | 0.13 | 87 | 1012.4 |
| 20260507040122 | 15 | 147 | 1.6 | 6.4 | 0.00 | 0.71 | 0.13 | 87 | 1012.4 |
| 20260507040029 | 15 | 147 | 1.6 | 6.4 | 0.00 | 0.71 | 0.13 | 87 | 1012.4 |
| 20260507035921 | 15 | 147 | 1.6 | 6.4 | 0.00 | 0.71 | 0.13 | 87 | 1012.4 |
| 20260507035833 | 15 | 147 | 1.6 | 6.4 | 0.00 | 0.71 | 0.13 | 87 | 1012.4 |
| 20260507035728 | 15 | 147 | 1.6 | 6.4 | 0.00 | 0.71 | 0.13 | 87 | 1012.3 |
| 20260507035632 | 15 | 147 | 1.6 | 9.7 | 0.00 | 0.71 | 0.13 | 87 | 1012.4 |
| 20260507035537 | 15 | 147 | 3.2 | 9.7 | 0.00 | 0.71 | 0.13 | 87 | 1012.4 |
| 20260507035432 | 15 | 145 | 3.2 | 9.7 | 0.00 | 0.71 | 0.13 | 87 | 1012.3 |
| 20260507035339 | 15 | 145 | 3.2 | 9.7 | 0.00 | 0.71 | 0.13 | 87 | 1012.4 |
| 20260507035308 | 15 | 145 | 1.6 | 9.7 | 0.00 | 0.71 | 0.13 | 86 | 1012.3 |
| 20260507035142 | 15 | 139 | 3.2 | 11.3 | 0.00 | 0.71 | 0.13 | 86 | 1012.3 |
| 20260507035048 | 15 | 139 | 4.8 | 11.3 | 0.00 | 0.71 | 0.13 | 86 | 1012.4 |
| 20260507034926 | 15 | 141 | 6.4 | 11.3 | 0.00 | 0.71 | 0.13 | 86 | 1012.4 |
| 20260507034822 | 15 | 157 | 6.4 | 11.3 | 0.00 | 0.71 | 0.13 | 86 | 1012.4 |
| 20260507034734 | 15 | 159 | 8.0 | 11.3 | 0.00 | 0.71 | 0.13 | 86 | 1012.4 |
| 20260507034631 | 15 | 147 | 8.0 | 11.3 | 0.00 | 0.71 | 0.13 | 86 | 1012.4 |
| 20260507034539 | 15 | 167 | 8.0 | 11.3 | 0.00 | 0.71 | 0.13 | 86 | 1012.4 |
| 20260507034432 | 15 | 157 | 8.0 | 11.3 | 0.00 | 0.71 | 0.13 | 86 | 1012.4 |
| 20260507034324 | 15 | 165 | 6.4 | 11.3 | 0.00 | 0.71 | 0.13 | 86 | 1012.3 |
| 20260507034240 | 15 | 158 | 8.0 | 11.3 | 0.00 | 0.71 | 0.13 | 86 | 1012.3 |
| 20260507034127 | 15 | 155 | 8.0 | 12.9 | 0.00 | 0.71 | 0.13 | 86 | 1012.3 |
| 20260507034019 | 15 | 141 | 9.7 | 12.9 | 0.00 | 0.71 | 0.13 | 86 | 1012.3 |
| 20260507033927 | 15 | 132 | 8.0 | 12.9 | 0.00 | 0.71 | 0.13 | 86 | 1012.3 |
| 20260507033841 | 15 | 151 | 8.0 | 12.9 | 0.00 | 0.71 | 0.13 | 86 | 1012.3 |
| 20260507033728 | 15 | 145 | 8.0 | 12.9 | 0.00 | 0.71 | 0.13 | 86 | 1012.3 |
| 20260507033623 | 15 | 144 | 6.4 | 12.9 | 0.00 | 0.71 | 0.13 | 86 | 1012.4 |
| 20260507033533 | 16 | 168 | 6.4 | 12.9 | 0.00 | 0.71 | 0.13 | 86 | 1012.4 |
| 20260507033450 | 16 | 165 | 6.4 | 12.9 | 0.00 | 0.71 | 0.13 | 86 | 1012.3 |
| 20260507033358 | 16 | 169 | 8.0 | 12.9 | 0.00 | 0.71 | 0.13 | 86 | 1012.3 |
| 20260507033244 | 16 | 169 | 6.4 | 12.9 | 0.00 | 0.71 | 0.13 | 85 | 1012.4 |
| 20260507033120 | 16 | 159 | 8.0 | 12.9 | 0.00 | 0.71 | 0.13 | 85 | 1012.4 |
| 20260507033031 | 16 | 167 | 9.7 | 12.9 | 0.00 | 0.71 | 0.13 | 85 | 1012.4 |
| 20260507032939 | 16 | 153 | 8.0 | 12.9 | 0.00 | 0.71 | 0.13 | 85 | 1012.5 |
| 20260507032838 | 16 | 162 | 8.0 | 9.7 | 0.00 | 0.71 | 0.13 | 85 | 1012.4 |
| 20260507032745 | 16 | 163 | 6.4 | 9.7 | 0.00 | 0.71 | 0.13 | 85 | 1012.4 |
| 20260507032619 | 16 | 161 | 6.4 | 9.7 | 0.00 | 0.71 | 0.13 | 85 | 1012.4 |
| 20260507032529 | 16 | 157 | 6.4 | 8.0 | 0.00 | 0.71 | 0.13 | 85 | 1012.4 |
| 20260507032425 | 16 | 156 | 4.8 | 8.0 | 0.00 | 0.71 | 0.13 | 85 | 1012.4 |
| 20260507032319 | 16 | 138 | 1.6 | 8.0 | 0.00 | 0.71 | 0.13 | 85 | 1012.4 |
| 20260507032228 | 16 | 136 | 1.6 | 8.0 | 0.00 | 0.71 | 0.13 | 85 | 1012.4 |
| 20260507032126 | 16 | 136 | 3.2 | 8.0 | 0.00 | 0.71 | 0.13 | 85 | 1012.4 |
| 20260507032033 | 16 | 136 | 3.2 | 8.0 | 0.00 | 0.71 | 0.13 | 85 | 1012.5 |
| 20260507031931 | 16 | 136 | 4.8 | 8.0 | 0.00 | 0.71 | 0.13 | 85 | 1012.4 |
| 20260507031839 | 16 | 131 | 4.8 | 8.0 | 0.00 | 0.71 | 0.13 | 85 | 1012.4 |
| 20260507031740 | 16 | 130 | 4.8 | 8.0 | 0.00 | 0.71 | 0.13 | 85 | 1012.4 |
| 20260507031649 | 16 | 126 | 3.2 | 8.0 | 0.00 | 0.71 | 0.13 | 85 | 1012.4 |
| 20260507031527 | 16 | 88 | 1.6 | 3.2 | 0.00 | 0.71 | 0.13 | 85 | 1012.4 |
| 20260507031421 | 16 | 88 | 0.0 | 3.2 | 0.00 | 0.71 | 0.13 | 85 | 1012.4 |
| 20260507031330 | 16 | 88 | 0.0 | 3.2 | 0.00 | 0.71 | 0.13 | 85 | 1012.4 |
| 20260507031227 | 16 | 88 | 0.0 | 6.4 | 0.00 | 0.71 | 0.13 | 85 | 1012.5 |
| 20260507031135 | 16 | 88 | 0.0 | 6.4 | 0.00 | 0.71 | 0.13 | 85 | 1012.4 |
| 20260507031026 | 16 | 88 | 1.6 | 6.4 | 0.00 | 0.71 | 0.13 | 85 | 1012.4 |
| 20260507030919 | 16 | 88 | 1.6 | 6.4 | 0.00 | 0.71 | 0.13 | 85 | 1012.4 |
| 20260507030852 | 16 | 88 | 1.6 | 6.4 | 0.00 | 0.71 | 0.13 | 85 | 1012.4 |
| 20260507030739 | 16 | 88 | 1.6 | 6.4 | 0.00 | 0.71 | 0.13 | 85 | 1012.4 |
| 20260507030637 | 16 | 88 | 1.6 | 6.4 | 0.00 | 0.71 | 0.13 | 85 | 1012.4 |
| 20260507030604 | 16 | 88 | 3.2 | 6.4 | 0.00 | 0.71 | 0.13 | 85 | 1012.4 |
| 20260507030507 | 16 | 88 | 3.2 | 6.4 | 0.00 | 0.71 | 0.13 | 85 | 1012.4 |
| 20260507030319 | 16 | 71 | 1.6 | 8.0 | 0.00 | 0.71 | 0.13 | 85 | 1012.3 |
| 20260507030249 | 16 | 46 | 1.6 | 8.0 | 0.00 | 0.71 | 0.13 | 85 | 1012.3 |
| 20260507030121 | 16 | 46 | 3.2 | 8.0 | 0.00 | 0.71 | 0.13 | 85 | 1012.2 |
| 20260507030019 | 16 | 46 | 3.2 | 8.0 | 0.00 | 0.71 | 0.13 | 85 | 1012.2 |
| 20260507025949 | 16 | 46 | 3.2 | 8.0 | 0.00 | 0.71 | 0.13 | 85 | 1012.2 |
| 20260507025835 | 16 | 45 | 3.2 | 8.0 | 0.00 | 0.71 | 0.13 | 85 | 1012.3 |
| 20260507025733 | 16 | 38 | 4.8 | 8.0 | 0.00 | 0.71 | 0.13 | 85 | 1012.3 |
| 20260507025630 | 16 | 34 | 4.8 | 8.0 | 0.00 | 0.71 | 0.13 | 84 | 1012.3 |
| 20260507025538 | 16 | 32 | 4.8 | 8.0 | 0.00 | 0.71 | 0.13 | 85 | 1012.3 |
| 20260507025419 | 16 | 50 | 3.2 | 8.0 | 0.00 | 0.71 | 0.13 | 84 | 1012.3 |
| 20260507025349 | 16 | 38 | 3.2 | 8.0 | 0.00 | 0.71 | 0.13 | 84 | 1012.3 |
| 20260507025241 | 16 | 23 | 3.2 | 8.0 | 0.00 | 0.71 | 0.13 | 84 | 1012.4 |
| 20260507025129 | 16 | 81 | 1.6 | 6.4 | 0.00 | 0.71 | 0.13 | 84 | 1012.4 |
| 20260507025029 | 16 | 103 | 1.6 | 3.2 | 0.00 | 0.71 | 0.13 | 84 | 1012.4 |
| 20260507024930 | 16 | 103 | 1.6 | 3.2 | 0.00 | 0.71 | 0.13 | 84 | 1012.4 |
| 20260507024836 | 16 | 148 | 1.6 | 3.2 | 0.00 | 0.71 | 0.13 | 84 | 1012.3 |
| 20260507024743 | 16 | 149 | 1.6 | 3.2 | 0.00 | 0.71 | 0.13 | 84 | 1012.3 |
| 20260507024625 | 16 | 152 | 0.0 | 3.2 | 0.00 | 0.71 | 0.13 | 84 | 1012.3 |
| 20260507024536 | 16 | 152 | 0.0 | 3.2 | 0.00 | 0.71 | 0.13 | 84 | 1012.3 |
| 20260507024430 | 16 | 152 | 1.6 | 3.2 | 0.00 | 0.71 | 0.13 | 84 | 1012.3 |
| 20260507024323 | 16 | 152 | 1.6 | 3.2 | 0.00 | 0.71 | 0.13 | 84 | 1012.3 |
| 20260507024229 | 16 | 152 | 1.6 | 3.2 | 0.00 | 0.71 | 0.13 | 84 | 1012.3 |
| 20260507024123 | 16 | 152 | 1.6 | 3.2 | 0.10 | 0.71 | 0.13 | 84 | 1012.3 |
| 20260507024033 | 16 | 152 | 1.6 | 3.2 | 0.10 | 0.71 | 0.13 | 84 | 1012.3 |
| 20260507023927 | 16 | 152 | 0.0 | 1.6 | 0.10 | 0.71 | 0.13 | 84 | 1012.3 |
| 20260507023835 | 16 | 152 | 0.0 | 1.6 | 0.10 | 0.71 | 0.13 | 84 | 1012.3 |
| 20260507023751 | 16 | 152 | 0.0 | 1.6 | 0.10 | 0.71 | 0.13 | 84 | 1012.3 |
| 20260507023637 | 16 | 152 | 0.0 | 3.2 | 0.10 | 0.71 | 0.13 | 84 | 1012.2 |
| 20260507023532 | 16 | 152 | 0.0 | 3.2 | 0.10 | 0.71 | 0.13 | 84 | 1012.3 |
| 20260507023440 | 16 | 152 | 0.0 | 3.2 | 0.10 | 0.71 | 0.13 | 84 | 1012.2 |
| 20260507023318 | 16 | 152 | 0.0 | 3.2 | 0.10 | 0.71 | 0.13 | 84 | 1012.2 |
| 20260507023246 | 16 | 152 | 0.0 | 3.2 | 0.10 | 0.71 | 0.13 | 84 | 1012.2 |
| 20260507023134 | 16 | 152 | 0.0 | 3.2 | 0.10 | 0.71 | 0.13 | 84 | 1012.2 |
| 20260507023049 | 16 | 152 | 1.6 | 3.2 | 0.10 | 0.71 | 0.13 | 84 | 1012.2 |
| 20260507022935 | 16 | 152 | 1.6 | 3.2 | 0.10 | 0.71 | 0.13 | 84 | 1012.2 |
| 20260507022829 | 16 | 152 | 1.6 | 3.2 | 0.10 | 0.71 | 0.13 | 84 | 1012.2 |
| 20260507022740 | 16 | 152 | 1.6 | 3.2 | 0.10 | 0.71 | 0.13 | 83 | 1012.2 |
| 20260507022654 | 16 | 152 | 1.6 | 3.2 | 0.10 | 0.71 | 0.13 | 83 | 1012.2 |
| 20260507022541 | 16 | 152 | 1.6 | 3.2 | 0.20 | 0.71 | 0.13 | 83 | 1012.2 |
| 20260507022453 | 16 | 152 | 1.6 | 3.2 | 0.20 | 0.71 | 0.13 | 83 | 1012.2 |
| 20260507022326 | 16 | 152 | 1.6 | 3.2 | 0.20 | 0.71 | 0.13 | 83 | 1012.2 |
| 20260507022257 | 16 | 152 | 1.6 | 3.2 | 0.30 | 0.71 | 0.13 | 83 | 1012.2 |
| 20260507022206 | 16 | 152 | 1.6 | 3.2 | 0.30 | 0.71 | 0.13 | 83 | 1012.1 |
| 20260507022043 | 16 | 152 | 1.6 | 3.2 | 0.30 | 0.71 | 0.13 | 83 | 1012.0 |
| 20260507021931 | 16 | 152 | 1.6 | 3.2 | 0.30 | 0.71 | 0.13 | 83 | 1012.0 |
| 20260507021848 | 16 | 152 | 1.6 | 6.4 | 0.41 | 0.71 | 0.13 | 83 | 1012.1 |
| 20260507021734 | 16 | 152 | 1.6 | 6.4 | 0.41 | 0.71 | 0.13 | 83 | 1012.0 |
| 20260507021632 | 16 | 152 | 0.0 | 6.4 | 0.41 | 0.71 | 0.13 | 83 | 1012.1 |
| 20260507021537 | 16 | 153 | 0.0 | 6.4 | 0.41 | 0.71 | 0.13 | 83 | 1012.1 |
| 20260507021432 | 16 | 153 | 0.0 | 6.4 | 0.41 | 0.71 | 0.13 | 83 | 1012.1 |
| 20260507021332 | 16 | 153 | 0.0 | 6.4 | 0.41 | 0.71 | 0.13 | 83 | 1012.1 |
| 20260507021220 | 16 | 152 | 1.6 | 6.4 | 0.41 | 0.71 | 0.13 | 83 | 1012.2 |
| 20260507021138 | 16 | 152 | 1.6 | 6.4 | 0.41 | 0.71 | 0.13 | 83 | 1012.2 |
| 20260507021043 | 16 | 152 | 3.2 | 6.4 | 0.41 | 0.71 | 0.13 | 83 | 1012.2 |
| 20260507020937 | 16 | 153 | 3.2 | 4.8 | 0.51 | 0.71 | 0.13 | 83 | 1012.2 |
| 20260507020844 | 16 | 153 | 3.2 | 6.4 | 0.51 | 0.71 | 0.13 | 83 | 1012.1 |
| 20260507020723 | 16 | 159 | 1.6 | 6.4 | 0.51 | 0.71 | 0.13 | 83 | 1012.2 |
| 20260507020621 | 16 | 159 | 1.6 | 3.2 | 0.51 | 0.71 | 0.13 | 83 | 1012.2 |
| 20260507020549 | 16 | 159 | 1.6 | 6.4 | 0.51 | 0.71 | 0.13 | 82 | 1012.2 |
| 20260507020438 | 16 | 159 | 1.6 | 6.4 | 0.51 | 0.71 | 0.13 | 82 | 1012.2 |
| 20260507020319 | 16 | 159 | 1.6 | 6.4 | 0.51 | 0.71 | 0.13 | 82 | 1012.2 |
| 20260507020217 | 16 | 163 | 0.0 | 6.4 | 0.51 | 0.71 | 0.13 | 82 | 1012.3 |
| 20260507020127 | 16 | 163 | 0.0 | 6.4 | 0.51 | 0.71 | 0.13 | 82 | 1012.3 |
| 20260507020021 | 16 | 163 | 1.6 | 6.4 | 0.51 | 0.71 | 0.13 | 82 | 1012.3 |
| 20260507015919 | 16 | 163 | 1.6 | 6.4 | 0.51 | 0.71 | 0.13 | 82 | 1012.3 |
| 20260507015827 | 16 | 163 | 3.2 | 4.8 | 0.51 | 0.71 | 0.13 | 82 | 1012.3 |
| 20260507015754 | 16 | 163 | 1.6 | 9.7 | 0.51 | 0.71 | 0.13 | 82 | 1012.3 |
| 20260507015713 | 16 | 163 | 1.6 | 9.7 | 0.51 | 0.71 | 0.13 | 82 | 1012.4 |
| 20260507015622 | 17 | 163 | 0.0 | 9.7 | 0.51 | 0.71 | 0.13 | 82 | 1012.3 |
| 20260507015439 | 17 | 163 | 1.6 | 9.7 | 0.51 | 0.71 | 0.13 | 82 | 1012.3 |
| 20260507015335 | 17 | 163 | 1.6 | 9.7 | 0.51 | 0.71 | 0.13 | 82 | 1012.3 |
| 20260507015230 | 17 | 164 | 1.6 | 9.7 | 0.51 | 0.71 | 0.13 | 82 | 1012.3 |
| 20260507015137 | 17 | 164 | 1.6 | 9.7 | 0.51 | 0.71 | 0.13 | 82 | 1012.3 |
| 20260507015027 | 17 | 164 | 3.2 | 9.7 | 0.51 | 0.71 | 0.13 | 82 | 1012.3 |
| 20260507014954 | 17 | 164 | 3.2 | 9.7 | 0.51 | 0.71 | 0.13 | 82 | 1012.3 |
| 20260507014845 | 17 | 165 | 3.2 | 8.0 | 0.51 | 0.71 | 0.13 | 81 | 1012.3 |
| 20260507014739 | 17 | 165 | 3.2 | 8.0 | 0.51 | 0.71 | 0.13 | 81 | 1012.4 |
| 20260507014647 | 17 | 165 | 4.8 | 8.0 | 0.51 | 0.71 | 0.13 | 81 | 1012.4 |
| 20260507014519 | 17 | 161 | 3.2 | 8.0 | 0.51 | 0.71 | 0.13 | 81 | 1012.3 |
| 20260507014448 | 17 | 161 | 3.2 | 8.0 | 0.51 | 0.71 | 0.13 | 81 | 1012.3 |
| 20260507014322 | 17 | 178 | 1.6 | 6.4 | 0.51 | 0.71 | 0.13 | 81 | 1012.3 |
| 20260507014250 | 17 | 186 | 1.6 | 6.4 | 0.51 | 0.71 | 0.13 | 81 | 1012.3 |
| 20260507014156 | 17 | 187 | 1.6 | 6.4 | 0.51 | 0.71 | 0.13 | 81 | 1012.2 |
| 20260507014031 | 17 | 187 | 1.6 | 6.4 | 0.41 | 0.61 | 0.10 | 81 | 1012.2 |
| 20260507013940 | 17 | 187 | 1.6 | 6.4 | 0.41 | 0.61 | 0.10 | 81 | 1012.2 |
| 20260507013836 | 17 | 187 | 0.0 | 8.0 | 0.41 | 0.61 | 0.10 | 80 | 1012.1 |
| 20260507013734 | 17 | 187 | 0.0 | 8.0 | 0.41 | 0.61 | 0.10 | 80 | 1012.1 |
| 20260507013701 | 17 | 187 | 1.6 | 8.0 | 0.41 | 0.61 | 0.10 | 80 | 1012.1 |
| 20260507013544 | 17 | 187 | 3.2 | 8.0 | 0.41 | 0.61 | 0.10 | 80 | 1012.1 |
| 20260507013419 | 17 | 187 | 3.2 | 8.0 | 0.41 | 0.61 | 0.10 | 80 | 1012.1 |
| 20260507013329 | 17 | 188 | 3.2 | 8.0 | 0.41 | 0.61 | 0.10 | 80 | 1012.1 |
| 20260507013236 | 17 | 190 | 3.2 | 8.0 | 0.41 | 0.61 | 0.10 | 80 | 1012.2 |
| 20260507013130 | 17 | 191 | 4.8 | 8.0 | 0.41 | 0.61 | 0.10 | 80 | 1012.2 |
| 20260507013058 | 17 | 192 | 6.4 | 8.0 | 0.41 | 0.61 | 0.10 | 79 | 1012.2 |
| 20260507013001 | 17 | 204 | 4.8 | 8.0 | 0.41 | 0.61 | 0.10 | 79 | 1012.3 |
| 20260507012907 | 17 | 204 | 3.2 | 8.0 | 0.41 | 0.61 | 0.10 | 79 | 1012.4 |
| 20260507012721 | 17 | 190 | 1.6 | 6.4 | 0.41 | 0.61 | 0.10 | 79 | 1012.4 |
| 20260507012652 | 17 | 190 | 1.6 | 6.4 | 0.41 | 0.61 | 0.10 | 79 | 1012.4 |
| 20260507012527 | 17 | 190 | 3.2 | 6.4 | 0.30 | 0.51 | 0.08 | 79 | 1012.3 |
| 20260507012425 | 17 | 190 | 3.2 | 6.4 | 0.30 | 0.51 | 0.08 | 79 | 1012.3 |
| 20260507012334 | 17 | 198 | 3.2 | 8.0 | 0.20 | 0.41 | 0.05 | 79 | 1012.3 |
| 20260507012241 | 17 | 210 | 3.2 | 8.0 | 0.20 | 0.41 | 0.05 | 78 | 1012.3 |
| 20260507012158 | 17 | 213 | 1.6 | 9.7 | 0.20 | 0.41 | 0.05 | 78 | 1012.4 |
| 20260507012045 | 17 | 238 | 1.6 | 11.3 | 0.20 | 0.41 | 0.05 | 78 | 1012.3 |
| 20260507012010 | 17 | 252 | 1.6 | 11.3 | 0.20 | 0.41 | 0.05 | 78 | 1012.3 |
| 20260507011827 | 17 | 252 | 1.6 | 11.3 | 0.10 | 0.30 | 0.03 | 78 | 1012.3 |
| 20260507011802 | 17 | 252 | 3.2 | 12.9 | 0.10 | 0.30 | 0.03 | 78 | 1012.3 |
| 20260507011653 | 17 | 252 | 3.2 | 12.9 | 0.10 | 0.30 | 0.03 | 78 | 1012.3 |
| 20260507011540 | 17 | 253 | 4.8 | 14.5 | 0.10 | 0.30 | 0.03 | 78 | 1012.3 |
| 20260507011453 | 17 | 254 | 8.0 | 14.5 | 0.10 | 0.30 | 0.03 | 77 | 1012.2 |
| 20260507011319 | 17 | 252 | 9.7 | 16.1 | 0.10 | 0.30 | 0.03 | 77 | 1012.2 |
| 20260507011233 | 17 | 244 | 8.0 | 16.1 | 0.10 | 0.30 | 0.03 | 77 | 1012.2 |
| 20260507011141 | 17 | 254 | 9.7 | 16.1 | 0.10 | 0.30 | 0.03 | 77 | 1012.2 |
| 20260507011032 | 17 | 229 | 9.7 | 17.7 | 0.00 | 0.20 | 0.00 | 77 | 1012.1 |
| 20260507010943 | 17 | 215 | 11.3 | 17.7 | 0.00 | 0.20 | 0.00 | 77 | 1012.1 |
| 20260507010837 | 17 | 205 | 11.3 | 19.3 | 0.00 | 0.20 | 0.00 | 77 | 1012.1 |
| 20260507010734 | 17 | 208 | 11.3 | 19.3 | 0.00 | 0.20 | 0.00 | 77 | 1012.1 |
| 20260507010622 | 17 | 214 | 11.3 | 19.3 | 0.00 | 0.20 | 0.00 | 76 | 1012.0 |
| 20260507010535 | 17 | 226 | 11.3 | 19.3 | 0.00 | 0.20 | 0.00 | 76 | 1012.0 |
| 20260507010441 | 17 | 223 | 11.3 | 19.3 | 0.00 | 0.20 | 0.00 | 76 | 1012.1 |
| 20260507010318 | 17 | 204 | 12.9 | 19.3 | 0.00 | 0.20 | 0.00 | 76 | 1012.1 |
| 20260507010247 | 17 | 209 | 12.9 | 19.3 | 0.00 | 0.20 | 0.00 | 76 | 1012.1 |
| 20260507010123 | 17 | 217 | 14.5 | 19.3 | 0.00 | 0.20 | 0.00 | 76 | 1012.1 |
| 20260507010039 | 17 | 190 | 14.5 | 19.3 | 0.00 | 0.20 | 0.00 | 76 | 1012.1 |
| 20260507005946 | 17 | 211 | 14.5 | 19.3 | 0.00 | 0.30 | 0.00 | 76 | 1012.1 |
| 20260507005820 | 18 | 207 | 16.1 | 19.3 | 0.00 | 0.30 | 0.00 | 76 | 1012.1 |
| 20260507005728 | 18 | 208 | 14.5 | 19.3 | 0.00 | 0.30 | 0.00 | 76 | 1012.1 |
| 20260507005627 | 18 | 219 | 12.9 | 19.3 | 0.00 | 0.30 | 0.00 | 76 | 1012.2 |
| 20260507005530 | 18 | 198 | 12.9 | 19.3 | 0.00 | 0.30 | 0.00 | 75 | 1012.2 |
| 20260507005457 | 18 | 183 | 14.5 | 19.3 | 0.00 | 0.30 | 0.00 | 76 | 1012.1 |
| 20260507005334 | 18 | 207 | 12.9 | 19.3 | 0.00 | 0.30 | 0.00 | 75 | 1012.1 |
| 20260507005241 | 18 | 227 | 11.3 | 19.3 | 0.00 | 0.30 | 0.00 | 75 | 1012.1 |
| 20260507005159 | 18 | 196 | 12.9 | 19.3 | 0.00 | 0.30 | 0.00 | 75 | 1012.1 |
| 20260507005046 | 18 | 190 | 12.9 | 19.3 | 0.00 | 0.30 | 0.00 | 75 | 1012.1 |
| 20260507005011 | 18 | 185 | 14.5 | 19.3 | 0.00 | 0.30 | 0.00 | 75 | 1012.1 |
| 20260507004820 | 18 | 200 | 16.1 | 19.3 | 0.00 | 0.30 | 0.00 | 75 | 1012.1 |
| 20260507004727 | 18 | 182 | 14.5 | 19.3 | 0.00 | 0.30 | 0.00 | 75 | 1012.1 |
| 20260507004621 | 18 | 188 | 14.5 | 17.7 | 0.00 | 0.30 | 0.00 | 75 | 1012.1 |
| 20260507004527 | 18 | 178 | 12.9 | 17.7 | 0.00 | 0.30 | 0.00 | 75 | 1012.1 |
| 20260507004440 | 18 | 203 | 12.9 | 17.7 | 0.00 | 0.30 | 0.00 | 75 | 1012.1 |
| 20260507004328 | 18 | 198 | 12.9 | 17.7 | 0.00 | 0.30 | 0.00 | 75 | 1012.1 |
| 20260507004239 | 18 | 186 | 11.3 | 16.1 | 0.00 | 0.30 | 0.00 | 75 | 1012.1 |
| 20260507004133 | 18 | 186 | 11.3 | 16.1 | 0.00 | 0.30 | 0.00 | 75 | 1012.1 |
| 20260507004021 | 18 | 196 | 12.9 | 16.1 | 0.00 | 0.30 | 0.00 | 75 | 1012.1 |
| 20260507003917 | 18 | 190 | 11.3 | 14.5 | 0.00 | 0.30 | 0.00 | 75 | 1012.1 |
| 20260507003850 | 18 | 182 | 9.7 | 14.5 | 0.00 | 0.30 | 0.00 | 75 | 1012.1 |
| 20260507003757 | 18 | 194 | 8.0 | 14.5 | 0.00 | 0.30 | 0.00 | 75 | 1012.0 |
| 20260507003629 | 18 | 205 | 8.0 | 14.5 | 0.00 | 0.30 | 0.00 | 75 | 1012.0 |
| 20260507003523 | 18 | 194 | 11.3 | 14.5 | 0.00 | 0.30 | 0.00 | 75 | 1012.1 |
| 20260507003432 | 18 | 208 | 9.7 | 14.5 | 0.00 | 0.30 | 0.00 | 75 | 1012.1 |
| 20260507003338 | 18 | 183 | 11.3 | 14.5 | 0.00 | 0.30 | 0.00 | 75 | 1012.1 |
| 20260507003219 | 18 | 186 | 9.7 | 17.7 | 0.00 | 0.30 | 0.00 | 75 | 1012.1 |
| 20260507003134 | 18 | 207 | 9.7 | 17.7 | 0.00 | 0.30 | 0.00 | 75 | 1012.1 |
| 20260507003039 | 18 | 183 | 11.3 | 17.7 | 0.00 | 0.30 | 0.00 | 75 | 1012.1 |
| 20260507002947 | 18 | 197 | 11.3 | 17.7 | 0.00 | 0.30 | 0.00 | 75 | 1012.1 |
| 20260507002838 | 18 | 204 | 9.7 | 17.7 | 0.00 | 0.30 | 0.00 | 75 | 1012.1 |
| 20260507002733 | 18 | 201 | 11.3 | 17.7 | 0.00 | 0.30 | 0.00 | 75 | 1012.1 |
| 20260507002639 | 18 | 196 | 12.9 | 17.7 | 0.00 | 0.30 | 0.00 | 75 | 1012.0 |
| 20260507002547 | 18 | 213 | 12.9 | 17.7 | 0.00 | 0.30 | 0.00 | 74 | 1012.0 |
| 20260507002509 | 18 | 192 | 12.9 | 17.7 | 0.00 | 0.30 | 0.00 | 74 | 1012.1 |
| 20260507002440 | 18 | 190 | 12.9 | 17.7 | 0.00 | 0.30 | 0.00 | 74 | 1012.1 |
| 20260507002236 | 18 | 193 | 11.3 | 19.3 | 0.00 | 0.30 | 0.00 | 74 | 1012.1 |
| 20260507002134 | 18 | 186 | 11.3 | 19.3 | 0.00 | 0.30 | 0.00 | 74 | 1012.0 |
| 20260507002038 | 18 | 189 | 9.7 | 19.3 | 0.00 | 0.30 | 0.00 | 74 | 1012.0 |
| 20260507001932 | 18 | 198 | 9.7 | 19.3 | 0.00 | 0.30 | 0.00 | 74 | 1012.0 |
| 20260507001839 | 18 | 195 | 9.7 | 19.3 | 0.00 | 0.30 | 0.00 | 74 | 1012.0 |
| 20260507001737 | 18 | 207 | 9.7 | 19.3 | 0.00 | 0.30 | 0.00 | 74 | 1012.0 |
| 20260507001627 | 18 | 173 | 12.9 | 19.3 | 0.00 | 0.30 | 0.00 | 74 | 1012.0 |
| 20260507001519 | 18 | 191 | 12.9 | 19.3 | 0.00 | 0.30 | 0.00 | 74 | 1012.0 |
| 20260507001447 | 18 | 184 | 14.5 | 19.3 | 0.00 | 0.30 | 0.00 | 74 | 1012.0 |
| 20260507001340 | 18 | 195 | 12.9 | 22.5 | 0.00 | 0.30 | 0.00 | 74 | 1012.0 |
| 20260507001252 | 18 | 194 | 11.3 | 22.5 | 0.00 | 0.30 | 0.00 | 74 | 1012.0 |
| 20260507001127 | 18 | 177 | 11.3 | 22.5 | 0.00 | 0.30 | 0.00 | 74 | 1012.0 |
| 20260507001035 | 18 | 191 | 11.3 | 22.5 | 0.00 | 0.30 | 0.00 | 74 | 1012.1 |
| 20260507000937 | 18 | 186 | 12.9 | 22.5 | 0.00 | 0.30 | 0.00 | 74 | 1012.1 |
| 20260507000845 | 18 | 179 | 14.5 | 22.5 | 0.00 | 0.30 | 0.00 | 74 | 1012.1 |
| 20260507000721 | 18 | 198 | 14.5 | 22.5 | 0.00 | 0.30 | 0.00 | 74 | 1012.0 |
| 20260507000649 | 18 | 199 | 16.1 | 22.5 | 0.00 | 0.30 | 0.00 | 74 | 1012.0 |
| 20260507000539 | 18 | 199 | 17.7 | 22.5 | 0.00 | 0.30 | 0.00 | 74 | 1012.1 |
| 20260507000435 | 18 | 186 | 16.1 | 22.5 | 0.00 | 0.30 | 0.00 | 74 | 1012.1 |
| 20260507000343 | 18 | 183 | 16.1 | 22.5 | 0.00 | 0.30 | 0.00 | 74 | 1012.2 |
| 20260507000239 | 18 | 216 | 16.1 | 22.5 | 0.00 | 0.30 | 0.00 | 74 | 1012.3 |
| 20260507000124 | 18 | 196 | 17.7 | 24.1 | 0.00 | 0.30 | 0.00 | 74 | 1012.2 |
| 20260507000025 | 18 | 203 | 16.1 | 24.1 | 0.00 | 0.30 | 0.00 | 74 | 1012.2 |
| 20260506235921 | 18 | 192 | 16.1 | 24.1 | 0.00 | 0.30 | 0.00 | 74 | 1012.2 |
| 20260506235832 | 18 | 181 | 16.1 | 24.1 | 0.00 | 0.30 | 0.00 | 74 | 1012.2 |
| 20260506235800 | 18 | 180 | 14.5 | 24.1 | 0.00 | 0.30 | 0.00 | 74 | 1012.3 |
| 20260506235621 | 18 | 185 | 16.1 | 24.1 | 0.00 | 0.30 | 0.00 | 74 | 1012.3 |
| 20260506235518 | 18 | 198 | 16.1 | 24.1 | 0.00 | 0.30 | 0.00 | 74 | 1012.3 |
| 20260506235430 | 18 | 202 | 16.1 | 24.1 | 0.00 | 0.30 | 0.00 | 74 | 1012.3 |
| 20260506235325 | 18 | 196 | 14.5 | 24.1 | 0.00 | 0.30 | 0.00 | 73 | 1012.3 |
| 20260506235256 | 18 | 200 | 14.5 | 20.9 | 0.00 | 0.30 | 0.00 | 73 | 1012.5 |
| 20260506235129 | 18 | 192 | 17.7 | 20.9 | 0.00 | 0.30 | 0.00 | 73 | 1012.4 |
| 20260506235054 | 18 | 205 | 16.1 | 20.9 | 0.00 | 0.30 | 0.00 | 73 | 1012.4 |
| 20260506234929 | 18 | 209 | 12.9 | 20.9 | 0.00 | 0.30 | 0.00 | 73 | 1012.4 |
| 20260506234821 | 18 | 201 | 14.5 | 19.3 | 0.00 | 0.30 | 0.00 | 73 | 1012.4 |
| 20260506234739 | 18 | 223 | 14.5 | 19.3 | 0.00 | 0.30 | 0.00 | 73 | 1012.4 |
| 20260506234709 | 18 | 197 | 14.5 | 17.7 | 0.00 | 0.30 | 0.00 | 73 | 1012.3 |
| 20260506234639 | 18 | 190 | 12.9 | 17.7 | 0.00 | 0.30 | 0.00 | 73 | 1012.3 |
| 20260506234424 | 18 | 191 | 11.3 | 17.7 | 0.00 | 0.30 | 0.00 | 73 | 1012.3 |
| 20260506234355 | 18 | 215 | 11.3 | 17.7 | 0.00 | 0.30 | 0.00 | 73 | 1012.3 |
| 20260506234227 | 18 | 196 | 11.3 | 17.7 | 0.00 | 0.30 | 0.00 | 73 | 1012.3 |
| 20260506234155 | 18 | 193 | 11.3 | 17.7 | 0.00 | 0.30 | 0.00 | 73 | 1012.3 |
| 20260506234043 | 18 | 178 | 11.3 | 17.7 | 0.00 | 0.30 | 0.00 | 73 | 1012.2 |
| 20260506233939 | 18 | 190 | 11.3 | 17.7 | 0.00 | 0.30 | 0.00 | 73 | 1012.3 |
| 20260506233846 | 18 | 188 | 11.3 | 14.5 | 0.00 | 0.30 | 0.00 | 73 | 1012.3 |
| 20260506233722 | 18 | 180 | 11.3 | 14.5 | 0.00 | 0.30 | 0.00 | 73 | 1012.3 |
| 20260506233652 | 18 | 178 | 9.7 | 14.5 | 0.00 | 0.30 | 0.00 | 73 | 1012.3 |
| 20260506233522 | 18 | 184 | 8.0 | 11.3 | 0.00 | 0.30 | 0.00 | 72 | 1012.4 |
| 20260506233450 | 18 | 175 | 8.0 | 11.3 | 0.00 | 0.30 | 0.00 | 72 | 1012.4 |
| 20260506233326 | 18 | 190 | 6.4 | 12.9 | 0.00 | 0.30 | 0.00 | 72 | 1012.4 |
| 20260506233219 | 18 | 177 | 6.4 | 12.9 | 0.00 | 0.30 | 0.00 | 72 | 1012.3 |
| 20260506233147 | 18 | 177 | 8.0 | 12.9 | 0.00 | 0.30 | 0.00 | 72 | 1012.3 |
| 20260506233022 | 18 | 179 | 6.4 | 12.9 | 0.00 | 0.30 | 0.00 | 72 | 1012.4 |
| 20260506232931 | 18 | 181 | 6.4 | 12.9 | 0.00 | 0.30 | 0.00 | 72 | 1012.4 |
| 20260506232849 | 18 | 197 | 6.4 | 16.1 | 0.00 | 0.30 | 0.00 | 72 | 1012.4 |
| 20260506232756 | 18 | 198 | 8.0 | 16.1 | 0.00 | 0.30 | 0.00 | 72 | 1012.4 |
| 20260506232646 | 18 | 182 | 8.0 | 16.1 | 0.00 | 0.30 | 0.00 | 72 | 1012.4 |
| 20260506232522 | 18 | 191 | 8.0 | 16.1 | 0.00 | 0.30 | 0.00 | 72 | 1012.4 |
| 20260506232450 | 18 | 187 | 6.4 | 16.1 | 0.00 | 0.30 | 0.00 | 72 | 1012.4 |
| 20260506232323 | 18 | 186 | 8.0 | 16.1 | 0.00 | 0.30 | 0.00 | 72 | 1012.4 |
| 20260506232221 | 18 | 185 | 8.0 | 16.1 | 0.00 | 0.30 | 0.00 | 72 | 1012.4 |
| 20260506232150 | 18 | 180 | 9.7 | 16.1 | 0.00 | 0.30 | 0.00 | 72 | 1012.4 |
| 20260506232034 | 18 | 212 | 11.3 | 16.1 | 0.00 | 0.30 | 0.00 | 72 | 1012.3 |
| 20260506231929 | 18 | 173 | 11.3 | 16.1 | 0.00 | 0.30 | 0.00 | 72 | 1012.4 |
| 20260506231841 | 18 | 198 | 9.7 | 16.1 | 0.00 | 0.30 | 0.00 | 72 | 1012.4 |
| 20260506231735 | 18 | 184 | 6.4 | 16.1 | 0.00 | 0.30 | 0.00 | 72 | 1012.4 |
| 20260506231628 | 18 | 173 | 8.0 | 16.1 | 0.00 | 0.30 | 0.00 | 72 | 1012.3 |
| 20260506231532 | 18 | 175 | 8.0 | 16.1 | 0.00 | 0.30 | 0.00 | 72 | 1012.4 |
| 20260506231442 | 18 | 186 | 8.0 | 16.1 | 0.00 | 0.30 | 0.00 | 72 | 1012.4 |
| 20260506231336 | 18 | 181 | 8.0 | 16.1 | 0.00 | 0.30 | 0.00 | 72 | 1012.3 |
| 20260506231304 | 18 | 202 | 9.7 | 16.1 | 0.00 | 0.30 | 0.00 | 72 | 1012.4 |
| 20260506231121 | 18 | 214 | 11.3 | 16.1 | 0.00 | 0.30 | 0.00 | 72 | 1012.3 |
| 20260506231047 | 18 | 231 | 9.7 | 16.1 | 0.00 | 0.30 | 0.00 | 72 | 1012.3 |
| 20260506230924 | 18 | 233 | 11.3 | 16.1 | 0.00 | 0.30 | 0.00 | 72 | 1012.4 |
| 20260506230831 | 18 | 236 | 11.3 | 16.1 | 0.00 | 0.30 | 0.00 | 72 | 1012.4 |
| 20260506230743 | 18 | 229 | 11.3 | 14.5 | 0.00 | 0.30 | 0.00 | 72 | 1012.3 |
| 20260506230631 | 18 | 250 | 9.7 | 14.5 | 0.00 | 0.30 | 0.00 | 72 | 1012.3 |
| 20260506230527 | 18 | 250 | 9.7 | 12.9 | 0.00 | 0.30 | 0.00 | 72 | 1012.4 |
| 20260506230432 | 18 | 229 | 8.0 | 11.3 | 0.00 | 0.30 | 0.00 | 72 | 1012.3 |
| 20260506230403 | 18 | 221 | 8.0 | 11.3 | 0.00 | 0.30 | 0.00 | 72 | 1012.3 |
| 20260506230242 | 18 | 215 | 6.4 | 12.9 | 0.00 | 0.30 | 0.00 | 72 | 1012.4 |
| 20260506230148 | 18 | 210 | 6.4 | 12.9 | 0.00 | 0.30 | 0.00 | 72 | 1012.3 |
| 20260506230116 | 18 | 207 | 6.4 | 12.9 | 0.00 | 0.30 | 0.00 | 72 | 1012.4 |
| 20260506230040 | 18 | 210 | 6.4 | 12.9 | 0.00 | 0.30 | 0.00 | 72 | 1012.4 |
| 20260506225843 | 18 | 204 | 8.0 | 12.9 | 0.00 | 0.51 | 0.00 | 72 | 1012.4 |
| 20260506225715 | 18 | 205 | 8.0 | 14.5 | 0.00 | 0.51 | 0.00 | 72 | 1012.3 |
| 20260506225627 | 18 | 203 | 8.0 | 14.5 | 0.00 | 0.51 | 0.00 | 72 | 1012.3 |
| 20260506225525 | 18 | 193 | 9.7 | 14.5 | 0.00 | 0.51 | 0.00 | 72 | 1012.3 |
| 20260506225455 | 18 | 211 | 8.0 | 14.5 | 0.00 | 0.51 | 0.00 | 72 | 1012.3 |
| 20260506225327 | 18 | 196 | 8.0 | 16.1 | 0.00 | 0.51 | 0.00 | 72 | 1012.3 |
| 20260506225236 | 18 | 218 | 9.7 | 16.1 | 0.00 | 0.51 | 0.00 | 72 | 1012.3 |
| 20260506225134 | 18 | 211 | 9.7 | 17.7 | 0.00 | 0.51 | 0.00 | 72 | 1012.4 |
| 20260506225035 | 18 | 201 | 9.7 | 17.7 | 0.00 | 0.51 | 0.00 | 72 | 1012.3 |
| 20260506224959 | 18 | 203 | 9.7 | 17.7 | 0.00 | 0.51 | 0.00 | 72 | 1012.3 |
| 20260506224846 | 18 | 213 | 9.7 | 17.7 | 0.00 | 0.51 | 0.00 | 71 | 1012.3 |
| 20260506224727 | 18 | 203 | 9.7 | 17.7 | 0.00 | 0.51 | 0.00 | 71 | 1012.4 |
| 20260506224655 | 18 | 192 | 9.7 | 17.7 | 0.00 | 0.51 | 0.00 | 71 | 1012.3 |
| 20260506224546 | 18 | 191 | 11.3 | 17.7 | 0.00 | 0.51 | 0.00 | 71 | 1012.3 |
| 20260506224418 | 18 | 193 | 12.9 | 17.7 | 0.00 | 0.51 | 0.00 | 71 | 1012.3 |
| 20260506224329 | 18 | 209 | 11.3 | 17.7 | 0.00 | 0.51 | 0.00 | 71 | 1012.3 |
| 20260506224221 | 18 | 183 | 9.7 | 16.1 | 0.00 | 0.51 | 0.00 | 71 | 1012.3 |
| 20260506224028 | 18 | 167 | 8.0 | 9.7 | 0.00 | 0.51 | 0.00 | 71 | 1012.3 |
| 20260506223954 | 18 | 173 | 6.4 | 9.7 | 0.00 | 0.51 | 0.00 | 71 | 1012.3 |
| 20260506223922 | 18 | 160 | 6.4 | 9.7 | 0.00 | 0.51 | 0.00 | 71 | 1012.3 |
| 20260506223725 | 18 | 180 | 6.4 | 9.7 | 0.00 | 0.51 | 0.00 | 70 | 1012.3 |
| 20260506223622 | 18 | 189 | 4.8 | 9.7 | 0.00 | 0.51 | 0.00 | 70 | 1012.3 |
| 20260506223531 | 18 | 181 | 6.4 | 9.7 | 0.00 | 0.51 | 0.00 | 70 | 1012.3 |
| 20260506223428 | 18 | 184 | 6.4 | 9.7 | 0.00 | 0.51 | 0.00 | 70 | 1012.4 |
| 20260506223336 | 18 | 196 | 6.4 | 9.7 | 0.00 | 0.51 | 0.00 | 70 | 1012.4 |
| 20260506223216 | 18 | 183 | 6.4 | 9.7 | 0.00 | 0.51 | 0.00 | 70 | 1012.4 |
| 20260506223149 | 18 | 167 | 6.4 | 9.7 | 0.00 | 0.51 | 0.00 | 70 | 1012.4 |
| 20260506223038 | 18 | 180 | 8.0 | 9.7 | 0.00 | 0.51 | 0.00 | 70 | 1012.4 |
| 20260506222932 | 18 | 173 | 6.4 | 11.3 | 0.00 | 0.51 | 0.00 | 70 | 1012.4 |
| 20260506222842 | 18 | 179 | 6.4 | 11.3 | 0.00 | 0.51 | 0.00 | 70 | 1012.4 |
| 20260506222737 | 19 | 188 | 6.4 | 11.3 | 0.00 | 0.51 | 0.00 | 69 | 1012.5 |
| 20260506222617 | 19 | 177 | 4.8 | 12.9 | 0.00 | 0.51 | 0.00 | 69 | 1012.5 |
| 20260506222529 | 19 | 193 | 4.8 | 12.9 | 0.00 | 0.51 | 0.00 | 69 | 1012.5 |
| 20260506222455 | 19 | 205 | 6.4 | 12.9 | 0.00 | 0.51 | 0.00 | 69 | 1012.5 |
| 20260506222329 | 19 | 224 | 8.0 | 12.9 | 0.00 | 0.51 | 0.00 | 69 | 1012.5 |
| 20260506222257 | 19 | 200 | 8.0 | 12.9 | 0.00 | 0.51 | 0.00 | 69 | 1012.6 |
| 20260506222133 | 19 | 196 | 8.0 | 12.9 | 0.00 | 0.51 | 0.00 | 69 | 1012.6 |
| 20260506222041 | 19 | 215 | 9.7 | 17.7 | 0.00 | 0.51 | 0.00 | 69 | 1012.5 |
| 20260506221919 | 19 | 229 | 9.7 | 17.7 | 0.00 | 0.51 | 0.00 | 69 | 1012.5 |
| 20260506221828 | 19 | 225 | 9.7 | 17.7 | 0.00 | 0.51 | 0.00 | 69 | 1012.5 |
| 20260506221744 | 19 | 223 | 9.7 | 17.7 | 0.00 | 0.51 | 0.00 | 69 | 1012.5 |
| 20260506221630 | 19 | 244 | 8.0 | 17.7 | 0.00 | 0.51 | 0.00 | 69 | 1012.5 |
| 20260506221534 | 19 | 229 | 9.7 | 17.7 | 0.00 | 0.51 | 0.00 | 69 | 1012.5 |
| 20260506221431 | 19 | 220 | 9.7 | 17.7 | 0.00 | 0.51 | 0.00 | 69 | 1012.5 |
| 20260506221401 | 19 | 236 | 11.3 | 19.3 | 0.00 | 0.51 | 0.00 | 69 | 1012.4 |
| 20260506221247 | 19 | 211 | 12.9 | 19.3 | 0.00 | 0.51 | 0.00 | 69 | 1012.5 |
| 20260506221123 | 19 | 226 | 11.3 | 19.3 | 0.00 | 0.51 | 0.00 | 69 | 1012.5 |
| 20260506221018 | 19 | 238 | 11.3 | 19.3 | 0.00 | 0.51 | 0.00 | 69 | 1012.5 |
| 20260506220929 | 19 | 213 | 9.7 | 19.3 | 0.00 | 0.51 | 0.00 | 69 | 1012.5 |
| 20260506220857 | 19 | 228 | 11.3 | 19.3 | 0.00 | 0.51 | 0.00 | 69 | 1012.5 |
| 20260506220729 | 19 | 252 | 12.9 | 19.3 | 0.00 | 0.51 | 0.00 | 69 | 1012.5 |
| 20260506220622 | 19 | 216 | 14.5 | 19.3 | 0.00 | 0.51 | 0.00 | 69 | 1012.5 |
| 20260506220533 | 19 | 240 | 14.5 | 19.3 | 0.00 | 0.51 | 0.00 | 69 | 1012.5 |
| 20260506220459 | 19 | 219 | 12.9 | 19.3 | 0.00 | 0.51 | 0.00 | 69 | 1012.5 |
| 20260506220338 | 19 | 215 | 12.9 | 19.3 | 0.00 | 0.51 | 0.00 | 69 | 1012.5 |
| 20260506220235 | 19 | 217 | 11.3 | 19.3 | 0.00 | 0.51 | 0.00 | 69 | 1012.4 |
| 20260506220143 | 19 | 211 | 11.3 | 19.3 | 0.00 | 0.51 | 0.00 | 69 | 1012.5 |
| 20260506220113 | 19 | 186 | 11.3 | 19.3 | 0.00 | 0.51 | 0.00 | 69 | 1012.5 |
| 20260506215948 | 19 | 216 | 12.9 | 19.3 | 0.00 | 1.09 | 0.13 | 69 | 1012.4 |
| 20260506215841 | 19 | 194 | 12.9 | 19.3 | 0.00 | 1.09 | 0.13 | 69 | 1012.5 |
| 20260506215809 | 19 | 231 | 12.9 | 19.3 | 0.00 | 1.09 | 0.13 | 69 | 1012.5 |
| 20260506215636 | 19 | 198 | 11.3 | 19.3 | 0.00 | 1.09 | 0.13 | 69 | 1012.5 |
| 20260506215544 | 19 | 198 | 12.9 | 22.5 | 0.00 | 1.09 | 0.13 | 69 | 1012.5 |
| 20260506215419 | 19 | 215 | 12.9 | 22.5 | 0.00 | 1.09 | 0.13 | 69 | 1012.5 |
| 20260506215348 | 19 | 213 | 12.9 | 22.5 | 0.00 | 1.09 | 0.13 | 69 | 1012.5 |
| 20260506215222 | 19 | 214 | 11.3 | 22.5 | 0.00 | 1.09 | 0.13 | 69 | 1012.5 |
| 20260506215131 | 19 | 209 | 14.5 | 22.5 | 0.00 | 1.09 | 0.13 | 68 | 1012.5 |
| 20260506215042 | 19 | 225 | 14.5 | 22.5 | 0.00 | 1.09 | 0.13 | 69 | 1012.5 |
| 20260506214952 | 19 | 205 | 14.5 | 22.5 | 0.00 | 1.09 | 0.13 | 69 | 1012.5 |
| 20260506214838 | 19 | 215 | 14.5 | 22.5 | 0.00 | 1.09 | 0.13 | 69 | 1012.5 |
| 20260506214735 | 19 | 208 | 14.5 | 20.9 | 0.00 | 1.09 | 0.13 | 69 | 1012.5 |
| 20260506214642 | 19 | 231 | 16.1 | 20.9 | 0.00 | 1.09 | 0.13 | 69 | 1012.5 |
| 20260506214554 | 19 | 231 | 14.5 | 20.9 | 0.00 | 1.09 | 0.13 | 69 | 1012.5 |
| 20260506214441 | 19 | 240 | 14.5 | 20.9 | 0.00 | 1.09 | 0.13 | 69 | 1012.5 |
| 20260506214330 | 19 | 240 | 12.9 | 20.9 | 0.00 | 1.09 | 0.13 | 69 | 1012.5 |
| 20260506214300 | 19 | 232 | 12.9 | 20.9 | 0.00 | 1.09 | 0.13 | 69 | 1012.5 |
| 20260506214134 | 19 | 229 | 11.3 | 20.9 | 0.00 | 1.09 | 0.13 | 69 | 1012.5 |
| 20260506214026 | 19 | 205 | 11.3 | 20.9 | 0.00 | 1.09 | 0.13 | 69 | 1012.5 |
| 20260506213923 | 19 | 213 | 12.9 | 20.9 | 0.00 | 1.09 | 0.13 | 69 | 1012.5 |
| 20260506213853 | 19 | 221 | 14.5 | 20.9 | 0.00 | 1.09 | 0.13 | 69 | 1012.5 |
| 20260506213729 | 19 | 204 | 12.9 | 20.9 | 0.00 | 1.09 | 0.13 | 69 | 1012.5 |
| 20260506213640 | 19 | 206 | 14.5 | 20.9 | 0.00 | 1.09 | 0.13 | 69 | 1012.4 |
| 20260506213531 | 19 | 181 | 16.1 | 20.9 | 0.00 | 1.09 | 0.13 | 69 | 1012.5 |
| 20260506213458 | 19 | 220 | 12.9 | 20.9 | 0.00 | 1.09 | 0.13 | 69 | 1012.4 |
| 20260506213329 | 19 | 210 | 12.9 | 20.9 | 0.00 | 1.09 | 0.13 | 69 | 1012.5 |
| 20260506213216 | 19 | 188 | 14.5 | 20.9 | 0.00 | 1.09 | 0.13 | 69 | 1012.4 |
| 20260506213137 | 19 | 225 | 14.5 | 20.9 | 0.00 | 1.09 | 0.13 | 69 | 1012.4 |
| 20260506213040 | 19 | 225 | 14.5 | 20.9 | 0.00 | 1.09 | 0.13 | 69 | 1012.4 |
| 20260506212946 | 19 | 232 | 12.9 | 29.0 | 0.00 | 1.09 | 0.13 | 69 | 1012.4 |
| 20260506212818 | 19 | 207 | 11.3 | 29.0 | 0.00 | 1.09 | 0.13 | 69 | 1012.5 |
| 20260506212729 | 19 | 215 | 12.9 | 29.0 | 0.00 | 1.09 | 0.13 | 69 | 1012.5 |
| 20260506212659 | 19 | 225 | 14.5 | 29.0 | 0.00 | 1.09 | 0.13 | 68 | 1012.5 |
| 20260506212536 | 19 | 221 | 16.1 | 29.0 | 0.00 | 1.09 | 0.13 | 68 | 1012.5 |
| 20260506212420 | 19 | 211 | 14.5 | 29.0 | 0.00 | 1.09 | 0.13 | 68 | 1012.4 |
| 20260506212327 | 19 | 209 | 12.9 | 29.0 | 0.00 | 1.09 | 0.13 | 68 | 1012.4 |
| 20260506212219 | 19 | 198 | 17.7 | 29.0 | 0.00 | 1.09 | 0.13 | 68 | 1012.4 |
| 20260506212150 | 19 | 208 | 17.7 | 29.0 | 0.00 | 1.09 | 0.13 | 68 | 1012.4 |
| 20260506212022 | 19 | 223 | 14.5 | 25.7 | 0.00 | 1.09 | 0.13 | 68 | 1012.4 |
| 20260506211922 | 19 | 192 | 16.1 | 25.7 | 0.00 | 1.09 | 0.13 | 68 | 1012.4 |
| 20260506211849 | 19 | 186 | 16.1 | 25.7 | 0.00 | 1.09 | 0.13 | 68 | 1012.4 |
| 20260506211740 | 19 | 186 | 16.1 | 25.7 | 0.00 | 1.09 | 0.13 | 68 | 1012.5 |
| 20260506211637 | 19 | 221 | 14.5 | 25.7 | 0.00 | 1.09 | 0.13 | 68 | 1012.5 |
| 20260506211541 | 19 | 188 | 11.3 | 25.7 | 0.00 | 1.09 | 0.13 | 68 | 1012.5 |
| 20260506211437 | 19 | 200 | 14.5 | 25.7 | 0.00 | 1.09 | 0.13 | 68 | 1012.5 |
| 20260506211346 | 19 | 200 | 14.5 | 25.7 | 0.00 | 1.09 | 0.13 | 68 | 1012.5 |
| 20260506211220 | 19 | 211 | 12.9 | 22.5 | 0.00 | 1.09 | 0.13 | 68 | 1012.5 |
| 20260506211148 | 19 | 209 | 12.9 | 22.5 | 0.00 | 1.09 | 0.13 | 67 | 1012.5 |
| 20260506211026 | 19 | 215 | 14.5 | 22.5 | 0.00 | 1.09 | 0.13 | 67 | 1012.5 |
| 20260506210919 | 19 | 202 | 14.5 | 29.0 | 0.00 | 1.09 | 0.13 | 67 | 1012.4 |
| 20260506210846 | 19 | 221 | 12.9 | 29.0 | 0.00 | 1.09 | 0.13 | 67 | 1012.4 |
| 20260506210719 | 19 | 226 | 14.5 | 29.0 | 0.00 | 1.09 | 0.13 | 67 | 1012.4 |
| 20260506210627 | 19 | 234 | 14.5 | 29.0 | 0.00 | 1.09 | 0.13 | 67 | 1012.4 |
| 20260506210554 | 19 | 232 | 16.1 | 38.6 | 0.00 | 1.09 | 0.13 | 67 | 1012.4 |
| 20260506210449 | 19 | 238 | 16.1 | 38.6 | 0.00 | 1.09 | 0.13 | 67 | 1012.3 |
| 20260506210319 | 19 | 201 | 17.7 | 38.6 | 0.00 | 1.09 | 0.13 | 67 | 1012.3 |
| 20260506210238 | 19 | 223 | 19.3 | 38.6 | 0.00 | 1.09 | 0.13 | 67 | 1012.3 |
| 20260506210148 | 19 | 221 | 20.9 | 38.6 | 0.00 | 1.09 | 0.13 | 67 | 1012.3 |
| 20260506210045 | 19 | 230 | 20.9 | 38.6 | 0.00 | 1.09 | 0.13 | 67 | 1012.3 |
| 20260506205939 | 19 | 219 | 19.3 | 38.6 | 0.00 | 2.31 | 0.13 | 67 | 1012.3 |
| 20260506205833 | 19 | 210 | 22.5 | 38.6 | 0.00 | 2.31 | 0.13 | 67 | 1012.3 |
| 20260506205741 | 19 | 244 | 24.1 | 38.6 | 0.00 | 2.31 | 0.13 | 67 | 1012.2 |
| 20260506205619 | 19 | 182 | 22.5 | 37.0 | 0.00 | 2.31 | 0.13 | 67 | 1012.3 |
| 20260506205519 | 19 | 211 | 22.5 | 37.0 | 0.00 | 2.31 | 0.13 | 67 | 1012.3 |
| 20260506205427 | 19 | 190 | 24.1 | 37.0 | 0.00 | 2.31 | 0.13 | 67 | 1012.3 |
| 20260506205333 | 19 | 219 | 22.5 | 37.0 | 0.00 | 2.31 | 0.13 | 67 | 1012.2 |
| 20260506205227 | 19 | 205 | 24.1 | 37.0 | 0.00 | 2.31 | 0.13 | 67 | 1012.3 |
| 20260506205154 | 19 | 229 | 25.7 | 38.6 | 0.00 | 2.31 | 0.13 | 67 | 1012.2 |
| 20260506205036 | 19 | 217 | 24.1 | 38.6 | 0.00 | 2.31 | 0.13 | 67 | 1012.3 |
| 20260506204936 | 19 | 224 | 24.1 | 38.6 | 0.00 | 2.31 | 0.13 | 67 | 1012.4 |
| 20260506204834 | 19 | 217 | 24.1 | 38.6 | 0.00 | 2.31 | 0.13 | 67 | 1012.3 |
| 20260506204722 | 19 | 223 | 22.5 | 38.6 | 0.00 | 2.31 | 0.13 | 67 | 1012.3 |
| 20260506204636 | 19 | 195 | 22.5 | 38.6 | 0.00 | 2.31 | 0.13 | 67 | 1012.3 |
| 20260506204603 | 19 | 241 | 22.5 | 38.6 | 0.00 | 2.31 | 0.13 | 67 | 1012.3 |
| 20260506204529 | 19 | 221 | 22.5 | 38.6 | 0.00 | 2.31 | 0.13 | 67 | 1012.3 |
| 20260506204408 | 19 | 187 | 27.4 | 38.6 | 0.00 | 2.31 | 0.13 | 67 | 1012.3 |
| 20260506204241 | 19 | 213 | 24.1 | 33.8 | 0.00 | 2.31 | 0.13 | 68 | 1012.3 |
| 20260506204208 | 19 | 198 | 20.9 | 33.8 | 0.00 | 2.31 | 0.13 | 68 | 1012.2 |
| 20260506204020 | 19 | 210 | 17.7 | 33.8 | 0.00 | 2.31 | 0.13 | 68 | 1012.2 |
| 20260506203932 | 19 | 227 | 19.3 | 33.8 | 0.00 | 2.31 | 0.13 | 68 | 1012.2 |
| 20260506203833 | 19 | 249 | 22.5 | 33.8 | 0.00 | 2.31 | 0.13 | 67 | 1012.2 |
| 20260506203739 | 19 | 232 | 22.5 | 32.2 | 0.00 | 2.31 | 0.13 | 68 | 1012.2 |
| 20260506203637 | 19 | 187 | 17.7 | 32.2 | 0.00 | 2.31 | 0.13 | 68 | 1012.2 |
| 20260506203541 | 19 | 222 | 19.3 | 32.2 | 0.00 | 2.31 | 0.13 | 68 | 1012.2 |
| 20260506203438 | 19 | 223 | 20.9 | 32.2 | 0.00 | 2.31 | 0.13 | 68 | 1012.2 |
| 20260506203319 | 19 | 217 | 22.5 | 37.0 | 0.00 | 2.31 | 0.13 | 68 | 1012.1 |
| 20260506203228 | 19 | 223 | 19.3 | 37.0 | 0.00 | 2.31 | 0.13 | 68 | 1012.1 |
| 20260506203155 | 19 | 231 | 19.3 | 37.0 | 0.00 | 2.31 | 0.13 | 68 | 1012.2 |
| 20260506203046 | 19 | 214 | 16.1 | 37.0 | 0.00 | 2.31 | 0.13 | 68 | 1012.1 |
| 20260506202919 | 19 | 217 | 17.7 | 37.0 | 0.00 | 2.31 | 0.13 | 68 | 1012.0 |
| 20260506202829 | 19 | 190 | 20.9 | 37.0 | 0.00 | 2.31 | 0.13 | 68 | 1012.0 |
| 20260506202722 | 19 | 242 | 24.1 | 37.0 | 0.00 | 2.31 | 0.13 | 68 | 1011.9 |
| 20260506202638 | 19 | 197 | 27.4 | 37.0 | 0.00 | 2.31 | 0.13 | 68 | 1011.9 |
| 20260506202534 | 19 | 213 | 24.1 | 37.0 | 0.00 | 2.31 | 0.13 | 68 | 1011.9 |
| 20260506202443 | 19 | 202 | 19.3 | 32.2 | 0.00 | 2.31 | 0.13 | 68 | 1012.0 |
| 20260506202321 | 19 | 197 | 17.7 | 30.6 | 0.00 | 2.31 | 0.13 | 68 | 1011.9 |
| 20260506202226 | 19 | 213 | 19.3 | 30.6 | 0.00 | 2.31 | 0.13 | 68 | 1012.0 |
| 20260506202119 | 19 | 211 | 19.3 | 30.6 | 0.00 | 2.31 | 0.13 | 68 | 1011.9 |
| 20260506202048 | 19 | 214 | 17.7 | 30.6 | 0.00 | 2.31 | 0.13 | 68 | 1011.9 |
| 20260506201953 | 19 | 192 | 17.7 | 30.6 | 0.00 | 2.31 | 0.13 | 68 | 1012.0 |
| 20260506201834 | 19 | 191 | 16.1 | 30.6 | 0.00 | 2.31 | 0.13 | 68 | 1011.9 |
| 20260506201804 | 19 | 203 | 14.5 | 29.0 | 0.00 | 2.31 | 0.13 | 68 | 1011.9 |
| 20260506201716 | 19 | 177 | 14.5 | 29.0 | 0.00 | 2.31 | 0.13 | 68 | 1011.9 |
| 20260506201525 | 19 | 221 | 16.1 | 29.0 | 0.00 | 2.31 | 0.13 | 68 | 1012.0 |
| 20260506201420 | 19 | 180 | 12.9 | 22.5 | 0.00 | 2.31 | 0.13 | 68 | 1011.9 |
| 20260506201349 | 19 | 195 | 14.5 | 22.5 | 0.00 | 2.31 | 0.13 | 68 | 1011.9 |
| 20260506201316 | 19 | 177 | 14.5 | 22.5 | 0.00 | 2.31 | 0.13 | 68 | 1012.0 |
| 20260506201242 | 19 | 212 | 14.5 | 24.1 | 0.00 | 2.31 | 0.13 | 68 | 1012.0 |
| 20260506201022 | 19 | 208 | 14.5 | 24.1 | 0.00 | 2.31 | 0.13 | 68 | 1011.9 |
| 20260506200935 | 19 | 191 | 12.9 | 24.1 | 0.00 | 2.31 | 0.13 | 68 | 1011.9 |
| 20260506200830 | 19 | 192 | 14.5 | 24.1 | 0.00 | 2.31 | 0.13 | 68 | 1012.0 |
| 20260506200736 | 19 | 242 | 16.1 | 24.1 | 0.00 | 2.31 | 0.13 | 68 | 1012.0 |
| 20260506200705 | 19 | 203 | 17.7 | 24.1 | 0.00 | 2.31 | 0.13 | 68 | 1012.0 |
| 20260506200538 | 20 | 166 | 16.1 | 24.1 | 0.00 | 2.31 | 0.13 | 68 | 1012.0 |
| 20260506200445 | 20 | 192 | 12.9 | 24.1 | 0.00 | 2.31 | 0.13 | 68 | 1012.0 |
| 20260506200319 | 20 | 173 | 9.7 | 20.9 | 0.00 | 2.31 | 0.13 | 68 | 1012.0 |
| 20260506200219 | 20 | 196 | 9.7 | 19.3 | 0.00 | 2.31 | 0.13 | 68 | 1012.0 |
| 20260506200131 | 20 | 210 | 12.9 | 19.3 | 0.00 | 2.31 | 0.13 | 68 | 1012.0 |
| 20260506200024 | 20 | 203 | 11.3 | 19.3 | 0.00 | 2.31 | 0.13 | 68 | 1011.9 |
| 20260506195933 | 20 | 217 | 9.7 | 17.7 | 0.00 | 3.20 | 0.13 | 68 | 1012.0 |
| 20260506195827 | 20 | 221 | 9.7 | 17.7 | 0.00 | 3.20 | 0.13 | 68 | 1012.0 |
| 20260506195734 | 20 | 221 | 12.9 | 17.7 | 0.00 | 3.20 | 0.13 | 68 | 1012.0 |
| 20260506195650 | 20 | 217 | 12.9 | 17.7 | 0.00 | 3.20 | 0.13 | 68 | 1012.0 |
| 20260506195539 | 20 | 211 | 11.3 | 17.7 | 0.00 | 3.20 | 0.13 | 68 | 1012.0 |
| 20260506195448 | 20 | 192 | 11.3 | 17.7 | 0.00 | 3.20 | 0.13 | 68 | 1012.0 |
| 20260506195342 | 20 | 242 | 11.3 | 20.9 | 0.00 | 3.20 | 0.13 | 68 | 1012.0 |
| 20260506195250 | 20 | 209 | 9.7 | 20.9 | 0.00 | 3.20 | 0.13 | 68 | 1012.0 |
| 20260506195157 | 20 | 188 | 11.3 | 20.9 | 0.00 | 3.20 | 0.13 | 68 | 1012.0 |
| 20260506195107 | 20 | 186 | 11.3 | 20.9 | 0.00 | 3.20 | 0.13 | 68 | 1011.9 |
| 20260506194920 | 20 | 198 | 8.0 | 20.9 | 0.00 | 3.20 | 0.13 | 68 | 1011.9 |
| 20260506194835 | 20 | 248 | 8.0 | 20.9 | 0.00 | 3.20 | 0.13 | 68 | 1011.9 |
| 20260506194746 | 20 | 194 | 6.4 | 22.5 | 0.00 | 3.20 | 0.13 | 68 | 1011.9 |
| 20260506194622 | 20 | 207 | 9.7 | 25.7 | 0.00 | 3.20 | 0.13 | 68 | 1011.8 |
| 20260506194530 | 20 | 227 | 11.3 | 29.0 | 0.00 | 3.20 | 0.13 | 68 | 1011.8 |
| 20260506194443 | 20 | 184 | 11.3 | 29.0 | 0.00 | 3.20 | 0.13 | 68 | 1011.8 |
| 20260506194332 | 20 | 210 | 9.7 | 29.0 | 0.00 | 3.20 | 0.13 | 68 | 1011.8 |
| 20260506194243 | 20 | 202 | 11.3 | 29.0 | 0.00 | 3.20 | 0.13 | 68 | 1011.8 |
| 20260506194142 | 20 | 204 | 14.5 | 29.0 | 0.00 | 3.20 | 0.13 | 68 | 1011.8 |
| 20260506194030 | 20 | 196 | 16.1 | 29.0 | 0.00 | 3.20 | 0.13 | 68 | 1011.8 |
| 20260506193927 | 20 | 225 | 17.7 | 29.0 | 0.00 | 3.20 | 0.13 | 68 | 1011.7 |
| 20260506193821 | 20 | 205 | 17.7 | 29.0 | 0.00 | 3.20 | 0.13 | 68 | 1011.7 |
| 20260506193732 | 20 | 189 | 12.9 | 29.0 | 0.00 | 3.20 | 0.13 | 68 | 1011.7 |
| 20260506193627 | 20 | 163 | 9.7 | 20.9 | 0.00 | 3.20 | 0.13 | 68 | 1011.7 |
| 20260506193559 | 20 | 195 | 9.7 | 20.9 | 0.00 | 3.20 | 0.13 | 68 | 1011.7 |
| 20260506193434 | 20 | 175 | 12.9 | 24.1 | 0.00 | 3.20 | 0.13 | 68 | 1011.6 |
| 20260506193343 | 20 | 180 | 12.9 | 24.1 | 0.00 | 3.20 | 0.13 | 68 | 1011.6 |
| 20260506193250 | 20 | 171 | 11.3 | 24.1 | 0.00 | 3.20 | 0.13 | 68 | 1011.6 |
| 20260506193128 | 20 | 182 | 12.9 | 24.1 | 0.00 | 3.20 | 0.13 | 68 | 1011.6 |
| 20260506193053 | 20 | 174 | 12.9 | 24.1 | 0.00 | 3.20 | 0.13 | 68 | 1011.6 |
| 20260506192945 | 20 | 155 | 11.3 | 29.0 | 0.00 | 3.20 | 0.13 | 68 | 1011.6 |
| 20260506192820 | 20 | 185 | 12.9 | 29.0 | 0.00 | 3.20 | 0.13 | 68 | 1011.6 |
| 20260506192728 | 20 | 169 | 12.9 | 33.8 | 0.00 | 3.20 | 0.13 | 68 | 1011.6 |
| 20260506192622 | 20 | 178 | 12.9 | 33.8 | 0.00 | 3.20 | 0.13 | 67 | 1011.6 |
| 20260506192551 | 20 | 188 | 12.9 | 33.8 | 0.00 | 3.20 | 0.13 | 67 | 1011.6 |
| 20260506192428 | 20 | 165 | 16.1 | 33.8 | 0.00 | 3.20 | 0.13 | 67 | 1011.6 |
| 20260506192335 | 20 | 196 | 14.5 | 33.8 | 0.00 | 3.20 | 0.13 | 67 | 1011.5 |
| 20260506192229 | 20 | 188 | 16.1 | 33.8 | 0.00 | 3.20 | 0.13 | 67 | 1011.5 |
| 20260506192138 | 20 | 176 | 17.7 | 33.8 | 0.00 | 3.20 | 0.13 | 67 | 1011.5 |
| 20260506192029 | 20 | 148 | 17.7 | 33.8 | 0.00 | 3.20 | 0.13 | 67 | 1011.5 |
| 20260506191919 | 20 | 182 | 16.1 | 33.8 | 0.00 | 3.20 | 0.13 | 68 | 1011.7 |
| 20260506191833 | 20 | 198 | 11.3 | 30.6 | 0.00 | 3.20 | 0.13 | 68 | 1011.7 |
| 20260506191742 | 20 | 180 | 12.9 | 30.6 | 0.00 | 3.20 | 0.13 | 68 | 1011.4 |
| 20260506191648 | 20 | 159 | 14.5 | 30.6 | 0.00 | 3.20 | 0.13 | 68 | 1011.4 |
| 20260506191521 | 20 | 212 | 14.5 | 30.6 | 0.00 | 3.20 | 0.13 | 68 | 1011.3 |
| 20260506191438 | 20 | 205 | 14.5 | 30.6 | 0.00 | 3.20 | 0.13 | 67 | 1011.3 |
| 20260506191346 | 20 | 176 | 17.7 | 30.6 | 0.00 | 3.20 | 0.13 | 67 | 1011.4 |
| 20260506191231 | 20 | 196 | 19.3 | 30.6 | 0.00 | 3.20 | 0.13 | 67 | 1011.4 |
| 20260506191158 | 20 | 193 | 17.7 | 22.5 | 0.00 | 3.20 | 0.13 | 67 | 1011.3 |
| 20260506191029 | 20 | 181 | 16.1 | 33.8 | 0.00 | 3.20 | 0.13 | 67 | 1011.3 |
| 20260506190920 | 20 | 196 | 14.5 | 33.8 | 0.00 | 3.20 | 0.13 | 67 | 1011.2 |
| 20260506190849 | 20 | 215 | 16.1 | 33.8 | 0.00 | 3.20 | 0.13 | 67 | 1011.2 |
| 20260506190721 | 20 | 184 | 16.1 | 33.8 | 0.00 | 3.20 | 0.13 | 67 | 1011.2 |
| 20260506190637 | 20 | 198 | 14.5 | 33.8 | 0.00 | 3.20 | 0.13 | 67 | 1011.2 |
| 20260506190435 | 20 | 191 | 19.3 | 33.8 | 0.00 | 3.20 | 0.13 | 67 | 1011.2 |
| 20260506190332 | 20 | 191 | 20.9 | 33.8 | 0.00 | 3.20 | 0.13 | 67 | 1011.1 |
| 20260506190239 | 20 | 195 | 20.9 | 30.6 | 0.00 | 3.20 | 0.13 | 67 | 1011.2 |
| 20260506190138 | 20 | 178 | 17.7 | 30.6 | 0.00 | 3.20 | 0.13 | 67 | 1011.1 |
| 20260506190040 | 20 | 205 | 14.5 | 29.0 | 0.00 | 3.20 | 0.13 | 67 | 1011.2 |
| 20260506185923 | 20 | 198 | 14.5 | 29.0 | 0.00 | 4.39 | 0.13 | 67 | 1011.1 |
| 20260506185816 | 20 | 179 | 16.1 | 29.0 | 0.00 | 4.39 | 0.13 | 67 | 1011.0 |
| 20260506185728 | 20 | 182 | 19.3 | 29.0 | 0.00 | 4.39 | 0.13 | 67 | 1011.0 |
| 20260506185621 | 20 | 201 | 19.3 | 29.0 | 0.00 | 4.39 | 0.13 | 67 | 1010.9 |
| 20260506185536 | 20 | 191 | 19.3 | 29.0 | 0.00 | 4.39 | 0.13 | 67 | 1010.9 |
| 20260506185503 | 20 | 189 | 16.1 | 25.7 | 0.00 | 4.39 | 0.13 | 67 | 1011.1 |
| 20260506185336 | 20 | 180 | 16.1 | 24.1 | 0.00 | 4.39 | 0.13 | 67 | 1010.9 |
| 20260506185231 | 20 | 211 | 16.1 | 24.1 | 0.00 | 4.39 | 0.13 | 67 | 1011.0 |
| 20260506185138 | 20 | 201 | 12.9 | 30.6 | 0.00 | 4.39 | 0.13 | 67 | 1011.0 |
| 20260506185035 | 20 | 175 | 12.9 | 30.6 | 0.00 | 4.39 | 0.13 | 67 | 1011.0 |
| 20260506184941 | 20 | 197 | 12.9 | 30.6 | 0.00 | 4.39 | 0.13 | 67 | 1010.9 |
| 20260506184819 | 20 | 180 | 14.5 | 30.6 | 0.00 | 4.39 | 0.13 | 67 | 1010.9 |
| 20260506184747 | 20 | 181 | 14.5 | 30.6 | 0.00 | 4.39 | 0.13 | 66 | 1010.9 |
| 20260506184621 | 20 | 210 | 14.5 | 35.4 | 0.00 | 4.39 | 0.13 | 66 | 1010.8 |
| 20260506184519 | 20 | 169 | 16.1 | 35.4 | 0.00 | 4.39 | 0.13 | 66 | 1010.8 |
| 20260506184446 | 20 | 213 | 17.7 | 35.4 | 0.00 | 4.39 | 0.13 | 66 | 1010.8 |
| 20260506184326 | 20 | 227 | 19.3 | 35.4 | 0.00 | 4.39 | 0.13 | 66 | 1010.8 |
| 20260506184222 | 20 | 182 | 17.7 | 35.4 | 0.00 | 4.39 | 0.13 | 66 | 1010.7 |
| 20260506184131 | 20 | 196 | 17.7 | 35.4 | 0.00 | 4.39 | 0.13 | 66 | 1010.7 |
| 20260506184029 | 20 | 211 | 19.3 | 35.4 | 0.00 | 4.39 | 0.13 | 66 | 1010.7 |
| 20260506183936 | 20 | 171 | 22.5 | 35.4 | 0.00 | 4.39 | 0.13 | 66 | 1010.8 |
| 20260506183855 | 20 | 182 | 22.5 | 35.4 | 0.00 | 4.39 | 0.13 | 66 | 1010.8 |
| 20260506183827 | 20 | 187 | 22.5 | 35.4 | 0.00 | 4.39 | 0.13 | 66 | 1010.8 |
| 20260506183642 | 20 | 201 | 16.1 | 33.8 | 0.00 | 4.39 | 0.13 | 66 | 1010.7 |
| 20260506183521 | 20 | 227 | 16.1 | 33.8 | 0.00 | 4.39 | 0.13 | 65 | 1010.7 |
| 20260506183437 | 20 | 216 | 16.1 | 33.8 | 0.00 | 4.39 | 0.13 | 65 | 1010.7 |
| 20260506183334 | 20 | 192 | 20.9 | 33.8 | 0.00 | 4.39 | 0.13 | 65 | 1010.7 |
| 20260506183228 | 20 | 187 | 22.5 | 33.8 | 0.00 | 4.39 | 0.13 | 65 | 1010.7 |
| 20260506183136 | 20 | 199 | 20.9 | 33.8 | 0.00 | 4.39 | 0.13 | 65 | 1010.6 |
| 20260506183026 | 20 | 200 | 19.3 | 33.8 | 0.00 | 4.39 | 0.13 | 65 | 1010.7 |
| 20260506182935 | 20 | 199 | 22.5 | 33.8 | 0.00 | 4.39 | 0.13 | 65 | 1010.6 |
| 20260506182836 | 20 | 196 | 22.5 | 35.4 | 0.00 | 4.39 | 0.13 | 65 | 1010.7 |
| 20260506182743 | 20 | 175 | 22.5 | 35.4 | 0.00 | 4.39 | 0.13 | 65 | 1010.7 |
| 20260506182622 | 20 | 196 | 20.9 | 35.4 | 0.00 | 4.39 | 0.13 | 65 | 1010.8 |
| 20260506182550 | 20 | 184 | 19.3 | 35.4 | 0.00 | 4.39 | 0.13 | 65 | 1010.8 |
| 20260506182439 | 20 | 192 | 16.1 | 35.4 | 0.00 | 4.39 | 0.13 | 65 | 1010.7 |
| 20260506182347 | 20 | 182 | 12.9 | 35.4 | 0.00 | 4.39 | 0.13 | 65 | 1010.7 |
| 20260506182219 | 20 | 175 | 14.5 | 35.4 | 0.00 | 4.39 | 0.13 | 65 | 1010.6 |
| 20260506182151 | 20 | 173 | 16.1 | 35.4 | 0.00 | 4.39 | 0.13 | 65 | 1010.6 |
| 20260506182040 | 20 | 182 | 20.9 | 35.4 | 0.00 | 4.39 | 0.13 | 65 | 1010.6 |
| 20260506181949 | 20 | 202 | 20.9 | 35.4 | 0.00 | 4.39 | 0.13 | 65 | 1010.6 |
| 20260506181821 | 20 | 180 | 16.1 | 29.0 | 0.00 | 4.39 | 0.13 | 65 | 1010.6 |
| 20260506181721 | 20 | 182 | 16.1 | 25.7 | 0.00 | 4.39 | 0.13 | 65 | 1010.5 |
| 20260506181652 | 20 | 195 | 16.1 | 25.7 | 0.00 | 4.39 | 0.13 | 65 | 1010.5 |
| 20260506181545 | 20 | 187 | 17.7 | 25.7 | 0.00 | 4.39 | 0.13 | 65 | 1010.6 |
| 20260506181455 | 20 | 171 | 19.3 | 29.0 | 0.00 | 4.39 | 0.13 | 65 | 1010.6 |
| 20260506181332 | 20 | 183 | 19.3 | 29.0 | 0.00 | 4.39 | 0.13 | 65 | 1010.5 |
| 20260506181240 | 20 | 191 | 17.7 | 30.6 | 0.00 | 4.39 | 0.13 | 65 | 1010.6 |
| 20260506181137 | 20 | 184 | 17.7 | 30.6 | 0.00 | 4.39 | 0.13 | 65 | 1010.6 |
| 20260506181041 | 20 | 173 | 16.1 | 30.6 | 0.00 | 4.39 | 0.13 | 64 | 1010.6 |
| 20260506180949 | 20 | 182 | 16.1 | 30.6 | 0.00 | 4.39 | 0.13 | 64 | 1010.6 |
| 20260506180842 | 20 | 188 | 17.7 | 30.6 | 0.00 | 4.39 | 0.13 | 64 | 1010.4 |
| 20260506180731 | 20 | 187 | 19.3 | 30.6 | 0.00 | 4.39 | 0.13 | 64 | 1010.4 |
| 20260506180633 | 20 | 197 | 19.3 | 30.6 | 0.00 | 4.39 | 0.13 | 64 | 1010.5 |
| 20260506180554 | 20 | 187 | 20.9 | 30.6 | 0.00 | 4.39 | 0.13 | 64 | 1010.4 |
| 20260506180427 | 20 | 168 | 17.7 | 30.6 | 0.00 | 4.39 | 0.13 | 64 | 1010.5 |
| 20260506180355 | 20 | 185 | 19.3 | 30.6 | 0.00 | 4.39 | 0.13 | 64 | 1010.5 |
| 20260506180244 | 20 | 187 | 20.9 | 30.6 | 0.00 | 4.39 | 0.13 | 64 | 1010.4 |
| 20260506180123 | 20 | 192 | 19.3 | 33.8 | 0.00 | 4.39 | 0.13 | 64 | 1010.4 |
| 20260506180049 | 20 | 203 | 17.7 | 33.8 | 0.00 | 4.39 | 0.13 | 64 | 1010.4 |
| 20260506175947 | 20 | 194 | 19.3 | 40.2 | 0.00 | 5.79 | 0.13 | 64 | 1010.4 |
| 20260506175819 | 21 | 200 | 19.3 | 40.2 | 0.00 | 5.79 | 0.13 | 64 | 1010.4 |
| 20260506175728 | 21 | 190 | 17.7 | 40.2 | 0.00 | 5.79 | 0.13 | 64 | 1010.4 |
| 20260506175635 | 21 | 185 | 17.7 | 40.2 | 0.00 | 5.79 | 0.13 | 64 | 1010.3 |
| 20260506175527 | 21 | 209 | 19.3 | 46.7 | 0.00 | 5.79 | 0.13 | 64 | 1010.2 |
| 20260506175436 | 21 | 197 | 19.3 | 46.7 | 0.00 | 5.79 | 0.13 | 63 | 1010.3 |
| 20260506175332 | 21 | 192 | 22.5 | 46.7 | 0.00 | 5.79 | 0.13 | 63 | 1010.3 |
| 20260506175230 | 21 | 194 | 24.1 | 46.7 | 0.00 | 5.79 | 0.13 | 63 | 1010.3 |
| 20260506175201 | 21 | 186 | 22.5 | 46.7 | 0.00 | 5.79 | 0.13 | 63 | 1010.2 |
| 20260506175045 | 21 | 196 | 22.5 | 46.7 | 0.00 | 5.79 | 0.13 | 63 | 1010.1 |
| 20260506174922 | 21 | 207 | 25.7 | 46.7 | 0.00 | 5.79 | 0.13 | 63 | 1010.3 |
| 20260506174819 | 21 | 187 | 29.0 | 46.7 | 0.00 | 5.79 | 0.13 | 63 | 1010.3 |
| 20260506174727 | 21 | 175 | 27.4 | 46.7 | 0.00 | 5.79 | 0.13 | 63 | 1010.3 |
| 20260506174641 | 21 | 198 | 25.7 | 38.6 | 0.00 | 5.79 | 0.13 | 63 | 1010.3 |
| 20260506174529 | 21 | 194 | 25.7 | 38.6 | 0.00 | 5.79 | 0.13 | 63 | 1010.2 |
| 20260506174456 | 21 | 187 | 27.4 | 38.6 | 0.00 | 5.79 | 0.13 | 63 | 1010.2 |
| 20260506174329 | 21 | 178 | 29.0 | 38.6 | 0.00 | 5.79 | 0.13 | 63 | 1010.2 |
| 20260506174225 | 21 | 196 | 25.7 | 38.6 | 0.00 | 5.79 | 0.13 | 63 | 1010.1 |
| 20260506174131 | 21 | 197 | 22.5 | 38.6 | 0.00 | 5.79 | 0.13 | 63 | 1010.1 |
| 20260506174039 | 21 | 199 | 27.4 | 38.6 | 0.00 | 5.79 | 0.13 | 63 | 1010.2 |
| 20260506174004 | 21 | 194 | 27.4 | 38.6 | 0.00 | 5.79 | 0.13 | 63 | 1010.1 |
| 20260506173918 | 21 | 205 | 24.1 | 38.6 | 0.00 | 5.79 | 0.13 | 63 | 1010.2 |
| 20260506173735 | 21 | 184 | 20.9 | 38.6 | 0.00 | 5.79 | 0.13 | 63 | 1010.3 |
| 20260506173633 | 21 | 183 | 22.5 | 38.6 | 0.00 | 5.79 | 0.13 | 63 | 1010.1 |
| 20260506173541 | 21 | 192 | 22.5 | 38.6 | 0.00 | 5.79 | 0.13 | 63 | 1010.1 |
| 20260506173435 | 21 | 174 | 20.9 | 38.6 | 0.00 | 5.79 | 0.13 | 63 | 1010.1 |
| 20260506173342 | 21 | 200 | 20.9 | 38.6 | 0.00 | 5.79 | 0.13 | 63 | 1010.1 |
| 20260506173237 | 21 | 199 | 22.5 | 38.6 | 0.00 | 5.79 | 0.13 | 63 | 1010.1 |
| 20260506173144 | 21 | 199 | 19.3 | 37.0 | 0.00 | 5.79 | 0.13 | 63 | 1010.2 |
| 20260506173024 | 21 | 190 | 19.3 | 37.0 | 0.00 | 5.79 | 0.13 | 63 | 1010.2 |
| 20260506172916 | 21 | 200 | 17.7 | 37.0 | 0.00 | 5.79 | 0.13 | 63 | 1010.1 |
| 20260506172828 | 21 | 170 | 19.3 | 37.0 | 0.00 | 5.79 | 0.13 | 63 | 1010.1 |
| 20260506172723 | 21 | 180 | 20.9 | 37.0 | 0.00 | 5.79 | 0.13 | 63 | 1010.1 |
| 20260506172616 | 21 | 193 | 20.9 | 37.0 | 0.00 | 5.79 | 0.13 | 63 | 1010.1 |
| 20260506172527 | 21 | 193 | 24.1 | 37.0 | 0.00 | 5.79 | 0.13 | 63 | 1010.1 |
| 20260506172420 | 21 | 180 | 27.4 | 37.0 | 0.00 | 5.79 | 0.13 | 63 | 1010.1 |
| 20260506172353 | 21 | 196 | 25.7 | 37.0 | 0.00 | 5.79 | 0.13 | 63 | 1010.1 |
| 20260506172319 | 21 | 182 | 25.7 | 37.0 | 0.00 | 5.79 | 0.13 | 63 | 1010.2 |
| 20260506172123 | 21 | 187 | 25.7 | 37.0 | 0.00 | 5.79 | 0.13 | 63 | 1010.2 |
| 20260506172033 | 21 | 200 | 22.5 | 35.4 | 0.00 | 5.79 | 0.13 | 63 | 1010.2 |
| 20260506171933 | 21 | 198 | 20.9 | 37.0 | 0.00 | 5.79 | 0.13 | 63 | 1010.2 |
| 20260506171841 | 21 | 196 | 22.5 | 37.0 | 0.00 | 5.79 | 0.13 | 63 | 1010.1 |
| 20260506171738 | 21 | 201 | 22.5 | 37.0 | 0.00 | 5.79 | 0.13 | 63 | 1010.0 |
| 20260506171650 | 21 | 180 | 20.9 | 37.0 | 0.00 | 5.79 | 0.13 | 63 | 1010.0 |
| 20260506171520 | 21 | 178 | 20.9 | 37.0 | 0.00 | 5.79 | 0.13 | 63 | 1009.9 |
| 20260506171439 | 21 | 209 | 22.5 | 37.0 | 0.00 | 5.79 | 0.13 | 63 | 1009.9 |
| 20260506171346 | 21 | 196 | 20.9 | 37.0 | 0.00 | 5.79 | 0.13 | 62 | 1010.0 |
| 20260506171240 | 21 | 206 | 24.1 | 37.0 | 0.00 | 5.79 | 0.13 | 62 | 1010.1 |
| 20260506171128 | 21 | 186 | 22.5 | 37.0 | 0.00 | 5.79 | 0.13 | 62 | 1010.1 |
| 20260506171018 | 21 | 180 | 17.7 | 33.8 | 0.00 | 5.79 | 0.13 | 63 | 1010.0 |
| 20260506170950 | 21 | 207 | 17.7 | 33.8 | 0.00 | 5.79 | 0.13 | 63 | 1010.0 |
| 20260506170844 | 21 | 169 | 17.7 | 33.8 | 0.00 | 5.79 | 0.13 | 62 | 1010.0 |
| 20260506170721 | 21 | 157 | 16.1 | 33.8 | 0.00 | 5.79 | 0.13 | 62 | 1010.0 |
| 20260506170621 | 21 | 176 | 17.7 | 33.8 | 0.00 | 5.79 | 0.13 | 62 | 1010.0 |
| 20260506170527 | 21 | 188 | 19.3 | 33.8 | 0.00 | 5.79 | 0.13 | 62 | 1010.0 |
| 20260506170422 | 21 | 180 | 17.7 | 30.6 | 0.00 | 5.79 | 0.13 | 62 | 1010.0 |
| 20260506170332 | 21 | 184 | 17.7 | 30.6 | 0.00 | 5.79 | 0.13 | 62 | 1010.0 |
| 20260506170240 | 21 | 199 | 14.5 | 30.6 | 0.00 | 5.79 | 0.13 | 62 | 1010.1 |
| 20260506170142 | 21 | 186 | 14.5 | 30.6 | 0.00 | 5.79 | 0.13 | 62 | 1010.1 |
| 20260506170026 | 21 | 186 | 17.7 | 30.6 | 0.00 | 5.79 | 0.13 | 62 | 1010.2 |
| 20260506165924 | 21 | 179 | 19.3 | 30.6 | 0.00 | 5.89 | 0.13 | 62 | 1010.2 |
| 20260506165851 | 21 | 197 | 17.7 | 30.6 | 0.00 | 5.89 | 0.13 | 62 | 1010.2 |
| 20260506165736 | 21 | 187 | 17.7 | 30.6 | 0.00 | 5.89 | 0.13 | 62 | 1010.2 |
| 20260506165642 | 21 | 178 | 17.7 | 30.6 | 0.00 | 5.89 | 0.13 | 61 | 1010.2 |
| 20260506165536 | 21 | 184 | 17.7 | 24.1 | 0.00 | 5.89 | 0.13 | 61 | 1010.2 |
| 20260506165447 | 21 | 189 | 16.1 | 22.5 | 0.00 | 5.89 | 0.13 | 61 | 1010.2 |
| 20260506165319 | 21 | 168 | 14.5 | 22.5 | 0.00 | 5.89 | 0.13 | 61 | 1010.1 |
| 20260506165247 | 21 | 174 | 14.5 | 22.5 | 0.00 | 5.89 | 0.13 | 61 | 1010.1 |
| 20260506165143 | 21 | 170 | 12.9 | 24.1 | 0.00 | 5.89 | 0.13 | 61 | 1010.2 |
| 20260506165048 | 21 | 181 | 12.9 | 24.1 | 0.00 | 5.89 | 0.13 | 61 | 1010.2 |
| 20260506164923 | 21 | 184 | 14.5 | 24.1 | 0.00 | 5.89 | 0.13 | 61 | 1010.2 |
| 20260506164831 | 21 | 187 | 14.5 | 24.1 | 0.00 | 5.89 | 0.13 | 61 | 1010.2 |
| 20260506164748 | 21 | 202 | 14.5 | 24.1 | 0.00 | 5.89 | 0.13 | 61 | 1010.2 |
| 20260506164638 | 21 | 186 | 14.5 | 29.0 | 0.00 | 5.89 | 0.13 | 61 | 1010.2 |
| 20260506164529 | 21 | 182 | 14.5 | 29.0 | 0.00 | 5.89 | 0.13 | 61 | 1010.2 |
| 20260506164435 | 21 | 169 | 14.5 | 29.0 | 0.00 | 5.89 | 0.13 | 61 | 1010.2 |
| 20260506164402 | 21 | 207 | 16.1 | 29.0 | 0.00 | 5.89 | 0.13 | 61 | 1010.2 |
| 20260506164221 | 21 | 179 | 14.5 | 29.0 | 0.00 | 5.89 | 0.13 | 61 | 1010.2 |
| 20260506164139 | 21 | 179 | 14.5 | 29.0 | 0.00 | 5.89 | 0.13 | 61 | 1010.2 |
| 20260506164020 | 21 | 188 | 14.5 | 32.2 | 0.00 | 5.89 | 0.13 | 61 | 1010.2 |
| 20260506163930 | 21 | 152 | 17.7 | 32.2 | 0.00 | 5.89 | 0.13 | 61 | 1010.2 |
| 20260506163843 | 21 | 202 | 16.1 | 32.2 | 0.00 | 5.89 | 0.13 | 61 | 1010.1 |
| 20260506163752 | 21 | 173 | 14.5 | 32.2 | 0.00 | 5.89 | 0.13 | 61 | 1010.1 |
| 20260506163638 | 21 | 193 | 16.1 | 32.2 | 0.00 | 5.89 | 0.13 | 61 | 1010.1 |
| 20260506163529 | 21 | 189 | 17.7 | 32.2 | 0.00 | 5.89 | 0.13 | 60 | 1010.1 |
| 20260506163437 | 21 | 194 | 17.7 | 32.2 | 0.00 | 5.89 | 0.13 | 60 | 1010.1 |
| 20260506163331 | 21 | 212 | 20.9 | 32.2 | 0.00 | 5.89 | 0.13 | 60 | 1010.1 |
| 20260506163259 | 21 | 200 | 22.5 | 32.2 | 0.00 | 5.89 | 0.13 | 60 | 1010.1 |
| 20260506163137 | 21 | 194 | 22.5 | 32.2 | 0.00 | 5.89 | 0.13 | 60 | 1010.1 |
| 20260506163045 | 21 | 188 | 19.3 | 32.2 | 0.00 | 5.89 | 0.13 | 60 | 1010.1 |
| 20260506162938 | 21 | 185 | 19.3 | 32.2 | 0.00 | 5.89 | 0.13 | 60 | 1010.1 |
| 20260506162845 | 21 | 196 | 20.9 | 32.2 | 0.00 | 5.89 | 0.13 | 60 | 1010.1 |
| 20260506162743 | 21 | 170 | 17.7 | 32.2 | 0.00 | 5.89 | 0.13 | 60 | 1010.1 |
| 20260506162648 | 21 | 169 | 16.1 | 32.2 | 0.00 | 5.89 | 0.13 | 60 | 1010.2 |
| 20260506162540 | 22 | 165 | 17.7 | 32.2 | 0.00 | 5.89 | 0.13 | 60 | 1010.2 |
| 20260506162416 | 22 | 191 | 17.7 | 32.2 | 0.00 | 5.89 | 0.13 | 59 | 1010.2 |
| 20260506162327 | 22 | 182 | 19.3 | 32.2 | 0.00 | 5.89 | 0.13 | 59 | 1010.2 |
| 20260506162237 | 22 | 201 | 20.9 | 32.2 | 0.00 | 5.89 | 0.13 | 59 | 1010.2 |
| 20260506162137 | 22 | 171 | 19.3 | 35.4 | 0.00 | 5.89 | 0.13 | 59 | 1010.2 |
| 20260506162028 | 22 | 177 | 17.7 | 35.4 | 0.00 | 5.89 | 0.13 | 59 | 1010.2 |
| 20260506161936 | 22 | 161 | 16.1 | 35.4 | 0.00 | 5.89 | 0.13 | 59 | 1010.3 |
| 20260506161831 | 22 | 170 | 17.7 | 35.4 | 0.00 | 5.89 | 0.13 | 59 | 1010.2 |
| 20260506161741 | 22 | 162 | 20.9 | 35.4 | 0.00 | 5.89 | 0.13 | 59 | 1010.2 |
| 20260506161709 | 22 | 172 | 19.3 | 35.4 | 0.00 | 5.89 | 0.13 | 59 | 1010.2 |
| 20260506161525 | 22 | 180 | 17.7 | 38.6 | 0.00 | 5.89 | 0.13 | 59 | 1010.2 |
| 20260506161421 | 22 | 173 | 19.3 | 38.6 | 0.00 | 5.89 | 0.13 | 59 | 1010.1 |
| 20260506161348 | 22 | 193 | 19.3 | 38.6 | 0.00 | 5.89 | 0.13 | 58 | 1010.1 |
| 20260506161220 | 22 | 177 | 20.9 | 38.6 | 0.00 | 5.89 | 0.13 | 58 | 1010.1 |
| 20260506161129 | 22 | 196 | 20.9 | 38.6 | 0.00 | 5.89 | 0.13 | 58 | 1010.1 |
| 20260506161025 | 22 | 171 | 19.3 | 38.6 | 0.00 | 5.89 | 0.13 | 58 | 1010.1 |
| 20260506160934 | 22 | 172 | 20.9 | 38.6 | 0.00 | 5.89 | 0.13 | 58 | 1010.1 |
| 20260506160849 | 22 | 175 | 22.5 | 38.6 | 0.00 | 5.89 | 0.13 | 58 | 1010.1 |
| 20260506160739 | 22 | 198 | 25.7 | 40.2 | 0.00 | 5.89 | 0.13 | 58 | 1010.2 |
| 20260506160707 | 22 | 182 | 22.5 | 40.2 | 0.00 | 5.89 | 0.13 | 58 | 1010.3 |
| 20260506160536 | 22 | 193 | 19.3 | 40.2 | 0.00 | 5.89 | 0.13 | 58 | 1010.2 |
| 20260506160431 | 22 | 177 | 22.5 | 40.2 | 0.00 | 5.89 | 0.13 | 58 | 1010.3 |
| 20260506160321 | 22 | 186 | 19.3 | 40.2 | 0.00 | 5.89 | 0.13 | 58 | 1010.3 |
| 20260506160219 | 22 | 178 | 20.9 | 40.2 | 0.00 | 5.89 | 0.13 | 58 | 1010.4 |
| 20260506160147 | 22 | 166 | 24.1 | 40.2 | 0.00 | 5.89 | 0.13 | 57 | 1010.4 |
| 20260506160039 | 22 | 188 | 25.7 | 40.2 | 0.00 | 5.89 | 0.13 | 57 | 1010.3 |
| 20260506155922 | 22 | 175 | 19.3 | 40.2 | 0.00 | 5.89 | 0.13 | 57 | 1010.3 |
| 20260506155837 | 22 | 196 | 17.7 | 35.4 | 0.00 | 5.89 | 0.13 | 57 | 1010.3 |
| 20260506155744 | 22 | 181 | 20.9 | 35.4 | 0.00 | 5.89 | 0.13 | 57 | 1010.3 |
| 20260506155621 | 22 | 185 | 22.5 | 35.4 | 0.00 | 5.89 | 0.13 | 57 | 1010.3 |
| 20260506155520 | 22 | 198 | 20.9 | 35.4 | 0.00 | 5.89 | 0.13 | 57 | 1010.2 |
| 20260506155429 | 22 | 182 | 19.3 | 33.8 | 0.00 | 5.89 | 0.13 | 57 | 1010.2 |
| 20260506155321 | 22 | 170 | 20.9 | 33.8 | 0.00 | 5.89 | 0.13 | 57 | 1010.3 |
| 20260506155253 | 22 | 160 | 24.1 | 33.8 | 0.00 | 5.89 | 0.13 | 56 | 1010.3 |
| 20260506155129 | 22 | 169 | 24.1 | 33.8 | 0.00 | 5.89 | 0.13 | 56 | 1010.4 |
| 20260506155054 | 22 | 176 | 22.5 | 32.2 | 0.00 | 5.89 | 0.13 | 57 | 1010.5 |
| 20260506154946 | 22 | 164 | 20.9 | 32.2 | 0.00 | 5.89 | 0.13 | 57 | 1010.3 |
| 20260506154822 | 22 | 161 | 20.9 | 30.6 | 0.00 | 5.89 | 0.13 | 57 | 1010.3 |
| 20260506154720 | 22 | 158 | 19.3 | 29.0 | 0.00 | 5.89 | 0.13 | 58 | 1010.4 |
| 20260506154627 | 22 | 177 | 17.7 | 29.0 | 0.00 | 5.89 | 0.13 | 57 | 1010.4 |
| 20260506154538 | 22 | 183 | 16.1 | 29.0 | 0.00 | 5.89 | 0.13 | 58 | 1010.6 |
| 20260506154445 | 22 | 173 | 12.9 | 29.0 | 0.00 | 5.89 | 0.13 | 58 | 1010.3 |
| 20260506154322 | 22 | 196 | 16.1 | 29.0 | 0.00 | 5.89 | 0.13 | 58 | 1010.6 |
| 20260506154253 | 22 | 177 | 17.7 | 29.0 | 0.00 | 5.89 | 0.13 | 58 | 1010.6 |
| 20260506154131 | 22 | 192 | 17.7 | 25.7 | 0.00 | 5.89 | 0.13 | 58 | 1010.3 |
| 20260506154037 | 22 | 180 | 17.7 | 29.0 | 0.00 | 5.89 | 0.13 | 58 | 1010.3 |
| 20260506153928 | 22 | 174 | 19.3 | 29.0 | 0.00 | 5.89 | 0.13 | 58 | 1010.4 |
| 20260506153820 | 22 | 170 | 16.1 | 29.0 | 0.00 | 5.89 | 0.13 | 58 | 1010.3 |
| 20260506153729 | 22 | 175 | 16.1 | 29.0 | 0.00 | 5.89 | 0.13 | 58 | 1010.3 |
| 20260506153628 | 22 | 169 | 14.5 | 29.0 | 0.00 | 5.89 | 0.13 | 58 | 1010.3 |
| 20260506153532 | 22 | 174 | 14.5 | 29.0 | 0.00 | 5.89 | 0.13 | 58 | 1010.2 |
| 20260506153429 | 22 | 178 | 17.7 | 29.0 | 0.00 | 5.89 | 0.13 | 58 | 1010.3 |
| 20260506153337 | 22 | 163 | 17.7 | 29.0 | 0.00 | 5.89 | 0.13 | 58 | 1010.3 |
| 20260506153234 | 22 | 175 | 16.1 | 29.0 | 0.00 | 5.89 | 0.13 | 58 | 1010.3 |
| 20260506153128 | 22 | 150 | 17.7 | 25.7 | 0.00 | 5.89 | 0.13 | 58 | 1010.2 |
| 20260506153032 | 22 | 184 | 17.7 | 25.7 | 0.00 | 5.89 | 0.13 | 58 | 1010.2 |
| 20260506152936 | 22 | 175 | 17.7 | 25.7 | 0.00 | 5.89 | 0.13 | 58 | 1010.2 |
| 20260506152820 | 22 | 180 | 16.1 | 29.0 | 0.00 | 5.89 | 0.13 | 58 | 1010.3 |
| 20260506152748 | 22 | 200 | 14.5 | 29.0 | 0.00 | 5.89 | 0.13 | 58 | 1010.3 |
| 20260506152641 | 22 | 192 | 14.5 | 32.2 | 0.00 | 5.89 | 0.13 | 58 | 1010.3 |
| 20260506152551 | 22 | 186 | 12.9 | 32.2 | 0.00 | 5.89 | 0.13 | 58 | 1010.3 |
| 20260506152507 | 22 | 198 | 14.5 | 32.2 | 0.00 | 5.89 | 0.13 | 58 | 1010.2 |
| 20260506152320 | 22 | 186 | 19.3 | 32.2 | 0.00 | 5.89 | 0.13 | 58 | 1010.3 |
| 20260506152248 | 22 | 182 | 19.3 | 32.2 | 0.00 | 5.89 | 0.13 | 57 | 1010.3 |
| 20260506152129 | 22 | 163 | 17.7 | 32.2 | 0.00 | 5.89 | 0.13 | 58 | 1010.3 |
| 20260506152022 | 22 | 173 | 17.7 | 32.2 | 0.00 | 5.89 | 0.13 | 57 | 1010.2 |
| 20260506151930 | 22 | 148 | 19.3 | 32.2 | 0.00 | 5.89 | 0.13 | 57 | 1010.2 |
| 20260506151821 | 22 | 181 | 20.9 | 32.2 | 0.00 | 5.89 | 0.13 | 57 | 1010.4 |
| 20260506151751 | 22 | 170 | 19.3 | 30.6 | 0.00 | 5.89 | 0.13 | 57 | 1010.4 |
| 20260506151658 | 22 | 189 | 19.3 | 30.6 | 0.00 | 5.89 | 0.13 | 57 | 1010.2 |
| 20260506151530 | 22 | 168 | 19.3 | 30.6 | 0.00 | 5.89 | 0.13 | 56 | 1010.2 |
| 20260506151442 | 22 | 174 | 19.3 | 33.8 | 0.00 | 5.89 | 0.13 | 56 | 1010.2 |
| 20260506151339 | 22 | 160 | 19.3 | 33.8 | 0.00 | 5.89 | 0.13 | 56 | 1010.2 |
| 20260506151226 | 23 | 184 | 17.7 | 33.8 | 0.00 | 5.89 | 0.13 | 56 | 1010.3 |
| 20260506151135 | 23 | 165 | 17.7 | 35.4 | 0.00 | 5.89 | 0.13 | 56 | 1010.2 |
| 20260506151027 | 23 | 171 | 20.9 | 35.4 | 0.00 | 5.89 | 0.13 | 55 | 1010.2 |
| 20260506150955 | 23 | 157 | 20.9 | 35.4 | 0.00 | 5.89 | 0.13 | 56 | 1010.2 |
| 20260506150831 | 23 | 165 | 19.3 | 35.4 | 0.00 | 5.89 | 0.13 | 56 | 1010.2 |
| 20260506150737 | 23 | 159 | 19.3 | 35.4 | 0.00 | 5.89 | 0.13 | 56 | 1010.2 |
| 20260506150635 | 23 | 174 | 17.7 | 35.4 | 0.00 | 5.89 | 0.13 | 56 | 1010.2 |
| 20260506150522 | 23 | 188 | 19.3 | 35.4 | 0.00 | 5.89 | 0.13 | 56 | 1010.1 |
| 20260506150418 | 23 | 186 | 22.5 | 35.4 | 0.00 | 5.89 | 0.13 | 55 | 1010.1 |
| 20260506150348 | 23 | 188 | 22.5 | 35.4 | 0.00 | 5.89 | 0.13 | 55 | 1010.1 |
| 20260506150221 | 23 | 172 | 17.7 | 33.8 | 0.00 | 5.89 | 0.13 | 56 | 1010.1 |
| 20260506150121 | 23 | 171 | 19.3 | 33.8 | 0.00 | 5.89 | 0.13 | 55 | 1009.9 |
| 20260506150049 | 23 | 202 | 19.3 | 33.8 | 0.00 | 5.89 | 0.13 | 56 | 1009.9 |
| 20260506145940 | 23 | 202 | 17.7 | 33.8 | 0.00 | 5.89 | 0.13 | 56 | 1010.2 |
| 20260506145836 | 23 | 178 | 20.9 | 35.4 | 0.00 | 5.89 | 0.13 | 55 | 1010.1 |
| 20260506145730 | 23 | 175 | 22.5 | 35.4 | 0.00 | 5.89 | 0.13 | 55 | 1010.1 |
| 20260506145637 | 23 | 165 | 20.9 | 35.4 | 0.00 | 5.89 | 0.13 | 55 | 1010.0 |
| 20260506145528 | 23 | 168 | 19.3 | 35.4 | 0.00 | 5.89 | 0.13 | 55 | 1010.0 |
| 20260506145435 | 23 | 169 | 19.3 | 35.4 | 0.00 | 5.89 | 0.13 | 55 | 1009.9 |
| 20260506145332 | 23 | 198 | 24.1 | 38.6 | 0.00 | 5.89 | 0.13 | 55 | 1010.0 |
| 20260506145244 | 23 | 192 | 27.4 | 41.8 | 0.00 | 5.89 | 0.13 | 55 | 1010.0 |
| 20260506145120 | 23 | 219 | 25.7 | 41.8 | 0.00 | 5.89 | 0.13 | 55 | 1009.9 |
| 20260506145035 | 23 | 200 | 24.1 | 41.8 | 0.00 | 5.89 | 0.13 | 55 | 1009.9 |
| 20260506144941 | 23 | 221 | 22.5 | 41.8 | 0.00 | 5.89 | 0.13 | 55 | 1009.7 |
| 20260506144849 | 23 | 226 | 20.9 | 41.8 | 0.00 | 5.89 | 0.13 | 54 | 1009.7 |
| 20260506144744 | 23 | 202 | 19.3 | 41.8 | 0.00 | 5.89 | 0.13 | 54 | 1009.9 |